     2              OBSERVATION DATA    GPS                 RINEX VERSION / TYPE
teqc 1997Jun30 19970702                                     PGM / RUN BY / DATE
                                                            COMMENT
Original Marker Name:                                       COMMENT
Campaign Name: HMC San Gabriel Valley 1993-1996             COMMENT
4-Character Station Name: CAMP                              COMMENT
6-Character Antenna Code: DMRCHT                            COMMENT
Vertical Measurement Point: BPA                             COMMENT
Vertical Offset to Rinex Ref. Point: 0.0000                 COMMENT
Radial Measurement Point: RRP                               COMMENT
Radial Offset to Rinex Ref. Point: 0.0000                   COMMENT
Antenna Height from Field Measurement: 0.0614 m             COMMENT
Original XYZ: -2459861.2337 -4672314.1146 3567422.0346      COMMENT
New XYZ position is based on association with SCEC monument COMMENT
E1D0R4Q8+0011. Position of that monument is believed to be  COMMENT
valid to within 1 m horizontally; vertical accuracy         COMMENT
should be no worse than 3-times this value.                 COMMENT
                                                            COMMENT
Revised Rinex header created by UCSD GPS archive for        COMMENT
GSAC on 13-Apr-1999 (1999:103) 22:23:18 GMT                 COMMENT
For assistance contact dagnew@ucsd.edu or hjohnson@ucsd.edu COMMENT
                                                            COMMENT
CAMP BONITA                                                 MARKER NAME
UNKNOWN OBSERVER HARVEY MUDD COLLEGE                        OBSERVER / AGENCY
262 TURBOROGUE SNR-8000 2.8                                 REC # / TYPE / VERS
UNKNOWN DORNE-MARGOL. TYPE T                                ANT # / TYPE
 -2459892.0000 -4672264.0000  3567347.0000                  APPROX POSITION XYZ
        0.0614        0.0000        0.0000                  ANTENNA: DELTA H/E/N
     1     1     0                                          WAVELENGTH FACT L1/2
     5    L1    L2    C1    P2    P1                        # / TYPES OF OBSERV
     0                                                      INTERVAL
  1994     4     6     0     0    0.000000                  TIME OF FIRST OBS
  1994     4     6    23    59   30.000000                  TIME OF LAST OBS
     0                                                      # OF SATELLITES
                                                            END OF HEADER
 94  4  6  0  0  0.0000000  0  8G 9G12G 7G 2G24G 5G13G 4
 -10786847.69444  -8405333.37344  21217640.1134   21217639.7074
 -12785272.628 4  -9962546.638 4  21724864.878    21724863.348
   8576635.01144   6683090.04044  21807392.2924   21807392.4014
   6820662.06844   5314797.13944  22617619.6874   22617620.1284
 -11427794.50244  -8904766.56444  22286624.8814   22286626.1144
  -7291221.12844  -5681466.28144  23669319.2394   23669320.5564
  -7611681.414 4  -5931177.730 4  20482757.729    20482756.819
 -11793147.17344  -9189460.64544  20893325.4574   20893324.7644
 94  4  6  0  0 30.0000000  0  8G 9G12G 7G 2G24G 5G13G 4
 -10824608.76344  -8434757.57944  21210454.3274   21210454.4344
 -12854089.947 4 -10016170.507 4  21711769.288    21711767.890
   8643677.54844   6735330.95944  21820149.9374   21820150.2304
   6883162.94344   5363499.07544  22629513.3334   22629514.0904
 -11520234.52944  -8976797.71944  22269033.9294   22269035.1164
  -7372209.37244  -5744573.96744  23653907.5394   23653908.1954
  -7602777.672 4  -5924239.749 4  20484452.044    20484451.177
 -11837533.06444  -9224047.04144  20884879.1164   20884878.4614
 94  4  6  0  1  0.0000000  0  8G 9G12G 7G 2G24G 5G13G 4
 -10861825.65244  -8463757.74644  21203372.2874   21203372.2524
 -12922569.576 4 -10069531.240 4  21698738.037    21698736.610
   8710838.82444   6787664.40344  21832930.0284   21832930.7524
   6945946.50944   5412421.28644  22641460.5634   22641461.5594
 -11612360.76344  -9048584.35744  22251502.8374   22251504.4434
  -7453166.04044  -5807657.05244  23638502.0354   23638503.1734
  -7593381.115 4  -5916917.758 4  20486240.100    20486239.283
 -11881363.75244  -9258200.81444  20876538.4624   20876537.9334
 94  4  6  0  1 30.0000000  0  8G 9G12G 7G 2G24G 5G13G 4
 -10898528.27444  -8492357.18644  21196388.1054   21196387.8104
 -12990725.804 4 -10122639.973 4  21685768.382    21685766.860
   8778123.74044   6840094.19144  21845733.8344   21845734.4814
   7009011.55944   5461562.83244  22653461.4714   22653462.9204
 -11704191.66744  -9120140.87844  22234027.9474   22234028.7804
  -7534101.04144  -5870723.25344  23623100.5744   23623102.1994
  -7583510.284 4  -5909226.201 4  20488118.480    20488117.627
 -11924655.89044  -9291934.93444  20868300.1914   20868299.5164
 94  4  6  0  2  0.0000000  0  8G 9G12G 7G 2G24G 5G13G 4
 -10934753.71444  -8520584.79244  21189494.5074   21189494.3934
 -13058564.871 4 -10175501.567 4  21672859.040    21672857.500
   8845541.17744   6892627.24444  21858563.0224   21858563.7404
   7072345.06244   5510913.56844  22665513.3624   22665514.4554
 -11795744.12244  -9191480.42544  22216606.2894   22216606.8924
  -7615032.13144  -5933786.36744  23607700.2564   23607700.9554
  -7573175.888 4  -5901173.422 4  20490085.049    20490084.203
 -11967430.80844  -9325266.02944  20860160.1704   20860159.7864
 94  4  6  0  2 30.0000000  0  8G 9G12G 7G 2G24G 5G13G 4
 -10970518.60544  -8548453.53044  21182688.5474   21182688.3214
 -13126104.368 4 -10228129.730 4  21660006.695    21660005.171
   8913083.59444   6945257.68044  21871416.0064   21871416.3554
   7135913.77444   5560447.57344  22677610.3184   22677611.6114
 -11887043.33844  -9262622.63144  22199232.7414   22199232.7684
  -7695999.06044  -5996877.48044  23592292.8444   23592292.8504
  -7562399.526 4  -5892776.257 4  20492135.726    20492134.856
 -12009719.47944  -9358218.22744  20852112.9274   20852112.6104
 94  4  6  0  3  0.0000000  0  8G 9G12G 7G24G 2G 5G13G 4
 -11005818.07844  -8575959.60444  21175971.2354   21175971.2514
 -13193341.115 4 -10280521.983 4  21647211.909    21647210.392
   8980740.51444   6997977.33944  21884290.8304   21884291.1444
 -11978078.37444  -9333558.97844  22181909.2604   22181910.0804
   7199715.44944   5610163.11344  22689751.3564   22689753.0474
  -7776995.24744  -6059991.33744  23576879.5744   23576878.9024
  -7551182.527 4  -5884035.737 4  20494270.245    20494269.367
 -12051510.71344  -9390782.81744  20844160.4004   20844159.8954
 94  4  6  0  3 30.0000000  0  8G 9G12G 7G24G 2G 5G13G 4
 -11040639.67844  -8603093.31244  21169344.9784   21169345.1274
 -13260266.255 4 -10332671.424 4  21634476.519    21634474.944
   9048499.84344   7050776.79944  21897184.8984   21897185.6824
 -12068850.76444  -9404290.67444  22164635.5954   22164636.3474
   7263738.91944   5660051.49844  22701934.5274   22701936.0674
  -7858018.77544  -6123126.49844  23561461.1704   23561462.9254
  -7539520.112 4  -5874948.142 4  20496489.535    20496488.618
 -12092785.51844  -9422944.99544  20836306.0474   20836305.6094
 94  4  6  0  4  0.0000000  0  8G 9G12G 7G24G 2G 5G13G 4
 -11074956.48344  -8629833.67144  21162814.7994   21162814.7934
 -13326864.713 4 -10384566.308 4  21621803.171    21621801.661
   9116357.55544   7103652.92644  21910097.7744   21910098.3674
 -12159336.01744  -9474798.62444  22147416.4654   22147418.0164
   7327982.81144   5710111.62144  22714159.6294   22714161.1414
  -7939055.65644  -6186272.07544  23546040.7064   23546041.8364
  -7527401.695 4  -5865505.220 4  20498795.633    20498794.684
 -12133542.26444  -9454703.48544  20828550.4904   20828549.8814
 94  4  6  0  4 30.0000000  0  8G 9G12G 7G24G 2G 5G13G 4
 -11108749.83344  -8656166.14544  21156384.1314   21156383.9254
 -13393129.499 4 -10436201.190 4  21609193.342    21609191.902
   9184299.71844   7156594.86244  21923026.8474   21923027.5104
 -12249513.51544  -9545066.77944  22130255.7354   22130258.0454
   7392445.98844   5760342.61944  22726426.6834   22726427.7514
  -8020103.28144  -6249426.02844  23530618.2144   23530620.8394
  -7514824.549 4  -5855704.846 4  20501188.970    20501188.057
 -12173761.13844  -9486042.85944  20820897.0654   20820896.3174
 94  4  6  0  5  0.0000000  0  8G 9G12G 7G24G 2G 5G13G 4
 -11141995.40544  -8682071.78144  21150057.6684   21150057.7034
 -13459041.208 4 -10487560.948 4  21596650.794    21596649.377
   9252320.32644   7209597.92144  21935970.6334   21935970.8214
 -12339357.86344  -9615075.34744  22113158.7124   22113160.7544
   7457142.75444   5810755.63444  22738738.1584   22738739.1134
  -8101138.17544  -6312570.05844  23515197.6244   23515198.1474
  -7501773.609 4  -5845535.280 4  20503672.454    20503671.534
 -12213409.97844  -9516938.04444  20813352.0724   20813351.3034
 94  4  6  0  5 30.0000000  0  8G 9G12G 7G24G 2G 5G13G 4
 -11174696.81644  -8707553.39144  21143834.8914   21143834.4404
 -13524603.676 4 -10538648.567 4  21584174.714    21584173.226
   9320422.96844   7262664.89344  21948930.1614   21948930.4584
 -12428875.95144  -9684829.67744  22096124.1584   22096125.6514
   7522063.77644   5861343.40044  22751092.2604   22751093.2114
  -8182176.71244  -6375716.93944  23499776.1154   23499777.6994
  -7488257.140 4  -5835002.965 4  20506244.546    20506243.611
 -12252501.56544  -9547399.00544  20805913.2874   20805912.5414
 94  4  6  0  6  0.0000000  0  8G 9G12G 7G24G 2G 5G13G 4
 -11206857.58344  -8732613.72944  21137714.8784   21137714.5494
 -13589814.876 4 -10589462.470 4  21571765.384    21571763.894
   9388625.31044   7315809.55944  21961908.8704   21961909.1854
 -12518057.28144  -9754321.59244  22079153.8434   22079155.7384
   7587213.06844   5912109.03044  22763489.8094   22763491.5174
  -8263217.96344  -6438865.90644  23484354.1334   23484354.8824
  -7474277.484 4  -5824109.725 4  20508904.795    20508903.856
 -12291042.81044  -9577431.12344  20798579.0194   20798578.1924
 94  4  6  0  6 30.0000000  0  8G 9G12G 7G24G 2G 5G13G 4
 -11238480.89944  -8757255.27044  21131697.0754   21131696.8344
 -13654678.116 4 -10640005.233 4  21559422.274    21559420.823
   9456928.89544   7369033.10744  21974906.9134   21974907.1514
 -12606917.35344  -9823563.17644  22062244.4774   22062245.2994
   7652585.59244   5963048.61044  22775929.8704   22775930.9714
  -8344273.51144  -6502026.06344  23468929.4844   23468930.6134
  -7459842.301 4  -5812861.528 4  20511651.710    20511650.775
 -12329029.84244  -9607031.39144  20791350.0584   20791349.4894
 94  4  6  0  7  0.0000000  0  8G 9G12G 7G24G 2G 5G13G 4
 -11269541.75944  -8781458.53544  21125786.5144   21125786.2014
 -13719165.792 4 -10690255.349 4  21547150.679    21547149.198
   9525366.66644   7422361.22444  21987930.1954   21987930.1164
 -12695450.08244  -9892549.68544  22045397.2004   22045398.6704
   7718220.70444   6014192.80344  22788419.8364   22788421.0524
  -8425316.01644  -6565176.02944  23453507.5574   23453508.5064
  -7444928.253 4  -5801240.192 4  20514489.779    20514488.832
 -12366451.02144  -9636190.73544  20784229.0954   20784228.7464
 94  4  6  0  7 30.0000000  0  8G 9G12G 7G24G 2G 5G13G 4
 -11300064.44044  -8805242.44044  21119978.3654   21119978.2204
 -13783286.883 4 -10740219.814 4  21534948.822    21534947.328
   9593942.29444   7475796.75344  22000979.7944   22000979.5224
 -12783677.92444  -9961298.61444  22028608.0314   22028608.9214
   7784119.62344   6065542.56944  22800959.9224   22800960.7774
  -8506354.23344  -6628322.65844  23438086.4114   23438089.2574
  -7429548.970 4  -5789256.335 4  20517416.339    20517415.429
 -12403333.50544  -9664930.31744  20777210.6214   20777210.0564
 94  4  6  0  8  0.0000000  0  8G 9G12G 7G24G 2G 5G13G 4
 -11330042.63044  -8828602.07244  21114273.7374   21114273.5414
 -13847038.042 4 -10789896.022 4  21522817.364    21522815.840
   9662651.01844   7529335.99844  22014054.2834   22014054.6884
 -12871588.94544 -10029800.67344  22011879.1124   22011880.6154
   7850285.82944   6117100.58544  22813550.9804   22813552.1484
  -8587372.88244  -6691454.05344  23422669.1804   23422670.4474
  -7413705.398 4  -5776910.694 4  20520431.252    20520430.364
 -12439668.74144  -9693243.47744  20770296.3874   20770295.5764
 94  4  6  0  8 30.0000000  0  8G 9G12G 7G24G 2G 5G13G 4
 -11359467.18844  -8851530.29244  21108674.4094   21108674.0904
 -13910409.902 4 -10839276.671 4  21510758.112    21510756.569
   9731490.70344   7582977.29144  22027154.0354   22027154.8244
 -12959175.42144 -10098049.85144  21995211.7934   21995213.2874
   7916740.92844   6168883.72744  22826197.1384   22826198.5174
  -8668361.50744  -6754562.03844  23407257.7284   23407260.3824
  -7397392.468 4  -5764199.317 4  20523535.514    20523534.621
 -12475431.87844  -9721110.84244  20763490.9694   20763490.1854
 94  4  6  0  9  0.0000000  0  8G 9G12G 7G24G 2G 5G13G 4
 -11388348.28044  -8874035.03444  21103178.4924   21103178.0334
 -13973403.704 4 -10888362.733 4  21498770.732    21498769.230
   9800451.74244   7636713.13944  22040276.8404   22040278.1034
 -13046429.28344 -10166039.86044  21978607.9624   21978609.3174
   7983490.50144   6220896.31744  22838899.3944   22838900.6024
  -8749321.03044  -6817647.34044  23391851.5904   23391852.3844
  -7380615.893 4  -5751126.659 4  20526727.966    20526727.109
 -12510630.44744  -9748538.28144  20756792.8014   20756792.0554
 94  4  6  0  9 30.0000000  0  8G 9G12G 7G24G 2G 5G13G 4
 -11416710.09744  -8896135.14844  21097781.3094   21097781.0734
 -14036044.818 4 -10937173.973 4  21486850.472    21486848.980
   9869504.71244   7690520.62944  22053416.9134   22053418.0064
 -13133356.31544 -10233775.17644  21962066.2954   21962067.8054
   8050492.74744   6273105.79244  22851649.4954   22851650.6864
  -8830273.05144  -6880726.81344  23376446.9934   23376448.4844
  -7363405.662 4  -5737716.089 4  20530002.949    20530002.049
 -12545284.13944  -9775541.14244  20750198.3024   20750197.5464
 94  4  6  0 10  0.0000000  0  8G 9G12G 7G24G 2G 5G13G 4
 -11444536.60644  -8917818.13444  21092486.1044   21092485.8974
 -14098326.480 4 -10985705.120 4  21474998.635    21474997.219
   9938641.95444   7744393.78544  22066573.3344   22066574.6714
 -13219938.73644 -10301241.96944  21945590.3144   21945591.6474
   8117736.04244   6325503.10544  22864445.1304   22864446.5824
  -8911220.02544  -6943802.35144  23361043.2254   23361044.9554
  -7345759.270 4  -5723965.651 4  20533360.959    20533360.032
 -12579374.00444  -9802104.66344  20743711.1634   20743710.3814
 94  4  6  0 10 30.0000000  0  8G 9G12G 7G24G 2G 5G13G 4
 -11471834.58244  -8939089.28044  21087291.5494   21087291.4954
 -14160252.965 4 -11033959.508 4  21463214.380    21463213.004
  10007845.32044   7798318.46944  22079742.4684   22079743.4474
 -13306195.47844 -10368454.98144  21929175.9724   21929176.9354
   8185201.89944   6378073.85244  22877283.5244   22877284.8684
  -8992172.89044  -7006882.47644  23345638.2794   23345639.3464
  -7327685.362 4  -5709882.086 4  20536800.313    20536799.390
 -12612915.23544  -9828240.67344  20737328.5564   20737327.9314
 94  4  6  0 11  0.0000000  0  8G 9G12G 7G24G 2G 5G13G 4
 -11498590.27344  -8959937.86544  21082200.2644   21082199.8754
 -14221815.426 4 -11081930.243 4  21451499.385    21451498.023
  10077117.42044   7852296.70544  22092924.7604   22092925.9064
 -13392117.35444 -10435407.06044  21912825.4264   21912826.7394
   8252878.52044   6430808.81444  22890162.0144   22890163.7574
  -9073123.15544  -7069960.55944  23330233.7504   23330235.1764
  -7309179.805 4  -5695462.170 4  20540321.830    20540320.894
 -12645907.53544  -9853948.94044  20731050.4514   20731049.7014
 94  4  6  0 11 30.0000000  0  8G 9G12G 7G24G 2G 5G13G 4
 -11525064.67744  -8980567.26844  21077162.2994   21077161.8484
 -14283284.538 4 -11129828.238 4  21439802.208    21439800.802
  10146175.05444   7906107.84044  22106066.0604   22106066.6224
 -13477980.70544 -10502313.53444  21896486.2304   21896487.3424
   8320489.72744   6483492.81444  22903028.2574   22903029.6464
  -9154340.31644  -7133246.63144  23314778.9934   23314779.7504
  -7290517.474 4  -5680920.093 4  20543873.177    20543872.226
 -12678615.54044  -9879435.68244  20724826.2714   20724825.3794
 94  4  6  0 12  0.0000000  0  8G 9G12G 7G24G 2G 5G13G 4
 -11551166.22344  -9000906.13344  21072195.2714   21072195.0194
 -14344577.510 4 -11177588.982 4  21428138.571    21428137.106
  10215088.30244   7959806.45444  22119179.6674   22119180.3264
 -13563715.74744 -10569120.02944  21880171.6084   21880173.0644
   8388123.68444   6536194.53744  22915898.6734   22915900.1774
  -9235746.91844  -7196680.29244  23299288.0134   23299289.6514
  -7271620.223 4  -5666194.959 4  20547469.236    20547468.248
 -12710960.76444  -9904639.73844  20718670.9584   20718670.4174
 94  4  6  0 12 30.0000000  0  8G 9G12G 7G24G 2G 5G13G 4
 -11576090.34444  -9020327.52444  21067452.3724   21067452.3174
 -14404887.720 4 -11224583.940 4  21416661.888    21416660.440
  10284667.69144   8014024.14744  22132420.1604   22132420.6964
 -13648525.15544 -10635205.25844  21864032.8084   21864034.1374
   8456602.48644   6589554.58744  22928929.9464   22928930.4714
  -9316523.65944  -7259623.18844  23283916.8914   23283917.3374
  -7251685.895 4  -5650661.713 4  20551262.557    20551261.588
 -12742142.25444  -9928936.98344  20712737.3224   20712736.7784
 94  4  6  0 13  0.0000000  0  8G 9G12G 7G24G 2G 5G13G 4
 -11600354.33944  -9039234.52944  21062834.8894   21062834.7214
 -14464723.340 4 -11271209.085 4  21405275.481    21405274.096
  10354418.20044   8068375.16944  22145693.0924   22145692.9084
 -13732916.58044 -10700964.77844  21847973.3704   21847974.8624
   8525434.71144   6643190.03044  22942028.3144   22942029.6574
  -9397186.22944  -7322477.10844  23268567.3434   23268567.2584
  -7231227.227 4  -5634719.889 4  20555155.701    20555154.723
 -12772651.54244  -9952710.43744  20706931.6724   20706930.8794
 94  4  6  0 13 30.0000000  0  8G 9G12G 7G24G 2G 5G13G 4
 -11624066.22344  -9057711.31944  21058322.7454   21058322.5614
 -14524183.149 4 -11317541.392 4  21393960.639    21393959.235
  10424241.53244   8122782.94044  22158980.0974   22158980.3494
 -13816982.22244 -10766470.45644  21831975.9814   21831978.0354
   8594522.23944   6697024.40544  22955175.3634   22955176.4964
  -9477840.10044  -7385324.24844  23253219.2484   23253220.0824
  -7210347.211 4  -5618449.741 4  20559129.028    20559128.088
 -12802599.50644  -9976046.49944  20701232.7534   20701231.7354
 94  4  6  0 14  0.0000000  0  8G 9G12G 7G24G 2G 5G13G 4
 -11647258.88144  -9075783.52144  21053909.2294   21053908.9444
 -14583284.031 4 -11363594.013 4  21382714.070    21382712.669
  10494144.20644   8177252.52944  22172282.0234   22172282.0484
 -13900733.57444 -10831731.23344  21816038.6154   21816040.3294
   8663839.18944   6751037.53844  22968365.7684   22968366.6994
  -9558507.14844  -7448181.66544  23237868.8254   23237869.0964
  -7189067.375 4  -5601868.046 4  20563178.457    20563177.517
 -12831999.29844  -9998955.41744  20695638.0934   20695637.1334
 94  4  6  0 14 30.0000000  0  8G 9G12G24G 7G 2G 5G13G 4
 -11669935.54644  -9093453.64444  21049594.1724   21049593.8614
 -14642010.835 4 -11409355.145 4  21371538.689    21371537.294
 -13984149.08544 -10896730.30844  21800165.3564   21800166.4444
  10564161.28744   8231811.26444  22185605.7104   22185606.5064
   8733393.72944   6805235.83344  22981601.3284   22981602.5834
  -9639178.12244  -7511042.13044  23222517.5844   23222517.3334
  -7167377.094 4  -5584966.523 4  20567305.961    20567305.096
 -12860831.58844 -10021422.12444  20690151.4344   20690150.8354
 94  4  6  0 15  0.0000000  0  8G 9G12G24G 7G 2G 5G13G 4
 -11692062.39844  -9110695.34244  21045383.6374   21045383.2784
 -14700329.056 4 -11454797.900 4  21360441.137    21360439.700
 -14067181.82344 -10961431.11044  21784365.0414   21784366.5894
  10634314.19344   8286475.83344  22198955.3834   22198956.0614
   8803197.95244   6859628.67544  22994884.6654   22994885.9974
  -9719830.66244  -7573888.22544  23207169.8954   23207170.4514
  -7145246.343 4  -5567721.777 4  20571517.313    20571516.399
 -12889075.14044 -10043430.07544  20684776.8624   20684776.2404
 94  4  6  0 15 30.0000000  0  8G 9G12G24G 7G 2G 5G13G 4
 -11713712.73744  -9127565.73244  21041263.6284   21041263.4164
 -14758316.517 4 -11499982.920 4  21349406.500    21349405.037
 -14149897.17144 -11025884.60044  21768625.0024   21768626.4534
  10704506.96544   8341171.48144  22212312.6634   22212313.7484
   8873155.09444   6914140.66644  23008197.4264   23008198.5794
  -9800543.63944  -7636781.40444  23191810.4164   23191810.4414
  -7122757.340 4  -5550197.874 4  20575796.834    20575795.906
 -12916832.05944 -10065058.83644  20679494.8814   20679494.1144
 94  4  6  0 16  0.0000000  0  8G 9G12G24G 7G 2G 5G13G 4
 -11734866.29144  -9144049.01544  21037238.1644   21037238.1584
 -14815953.041 4 -11544894.482 4  21338438.642    21338437.134
 -14232294.14344 -11090090.01244  21752945.4184   21752946.3844
  10774739.28244   8395897.94644  22225677.7044   22225678.4454
   8943291.34044   6968792.18944  23021543.8124   23021545.0544
  -9881287.21244  -7699698.42844  23176445.2364   23176445.3684
  -7099894.727 4  -5532382.849 4  20580147.438    20580146.526
 -12944082.17944 -10086292.68644  20674309.4324   20674308.8254
 94  4  6  0 16 30.0000000  0  8G 9G12G24G 7G 2G 5G13G 4
 -11755391.24644  -9160042.47844  21033332.3244   21033332.0974
 -14873115.328 4 -11589436.507 4  21327560.998    21327559.526
 -14314256.01244 -11153956.37544  21737348.4234   21737349.0404
  10845101.86344   8450725.89844  22239067.3914   22239068.3934
   9013743.33744   7023689.82144  23034950.2974   23034952.1544
  -9961929.17044  -7762536.27444  23161099.6254   23161100.2534
  -7076539.453 4  -5514183.931 4  20584591.765    20584590.908
 -12970719.46144 -10107048.99644  20669240.5264   20669239.7244
 94  4  6  0 17  0.0000000  0  8G 9G12G24G 7G 2G 5G13G 4
 -11775335.37644  -9175583.35244  21029537.0624   21029536.9994
 -14929848.978 4 -11633644.530 4  21316764.920    21316763.488
 -14395818.42644 -11217511.47444  21721827.3414   21721828.7334
  10915531.22144   8505605.90644  22252469.6674   22252470.6284
   9084472.10944   7078803.08844  23048409.4414   23048411.0794
 -10042508.25844  -7825325.12944  23145766.2224   23145766.5914
  -7052741.638 4  -5495640.174 4  20589120.337    20589119.440
 -12996800.29344 -10127371.70744  20664277.5514   20664276.4734
 94  4  6  0 17 30.0000000  0  8G 9G12G24G 7G 2G 5G13G 4
 -11794722.97144  -9190690.56144  21025847.6854   21025847.5574
 -14986167.209 4 -11677528.847 4  21306047.876    21306046.407
 -14477002.88444 -11280772.06344  21706378.1534   21706379.4304
  10986026.15144   8560537.00444  22265884.2584   22265884.9684
   9155477.04244   7134131.53144  23061921.5254   23061923.2174
 -10123031.82744  -7888070.73244  23130442.9674   23130443.4424
  -7028519.098 4  -5476765.465 4  20593729.727    20593728.782
 -13022318.90344 -10147256.32344  20659421.4944   20659420.7084
 94  4  6  0 18  0.0000000  0  8G 9G12G24G 7G 2G 5G13G 4
 -11813584.64444  -9205387.96544  21022258.4464   21022258.1664
 -15042089.850 4 -11721104.909 4  21295406.140    21295404.708
 -14557840.26444 -11343762.20344  21690995.4574   21690996.0174
  11056582.72044   8615516.13844  22279310.7644   22279310.9394
   9226744.08044   7189664.21344  23075483.3024   23075484.7874
 -10203515.48544  -7950785.21044  23115127.5964   23115127.8284
  -7003896.186 4  -5457578.779 4  20598415.292    20598414.316
 -13047282.94744 -10166708.80844  20654670.8794   20654670.0244
 94  4  6  0 18 30.0000000  0  8G 9G12G24G 7G 2G 5G13G 4
 -11831908.17044  -9219666.03044  21018771.4614   21018771.0964
 -15097599.240 4 -11764358.961 4  21284843.059    21284841.647
 -14638299.55044 -11406457.70944  21675684.5024   21675685.4144
  11127240.91944   8670574.46544  22292756.6804   22292756.7734
   9298273.10244   7245401.03944  23089095.0024   23089096.0524
 -10283954.04244  -8013464.60044  23099820.7104   23099822.2614
  -6978859.724 4  -5438069.844 4  20603179.539    20603178.629
 -13071663.45044 -10185706.58744  20650031.4064   20650030.6464
 94  4  6  0 19  0.0000000  0  8G12G 9G24G 7G 2G 5G13G 4
 -15152775.703 4 -11807353.589 4  21274343.313    21274341.882
 -11849778.83244  -9233591.21744  21015370.9434   21015370.5674
 -14718461.27344 -11468921.36144  21660430.3844   21660430.8564
  11197926.04244   8725653.76244  22306207.6584   22306207.6114
   9369957.98644   7301259.32444  23102736.2764   23102737.4634
 -10364446.64744  -8076186.03444  23084503.5094   23084503.2784
  -6953494.525 4  -5418304.753 4  20608006.341    20608005.488
 -13095530.66844 -10204304.40444  20645489.5124   20645488.7374
 94  4  6  0 19 30.0000000  0  8G12G 9G24G 7G 2G 5G13G 4
 -15207578.592 4 -11850057.118 4  21263914.677    21263913.215
 -11867144.13044  -9247122.61644  21012066.3324   21012066.3294
 -14798299.95944 -11531133.29544  21645237.5794   21645238.3774
  11268662.36344   8780772.96244  22319668.2624   22319668.7814
   9441825.86544   7357260.21044  23116412.0924   23116413.9714
 -10444959.03044  -8138922.92644  23069182.3154   23069182.6814
  -6927764.466 4  -5398255.356 4  20612902.626    20612901.751
 -13118840.24844 -10222467.70144  20641053.8994   20641053.1164
 94  4  6  0 20  0.0000000  0  8G12G 9G24G 7G 2G 5G13G 4
 -15261977.325 4 -11892445.721 4  21253562.901    21253561.479
 -11883957.44144  -9260223.89444  21008867.0274   21008866.8154
 -14877786.82644 -11593071.08544  21630111.5684   21630112.4854
  11339456.37144   8835937.11044  22333139.8124   22333140.2524
   9513897.30244   7413419.70744  23130126.5314   23130128.6834
 -10525470.69544  -8201659.24244  23053861.3774   23053861.9424
  -6901643.588 4  -5377901.423 4  20617873.246    20617872.349
 -13141571.85544 -10240180.62644  20636728.1744   20636727.4964
 94  4  6  0 20 30.0000000  0  8G12G 9G24G 7G 2G 5G13G 4
 -15315948.772 4 -11934501.375 4  21243292.430    21243291.051
 -11900187.81344  -9272870.93344  21005778.3484   21005778.1274
 -14956888.07344 -11654708.38944  21615059.0174   21615059.7604
  11410302.97344   8891142.24644  22346621.5194   22346622.1624
   9586188.57044   7469750.49344  23143883.3004   23143885.4564
 -10605968.90144  -8264385.07544  23038542.9774   23038543.4164
  -6875113.213 4  -5357228.404 4  20622921.864    20622920.915
 -13163703.63744 -10257426.15744  20632516.6124   20632515.9194
 94  4  6  0 21  0.0000000  0  8G12G 9G24G 7G 2G 5G13G 4
 -15369480.977 4 -11976214.762 4  21233105.524    21233104.184
 -11915808.70744  -9285043.05544  21002805.9934   21002805.5844
 -15035586.36044 -11716031.70444  21600083.2474   21600084.1524
  11481195.12944   8946382.86844  22360112.0064   22360112.2594
   9658719.92444   7526268.36144  23157685.9234   23157687.8394
 -10686440.15244  -8327089.90544  23023229.8504   23023229.6494
  -6848165.841 4  -5336230.451 4  20628049.743    20628048.856
 -13185245.04244 -10274211.65044  20628417.4334   20628416.7564
 94  4  6  0 21 30.0000000  0  8G12G 9G24G 7G 2G 5G13G 4
 -15422545.231 4 -12017563.514 4  21223007.724    21223006.382
 -11930792.78744  -9296718.95544  20999954.6584   20999954.3094
 -15113856.44844 -11777021.35444  21585189.0394   21585190.1584
  11552168.62744   9001686.86544  22373617.8844   22373617.7974
   9731541.07444   7583012.05344  23171543.3724   23171545.1734
 -10766841.73444  -8389740.45844  23007929.9454   23007930.8904
  -6820777.477 4  -5314888.867 4  20633261.547    20633260.677
 -13206170.43544 -10290517.13544  20624435.4844   20624434.6474
 94  4  6  0 22  0.0000000  0  8G12G 9G24G 7G 2G 5G13G 4
 -15475140.283 4 -12058546.657 4  21212999.246    21212997.923
 -11945149.31344  -9307905.85444  20997222.6184   20997222.3074
 -15191691.84144 -11837672.27544  21570377.4964   21570377.9264
  11623236.84444   9057064.69144  22387141.7734   22387141.8324
   9804654.26444   7639983.30744  23185456.3104   23185457.5564
 -10847167.02144  -8452331.54644  22992644.2244   22992645.6204
  -6792951.286 4  -5293206.118 4  20638556.745    20638555.811
 -13226481.70544 -10306344.08344  20620570.3724   20620569.4064
 94  4  6  0 22 30.0000000  0  8G12G 9G24G 7G 2G 5G13G 4
 -15527292.913 4 -12099185.056 4  21203074.908    21203073.636
 -11958915.21044  -9318632.52244  20994602.9014   20994602.5644
 -15269116.92644 -11898003.46644  21555644.0524   21555644.4654
  11694392.03944   9112510.28044  22400682.1424   22400682.1304
   9878028.31344   7697157.82944  23199418.7304   23199421.0384
 -10927434.09744  -8514877.27744  22977369.7874   22977370.9644
  -6764718.529 4  -5271206.565 4  20643929.291    20643928.315
 -13246210.49044 -10321717.14744  20616816.1034   20616815.1114
 94  4  6  0 23  0.0000000  0  8G12G 9G24G 7G 2G 5G13G 4
 -15579007.177 4 -12139481.873 4  21193234.016    21193232.770
 -11972097.09744  -9328904.12144  20992094.3904   20992094.3114
 -15346145.69544 -11958025.84444  21540986.0294   21540986.3814
  11765647.82044   9168034.25544  22414241.5944   22414241.2314
   9951661.67844   7754534.41444  23213430.6054   23213432.9494
 -11007640.52844  -8577375.75444  22962107.0064   22962107.4784
  -6736087.792 4  -5248896.895 4  20649377.508    20649376.563
 -13265358.22244 -10336637.44144  20613172.4304   20613171.5644
 94  4  6  0 23 30.0000000  0  8G12G 9G24G 7G 5G 2G13G 4
 -15630290.820 4 -12179443.140 4  21183475.042    21183473.758
 -11984721.85644  -9338741.59444  20989692.1644   20989691.8204
 -15422796.87344 -12017753.99144  21526399.8234   21526400.7384
  11836995.72344   9223630.01444  22427818.2324   22427818.5774
 -11087796.96244  -8639835.26944  22946853.4154   22946854.6564
  10025540.30644   7812102.07744  23227489.2814   23227490.8684
  -6707071.323 4  -5226286.656 4  20654899.149    20654898.215
 -13283918.03044 -10351099.61544  20609640.4484   20609639.6704
 94  4  6  0 24  0.0000000  0  8G12G 9G24G 7G 5G 2G13G 4
 -15681144.763 4 -12219069.574 4  21173797.800    21173796.530
 -11996788.29844  -9348144.01644  20987395.9054   20987395.6124
 -15499062.56744 -12077181.77344  21511886.8584   21511887.4334
  11908425.34744   9279289.44644  22441410.9654   22441411.8704
 -11167918.74044  -8702267.78444  22931606.7204   22931608.1124
  10099639.86844   7869841.92644  23241590.1334   23241592.6334
  -6677674.602 4  -5203380.115 4  20660493.133    20660492.191
 -13301895.89544 -10365108.32744  20606219.3324   20606218.6484
 94  4  6  0 24 30.0000000  0  8G12G24G 7G 5G 2G13G 4G 9
 -15731568.618 4 -12258360.875 4  21164202.444    21164201.185
 -15574944.03344 -12136310.15244  21497447.1254   21497448.0564
  11979923.03644   9335001.91544  22455016.5844   22455017.6114
 -11248011.89444  -8764677.98844  22916365.4194   22916366.3624
  10173962.59844   7927755.65844  23255733.3974   23255735.6354
  -6647901.860 4  -5180180.570 4  20666158.740    20666157.741
 -13319295.92444 -10378666.77744  20602908.2614   20602907.3294
 -12008296.07944  -9357111.11444  20985206.1514   20985206.0694
 94  4  6  0 25  0.0000000  0  8G12G24G 7G 5G 2G13G 4G 9
 -15781541.213 4 -12297300.544 4  21154692.999    21154691.694
 -15650421.41144 -12195123.66144  21483084.1904   21483084.8134
  12051484.10144   9390763.77544  22468634.1034   22468635.1624
 -11328067.01944  -8827058.56144  22901131.5104   22901132.2144
  10248536.44444   7985865.07744  23269924.7524   23269925.7934
  -6617736.081 4  -5156674.760 4  20671899.104    20671898.059
 -13336102.59444 -10391762.86944  20599710.0374   20599709.3024
 -12019226.21444  -9365628.09744  20983126.0954   20983125.8404
 94  4  6  0 25 30.0000000  0  8G12G24G 7G 5G 2G13G 4G 9
 -15831042.921 4 -12335873.287 4  21145273.143    21145271.811
 -15725471.87544 -12253604.51244  21468802.4984   21468803.3844
  12123107.10844   9446573.88944  22482263.5884   22482264.3634
 -11408063.00644  -8889393.06044  22885908.5414   22885909.3404
  10323377.71644   8044182.89044  23284166.6624   23284167.6574
  -6587162.492 4  -5132851.180 4  20677717.038    20677716.021
 -13352308.08744 -10404390.51344  20596626.0644   20596625.6224
 -12029560.02544  -9373680.41544  20981159.4634   20981159.2714
 94  4  6  0 26  0.0000000  0  8G12G24G 7G 5G 2G13G 4G 9
 -15880078.768 4 -12374083.024 4  21135941.865    21135940.638
 -15800095.79744 -12311752.99444  21454601.9124   21454602.5094
  12194782.07944   9502424.50944  22495902.9234   22495903.5394
 -11488003.25044  -8951684.11944  22870696.5334   22870696.9994
  10398483.35144   8102706.69744  23298458.5724   23298460.3614
  -6556190.404 4  -5108717.080 4  20683610.810    20683609.839
 -13367929.43444 -10416562.97944  20593653.4254   20593652.7614
 -12039297.01044  -9381267.67644  20979306.4264   20979306.1074
 94  4  6  0 26 30.0000000  0  8G12G24G 7G 5G 2G13G 4G 9
 -15928645.842 4 -12411927.481 4  21126699.853    21126698.642
 -15874301.54044 -12369575.61744  21440480.8084   21440481.7494
  12266502.97244   9558310.91144  22509551.0774   22509551.8134
 -11567883.51944  -9013928.44644  22855495.9344   22855495.7864
  10473862.38144   8161443.54544  23312802.5424   23312804.5304
  -6524821.520 4  -5084273.789 4  20689580.141    20689579.157
 -13382967.81844 -10428281.18944  20590791.8574   20590791.0064
 -12048443.17144  -9388394.54844  20977566.0764   20977565.8584
 94  4  6  0 27  0.0000000  0  8G12G24G 7G 5G 2G13G 4G 9
 -15976751.577 4 -12449412.453 4  21117545.628    21117544.407
 -15948092.34744 -12427074.91144  21426438.6834   21426439.2944
  12338275.22844   9614237.31744  22523208.9844   22523209.3954
 -11647708.07444  -9076129.35644  22840305.8914   22840305.9024
  10549501.76344   8220383.23444  23327196.3314   23327197.2574
  -6493067.754 4  -5059530.591 4  20695622.652    20695621.650
 -13397426.18044 -10439547.43144  20588040.6004   20588039.7134
 -12057011.74344  -9395071.35544  20975935.5524   20975935.4434
 94  4  6  0 27 30.0000000  0  8G12G24G 7G 5G 2G13G 4G 9
 -16024408.310 4 -12486547.553 4  21108476.818    21108475.639
 -16021476.17744 -12484257.08244  21412474.1814   21412474.9104
  12410104.56744   9670208.22344  22536877.6374   22536877.8894
 -11727475.46344  -9138285.71744  22825126.7344   22825127.2234
  10625374.14844   8279504.52744  23341634.7424   23341637.5114
  -6460945.820 4  -5034500.510 4  20701735.261    20701734.258
 -13411310.42644 -10450366.30944  20585398.4144   20585397.7704
 -12065023.52444  -9401314.29844  20974410.9694   20974410.5444
 94  4  6  0 28  0.0000000  0  8G12G24G 7G 5G 2G13G 4G 9
 -16071584.924 4 -12523308.535 4  21099499.354    21099498.212
 -16094420.29244 -12541096.61444  21398593.4884   21398594.0024
  12482032.01744   9726255.57644  22550564.6574   22550565.2594
 -11807154.66144  -9200373.35444  22809964.1724   22809964.1994
  10701506.28844   8338828.20744  23356122.1124   23356124.0114
  -6428429.155 4  -5009162.844 4  20707922.952    20707921.962
 -13424587.76944 -10460712.27544  20582871.8224   20582870.9024
 -12072455.33044  -9407105.31344  20972996.6414   20972996.2544
 94  4  6  0 28 30.0000000  0  8G12G24G 7G 5G 2G13G 4G 9
 -16118306.231 4 -12559714.732 4  21090608.618    21090607.376
 -16166947.52244 -12597611.29844  21384792.0124   21384792.3434
  12554032.58144   9782359.89644  22564266.0034   22564266.1074
 -11886767.16844  -9262409.03144  22794814.3064   22794815.1304
  10777864.25244   8398327.84044  23370652.3084   23370653.8284
  -6395547.115 4  -4983540.470 4  20714180.171    20714179.208
 -13437285.71244 -10470606.75744  20580455.4014   20580454.5274
 -12079330.26144  -9412462.39744  20971688.3754   20971688.2884
 94  4  6  0 29  0.0000000  0  8G12G24G 7G 5G 2G13G 4G 9
 -16164621.154 4 -12595804.266 4  21081795.130    21081793.945
 -16239090.73744 -12653826.75344  21371063.4904   21371064.0864
  12626067.29344   9838490.82744  22577973.7384   22577974.1134
 -11966356.57544  -9324426.70244  22779668.9024   22779668.4834
  10854390.83744   8457958.85244  23385214.9344   23385216.3864
  -6362352.995 4  -4957674.916 4  20720496.830    20720495.822
 -13449453.15344 -10480087.86544  20578140.0084   20578139.2774
 -12085694.98444  -9417421.91644  20970477.2904   20970477.2324
 94  4  6  0 29 30.0000000  0  8G12G24G 7G 5G 2G13G 4G 9
 -16210488.653 4 -12631545.160 4  21073066.825    21073065.664
 -16310818.18444 -12709718.22544  21357413.9864   21357414.7534
  12698158.93444   9894666.12544  22591692.1744   22591692.8274
 -12045892.55544  -9386402.75444  22764533.7234   22764533.5874
  10931126.54644   8517752.85044  23399817.3674   23399818.6014
  -6328810.260 4  -4931537.716 4  20726879.834    20726878.773
 -13461060.77144 -10489132.74144  20575931.1284   20575930.3194
 -12091501.03944  -9421946.11044  20969372.3184   20969372.1094
 94  4  6  0 30  0.0000000  0  8G12G24G 7G 5G 2G13G 4G 9
 -16255901.681 4 -12666931.919 4  21064425.007    21064423.807
 -16382137.49444 -12765291.68044  21343842.5474   21343843.2664
  12770302.78044   9950882.09344  22605420.7084   22605422.1824
 -12125390.22944  -9448348.94944  22749405.5894   22749406.2764
  11008085.22044   8577720.55644  23414461.9874   23414464.0354
  -6294916.240 4  -4905126.787 4  20733329.614    20733328.610
 -13472107.75944 -10497740.76544  20573828.9404   20573827.9454
 -12096734.33544  -9426024.00044  20968376.2854   20968375.8504
 94  4  6  0 30 30.0000000  0  8G12G24G 7G 5G 2G13G 4G 9
 -16300846.044 4 -12701953.483 4  21055872.367    21055871.154
 -16453038.27444 -12820539.01144  21330350.6744   21330351.3204
  12842502.98044  10007141.98644  22619159.8214   22619160.1884
 -12204841.61644  -9510259.07744  22734286.4664   22734286.9694
  11085276.59044   8637869.60444  23429151.1174   23429152.6524
  -6260661.269 4  -4878434.597 4  20739848.098    20739847.115
 -13482577.65644 -10505899.10644  20571836.5184   20571835.7384
 -12101380.96344  -9429644.74444  20967492.1134   20967491.7334
 94  4  6  0 31  0.0000000  0  8G12G24G 7G 5G 2G13G 4G 9
 -16345309.584 4 -12736600.383 4  21047411.221    21047410.017
 -16523517.53244 -12875457.88144  21316938.9424   21316939.7204
  12914762.54544  10063448.13744  22632910.5434   22632911.2524
 -12284236.78444  -9572125.41144  22719178.2024   22719178.5144
  11162724.28544   8698218.38544  23443888.8444   23443891.2334
  -6226037.710 4  -4851455.197 4  20746436.764    20746435.792
 -13492445.50744 -10513588.32244  20569958.6624   20569957.9694
 -12105436.18644  -9432804.65544  20966720.4264   20966720.2034
 94  4  6  0 31 30.0000000  0  8G12G24G 7G 5G 2G13G 4G 9
 -16389300.140 4 -12770878.724 4  21039040.078    21039038.910
 -16593596.95744 -12930065.18544  21303603.2514   21303603.8774
  12987063.52144  10119786.54844  22646669.2044   22646669.8324
 -12363589.10044  -9633958.34544  22704078.1404   22704079.0744
  11240424.21944   8758763.70644  23458674.9534   23458677.0894
  -6191057.528 4  -4824197.908 4  20753093.233    20753092.317
 -13501709.00544 -10520806.61644  20568195.8754   20568194.9664
 -12108905.25244  -9435507.82144  20966060.3004   20966059.9854
 94  4  6  0 32  0.0000000  0  8G12G24G 7G 5G 2G13G 4G 9
 -16432813.759 4 -12804785.426 4  21030759.648    21030758.528
 -16663257.05544 -12984345.74244  21290347.2854   21290347.6794
  13059409.92144  10176160.35144  22660436.1754   22660436.3654
 -12442891.70844  -9695752.55644  22688987.2084   22688987.3714
  11318371.95344   8819502.14644  23473508.2784   23473510.0144
  -6155721.286 4  -4796663.168 4  20759817.515    20759816.599
 -13510362.30844 -10527549.43344  20566549.2024   20566548.2854
 -12111800.03844  -9437763.49844  20965509.6334   20965509.3514
 94  4  6  0 32 30.0000000  0  8G12G24G 7G 5G 2G13G 4G 9
 -16475836.300 4 -12838309.468 4  21022572.724    21022571.591
 -16732467.91944 -13038276.24544  21277176.8504   21277177.3244
  13131814.80644  10232579.74044  22674214.2304   22674214.6354
 -12522117.52044  -9757486.92744  22673910.9714   22673911.7314
  11396579.85244   8880443.29244  23488390.4624   23488392.4194
  -6120019.455 4  -4768843.556 4  20766611.358    20766610.389
 -13518396.82744 -10533810.08044  20565020.3714   20565019.2684
 -12114114.29044  -9439566.81244  20965069.4034   20965069.0364
 94  4  6  0 33  0.0000000  0  8G12G24G 7G 5G 2G13G 4G 9
 -16518371.131 4 -12871453.477 4  21014478.630    21014477.445
 -16801223.13244 -13091851.70544  21264092.9744   21264093.7494
  13204283.79444  10289049.05944  22688004.8364   22688005.6934
 -12601273.81144  -9819167.11844  22658847.9854   22658847.4314
  11475035.96944   8941577.86844  23503320.0264   23503320.3444
  -6083959.733 4  -4740745.065 4  20773473.295    20773472.339
 -13525829.85944 -10539602.03744  20563605.7524   20563604.9204
 -12115845.32444  -9440915.66844  20964739.8044   20964739.4924
 94  4  6  0 33 30.0000000  0  8G12G24G 7G 5G 2G13G 4G 9
 -16560421.684 4 -12904220.126 4  21006476.684    21006475.488
 -16869518.85144 -13145069.11144  21251096.7334   21251097.3354
  13276814.83444  10345566.74744  22701806.9954   22701807.3164
 -12680365.35044  -9880796.85444  22643797.2344   22643796.9484
  11553713.40744   9002884.84544  23518292.1504   23518292.7574
  -6047549.829 4  -4712373.706 4  20780401.858    20780400.901
 -13532695.18044 -10544951.62144  20562299.1894   20562298.3534
 -12117003.50544  -9441818.14644  20964519.3284   20964519.3684
 94  4  6  0 34  0.0000000  0  8G12G24G 7G 5G 2G13G 4G 9
 -16601957.823 4 -12936585.933 4  20998572.567    20998571.400
 -16937319.69344 -13197900.90544  21238194.6054   21238195.1544
  13349418.21944  10402140.79144  22715622.9104   22715622.2754
 -12759354.65244  -9942346.92544  22628766.0414   22628765.9174
  11632644.33744   9064389.41144  23533312.4604   23533315.0794
  -6010764.045 4  -4683709.457 4  20787401.919    20787401.042
 -13538982.70344 -10549850.97144  20561102.8004   20561101.8334
 -12117570.65944  -9442260.08044  20964411.3954   20964411.5364
 94  4  6  0 34 30.0000000  0  8G12G24G 7G 5G 2G 4G13G 9
 -16643027.364 4 -12968588.155 4  20990757.303    20990756.075
 -17004687.09344 -13250394.94344  21225374.8934   21225375.4964
  13422040.45644  10458729.54244  22729442.6344   22729442.4444
 -12838286.64844 -10003852.34744  22613745.7574   22613745.7934
  11711778.93944   9126052.67444  23548371.0674   23548372.4034
 -13544729.42344 -10554328.92044  20560009.3474   20560008.4954
  -5973654.548 4  -4654792.963 4  20794463.608    20794462.740
 -12117583.47444  -9442270.06444  20964408.9564   20964408.6954
 94  4  6  0 35  0.0000000  0  8G24G 7G 5G 2G 4G12G13G 9
 -17071615.30844 -13302546.75644  21212638.9924   21212639.6334
  13494667.46344  10515321.98644  22743262.9144   22743263.2554
 -12917152.39344 -10065306.14144  22598738.0374   22598738.2874
  11791129.03344   9187883.82644  23563471.0774   23563473.2194
 -13549919.89544 -10558373.43044  20559021.5354   20559020.7294
 -16683617.732 4 -13000216.996 4  20983033.198    20983032.065
  -5936213.115 4  -4625617.818 4  20801588.456    20801587.544
 -12117021.83644  -9441832.41844  20964515.9804   20964515.7174
 94  4  6  0 35 30.0000000  0  8G24G 7G 5G 2G 4G12G13G 9
 -17138078.56044 -13354336.26644  21199991.3994   21199991.8804
  13567324.88944  10571938.16444  22757089.1504   22757089.3864
 -12995908.12444 -10126674.20944  22583751.3254   22583752.1214
  11870753.68544   9249928.91644  23578623.4504   23578625.6324
 -13554493.00244 -10561936.87244  20558151.2664   20558150.4854
 -16723683.984 4 -13031437.438 4  20975408.795    20975407.752
  -5898399.198 4  -4596152.425 4  20808784.169    20808783.312
 -12115856.45644  -9440924.32744  20964737.7514   20964737.4174
 94  4  6  0 36  0.0000000  0  8G24G 7G 5G 2G 4G12G13G 9
 -17204106.88244 -13405786.87444  21187426.6024   21187426.9614
  13639996.20644  10628565.14944  22770918.0974   22770919.0704
 -13074585.72044 -10187981.39444  22568779.5894   22568779.5444
  11950637.88444   9312176.30744  23593824.5694   23593827.9814
 -13558441.29144 -10565013.44644  20557400.0564   20557399.1474
 -16763250.397 4 -13062268.393 4  20967879.611    20967878.443
  -5860241.573 4  -4566419.206 4  20816045.308    20816044.469
 -12114100.33044  -9439555.91044  20965071.9184   20965071.5654
 94  4  6  0 36 30.0000000  0  8G24G 7G 5G 2G 4G12G13G 9
 -17269712.45244 -13456908.06344  21174942.0364   21174942.8474
  13712681.35644  10685202.91144  22784749.3544   22784750.7104
 -13153214.31244 -10249250.39944  22553817.0364   22553817.4244
  12030757.75744   9374607.25944  23609070.0084   23609073.2814
 -13561777.80944 -10567613.31844  20556765.0574   20556764.1004
 -16802331.917 4 -13092721.511 4  20960442.559    20960441.446
  -5821759.270 4  -4536432.989 4  20823368.229    20823367.370
 -12111762.72044  -9437734.39344  20965516.6944   20965516.4134
 94  4  6  0 37  0.0000000  0  8G24G 5G 7G 2G 4G12G13G 9
 -17334880.47744 -13507688.30544  21162540.9384   21162541.6814
 -13231777.52544 -10310468.44844  22538866.5524   22538867.0074
  13785412.46144  10741876.48444  22798589.6304   22798590.6834
  12111130.14644   9437235.10844  23624363.7744   23624371.0894
 -13564503.77744 -10569737.43344  20556246.2284   20556245.3194
 -16840911.153 4 -13122783.243 4  20953101.165    20953100.040
  -5782939.196 4  -4506183.574 4  20830755.445    20830754.570
 -12108827.26344  -9435447.02044  20966075.2684   20966074.9594
 94  4  6  0 37 30.0000000  0  8G24G 7G 5G 2G 4G12G13G 9
 -17399600.57044 -13558119.51244  21150225.3234   21150225.9084
  13858215.65544  10798606.23244  22812443.8404   22812444.6384
 -13310270.88644 -10371632.08544  22523929.5584   22523929.8734
  12191736.96044   9500045.49144  23639703.0164   23639706.3274
 -13566620.69744 -10571386.96444  20555843.4574   20555842.5334
 -16878986.947 4 -13152452.681 4  20945855.611    20945854.443
  -5743784.429 4  -4475673.361 4  20838206.371    20838205.469
 -12105305.57544  -9432702.84344  20966745.3444   20966744.8794
 94  4  6  0 38  0.0000000  0  8G24G 5G 7G 2G 4G12G13G 9
 -17463862.95644 -13608194.06344  21137996.7214   21137997.2074
 -13388695.89744 -10432742.43944  22509005.7474   22509005.5634
  13931085.74944  10855388.12044  22826310.6334   22826310.9724
  12272560.12744   9563024.56844  23655083.7564   23655087.1184
 -13568159.24844 -10572585.82044  20555550.5874   20555549.6704
 -16916569.192 4 -13181737.533 4  20938703.912    20938702.754
  -5704309.420 4  -4444913.608 4  20845718.184    20845717.310
 -12101196.50044  -9429500.96644  20967527.0844   20967526.5394
 94  4  6  0 38 30.0000000  0  8G24G 5G 7G 2G 4G12G13G 9
 -17527664.72444 -13657909.69444  21125855.5634   21125856.1384
 -13467042.33944 -10493791.58344  22494097.0644   22494096.9864
  14004014.65944  10912215.82144  22840188.2834   22840189.3704
  12353602.05544   9626174.04744  23670506.2474   23670509.7244
 -13569142.47044 -10573351.95244  20555363.4604   20555362.6294
 -16953654.572 4 -13210635.219 4  20931646.760    20931645.637
  -5664514.920 4  -4413904.900 4  20853290.807    20853289.917
 -12096517.15244  -9425854.71644  20968417.5944   20968417.1884
 94  4  6  0 39  0.0000000  0  8G24G 5G 7G 2G12G13G 4G 9
 -17590990.18244 -13707254.17044  21113804.8804   21113805.6734
 -13545279.58444 -10554755.63444  22479209.1554   22479208.6644
  14077020.42044  10969103.43244  22854080.9884   22854082.1644
  12434879.72544   9689507.16844  23685973.4804   23685972.7964
 -16990222.811 4 -13239129.938 4  20924687.993    20924686.912
  -5624384.967 4  -4382634.801 4  20860927.270    20860926.390
 -13569548.11644 -10573668.02644  20555286.2264   20555285.4184
 -12091257.36444  -9421756.17644  20969418.7104   20969418.3874
 94  4  6  0 39 30.0000000  0  8G24G 5G 7G 2G 4G12G13G 9
 -17653833.54244 -13756222.98644  21101846.0114   21101846.6094
 -13623404.74544 -10615632.34844  22464342.4084   22464342.4964
  14150087.06444  11026038.47144  22867984.9934   22867985.8694
  12516401.40544   9753030.53744  23701486.3774   23701490.0124
 -13569369.92744 -10573529.16244  20555320.0154   20555319.3224
 -17026272.671 4 -13267220.728 4  20917827.920    20917826.800
  -5583922.519 4  -4351105.615 4  20868626.989    20868626.143
 -12085437.98444  -9417221.59044  20970525.9174   20970525.4914
 94  4  6  0 40  0.0000000  0  8G24G 5G 7G 2G 4G12G13G 9
 -17716528.36944 -13805076.06444  21089915.6124   21089916.5604
 -13701740.09144 -10676672.83444  22449435.6254   22449436.1154
  14222891.44944  11082769.16544  22881839.3164   22881840.1734
  12597862.84544   9816506.88644  23716987.6064   23716991.8424
 -13568931.00544 -10573187.12844  20555403.5314   20555402.7594
 -17062121.027 4 -13295154.496 4  20911006.234    20911005.044
  -5543448.738 4  -4319567.600 4  20876328.981    20876328.062
 -12079368.27044  -9412491.93944  20971680.8254   20971680.5074
 94  4  6  0 40 30.0000000  0  8G24G 5G 7G 2G 4G12G13G 9
 -17779003.71344 -13853758.11544  21078027.1244   21078027.6974
 -13780212.20244 -10737819.90144  22434502.8514   22434503.4204
  14295510.03844  11139355.07044  22895658.2204   22895658.7394
  12679329.40844   9879987.15044  23732489.4254   23732489.0524
 -13568145.72344 -10572575.20244  20555553.0174   20555552.1264
 -17097693.250 4 -13322873.095 4  20904237.054    20904235.828
  -5502893.201 4  -4287965.882 4  20884046.417    20884045.523
 -12072971.93244  -9407507.77344  20972898.1894   20972897.9694
 94  4  6  0 41  0.0000000  0  8G24G 5G 7G 2G 4G12G13G 9
 -17840383.39944 -13901586.40844  21066347.0584   21066347.2634
 -13857948.57844 -10798393.66644  22419710.1124   22419710.5864
  14368801.64844  11196465.39944  22909605.2404   22909604.9944
  12761662.25644   9944142.55744  23748157.0844   23748161.0614
 -13566145.18844 -10571016.32944  20555933.6394   20555932.8384
 -17132122.700 4 -13349701.225 4  20897685.321    20897684.061
  -5461393.613 4  -4255628.540 4  20891943.537    20891942.612
 -12065366.32044  -9401581.32144  20974345.5944   20974345.1734
 94  4  6  0 41 30.0000000  0  8G24G 5G 7G 2G12G13G 4G 9
 -17901194.57844 -13948971.70244  21054774.9964   21054775.3904
 -13935488.44844 -10858814.30144  22404954.6514   22404955.1884
  14442230.65644  11253682.79244  22923578.7194   22923578.4084
  12844319.85544  10008551.04144  23763886.8034   23763886.2244
 -17165940.162 4 -13376052.482 4  20891250.095    20891248.837
  -5419484.681 4  -4222972.226 4  20899918.578    20899917.615
 -13563459.23044 -10568923.35744  20556444.7314   20556444.2274
 -12057077.94944  -9395122.84844  20975922.6514   20975922.3004
 94  4  6  0 42  0.0000000  0  8G24G 5G 7G 2G 4G12G13G 9
 -17961495.70444 -13995959.54944  21043300.0284   21043300.5174
 -14012906.31844 -10919139.87344  22390222.5394   22390222.9184
  14515728.49444  11310953.80644  22937564.9104   22937565.2054
  12927210.54444  10073141.12744  23779660.6254   23779660.8054
 -13560159.06544 -10566351.78444  20557072.8774   20557072.2144
 -17199212.637 4 -13401979.069 4  20884918.546    20884917.302
  -5377237.575 4  -4190052.399 4  20907957.897    20907956.984
 -12048149.82144  -9388165.86444  20977621.6034   20977621.3584
 94  4  6  0 42 30.0000000  0  8G24G 5G 7G 2G 4G12G13G 9
 -18021560.65244 -14042763.36644  21031869.9424   21031870.3814
 -14090479.43044 -10979586.41144  22375460.9034   22375461.4474
  14589000.52244  11368048.89144  22951507.8524   22951508.7114
  13010034.00444  10137678.73744  23795421.7164   23795423.1964
 -13556523.30444 -10563518.70944  20557764.8054   20557763.7444
 -17232220.382 4 -13427699.375 4  20878637.334    20878636.132
  -5334936.803 4  -4157090.755 4  20916007.447    20916006.489
 -12038869.73644  -9380934.62644  20979387.6454   20979387.3504
 94  4  6  0 43  0.0000000  0  8G24G 5G 7G 2G 4G12G13G 9
 -18081266.34044 -14089287.23944  21020508.2574   21020508.6744
 -14168079.40244 -11040053.88344  22360694.1814   22360694.1424
  14662173.26044  11425066.59944  22965432.0694   22965431.4894
  13092923.52744  10202267.94744  23811194.7104   23811190.9994
 -13552419.64844 -10560321.04244  20558545.5724   20558544.6194
 -17264825.518 4 -13453105.962 4  20872432.742    20872431.506
  -5292448.670 4  -4123983.116 4  20924092.660    20924091.705
 -12029122.00544  -9373338.99144  20981242.4174   20981242.1404
 94  4  6  0 43 30.0000000  0  8G24G 5G 7G 2G 4G12G13G 9
 -18140333.06744 -14135313.23344  21009268.2024   21009268.6804
 -14245416.53844 -11100316.54544  22345977.2444   22345977.1254
  14735548.66344  11482242.20344  22979394.7324   22979394.7874
  13176175.35344  10267139.35144  23827037.5654   23827038.3714
 -13547550.63844 -10556526.99444  20559471.9324   20559471.0604
 -17296731.390 4 -13477967.666 4  20866361.270    20866360.017
  -5249480.608 4  -4090501.504 4  20932269.141    20932268.240
 -12018622.65244  -9365157.67744  20983240.3204   20983240.2084
 94  4  6  0 44  0.0000000  0  8G 9G24G 5G 7G 2G 4G12G13
 -12007509.61144  -9356498.16244  20985355.1704   20985354.7984
 -18198900.93044 -14180950.49244  20998123.0454   20998123.3464
 -14322611.08844 -11160468.10344  22331287.5844   22331287.5024
  14808986.31644  11539466.34744  22993369.2454   22993369.7194
  13259665.99344  10332196.96144  23842925.4464   23842918.8274
 -13542065.89444 -10552253.15444  20560515.7644   20560514.9224
 -17328071.891 4 -13502388.818 4  20860397.419    20860396.095
  -5206170.619 4  -4056753.453 4  20940510.759    20940509.851
 94  4  6  0 44 30.0000000  0  8G 9G 5G 7G 2G 4G12G13G24
 -11995816.38344  -9347386.56044  20987580.5024   20987580.3204
 -14399667.51944 -11220512.03844  22316624.2144   22316623.9764
  14882482.02044  11596735.69944  23007355.3784   23007355.2944
  13343418.45844  10397458.52944  23858863.0364   23858870.4984
 -13535977.90744 -10547509.25444  20561674.0974   20561673.4124
 -17358854.541 4 -13526375.284 4  20854539.656    20854538.334
  -5162530.110 4  -4022747.854 4  20948815.230    20948814.383
 -18256994.49744 -14226218.17344  20987068.2774   20987068.6644
 94  4  6  0 45  0.0000000  0  8G 9G 5G 7G 2G 4G12G13G24
 -11983586.77944  -9337856.99944  20989907.6644   20989907.5384
 -14476627.51244 -11280480.82844  22301979.2214   22301979.2114
  14955996.85144  11654019.98644  23021345.0664   23021346.1534
  13427423.62544  10462917.07644  23874848.4764   23874848.9484
 -13529331.97944 -10542330.59344  20562938.8314   20562937.9534
 -17389117.531 4 -13549956.820 4  20848780.774    20848779.555
  -5118601.591 4  -3988517.832 4  20957174.591    20957173.716
 -18314657.40044 -14271150.26844  20976095.3904   20976095.9464
 94  4  6  0 45 30.0000000  0  8G 9G 5G 7G 2G 4G12G13G24
 -11970778.40544  -9327876.44844  20992344.8454   20992344.5094
 -14553465.64344 -11340354.65744  22287357.6434   22287357.6644
  15029544.82544  11711330.06644  23035340.8004   23035340.1894
  13511709.55944  10528594.38644  23890887.2224   23890889.8424
 -13522114.85044 -10536706.84144  20564312.2354   20564311.1564
 -17418839.287 4 -13573116.614 4  20843124.921    20843123.685
  -5074367.348 4  -3954049.581 4  20965592.111    20965591.212
 -18371850.84744 -14315716.55944  20965211.7284   20965212.2604
 94  4  6  0 46  0.0000000  0  8G 9G 5G 7G 2G 4G12G13G24
 -11957373.27244  -9317430.88544  20994895.6174   20994895.4224
 -14630171.55644 -11400125.46044  22272761.1734   22272760.9324
  15103126.44144  11768666.40844  23049342.8104   23049343.1844
  13596289.61944  10594500.88644  23906982.4444   23906978.8024
 -13514314.34744 -10530628.51044  20565796.6154   20565795.5714
 -17448006.277 4 -13595844.123 4  20837574.597    20837573.333
  -5029817.895 4  -3919335.713 4  20974069.624    20974068.649
 -18428551.24144 -14359898.65044  20954421.8794   20954422.5394
 94  4  6  0 46 30.0000000  0  8G13G 9G 5G 7G 2G 4G12G24
  -4985078.653 4  -3884473.959 4  20982583.240    20982582.227
 -11943496.96944  -9306618.17944  20997536.1244   20997536.0894
 -14706883.73944 -11459901.15844  22258163.1334   22258163.0394
  15176623.89044  11825937.12044  23063328.8194   23063329.5274
  13681037.23544  10660537.90344  23923109.5074   23923109.0344
 -13506038.72044 -10524179.95444  20567371.2714   20567370.3804
 -17476739.800 4 -13618233.866 4  20832106.744    20832105.540
 -18484875.16744 -14403787.38744  20943703.8034   20943704.2384
 94  4  6  0 47  0.0000000  0  8G13G 9G 5G 7G 2G 4G12G24
  -4940138.744 4  -3849455.841 4  20991134.991    20991133.975
 -11929117.47244  -9295413.37544  21000272.6134   21000272.4984
 -14783591.41844 -11519673.34744  22243565.9874   22243565.7254
  15250047.96944  11883150.68744  23077301.2174   23077301.6504
  13765932.71444  10726690.05044  23939264.6874   23939268.2124
 -13497273.03344 -10517349.53644  20569039.2534   20569038.4134
 -17505024.969 4 -13640274.245 4  20826724.199    20826723.040
 -18540785.84444 -14447354.11044  20933064.3834   20933064.7004
 94  4  6  0 47 30.0000000  0  8G13G 9G 5G 7G 2G 4G12G24
  -4894871.265 4  -3814182.474 4  20999749.044    20999748.106
 -11914105.36744  -9283715.63044  21003129.4414   21003129.0594
 -14860159.92744 -11579337.09144  22228995.2184   22228995.3444
  15323540.47044  11940417.56244  23091286.6164   23091286.1274
  13851071.03444  10793031.46244  23955466.0954   23955468.1604
 -13487880.84444 -10510030.93144  20570826.6094   20570825.7944
 -17532731.045 4 -13661863.383 4  20821451.900    20821450.744
 -18596139.46144 -14490486.76544  20922530.8784   20922530.9684
 94  4  6  0 48  0.0000000  0  8G13G 9G 5G 7G 2G 4G12G24
  -4849319.127 4  -3778687.291 4  21008417.312    21008416.408
 -11898521.86844  -9271572.64044  21006094.9324   21006094.4114
 -14936627.29044 -11638922.02144  22214444.0274   22214443.9824
  15397072.52244  11997715.25944  23105279.1574   23105279.1324
  13936410.91044  10859530.12444  23971706.2644   23971695.9364
 -13477891.73344 -10502247.19044  20572727.5474   20572726.8944
 -17559897.126 4 -13683031.745 4  20816282.349    20816281.184
 -18650976.55644 -14533216.92844  20912095.5574   20912096.0874
 94  4  6  0 48 30.0000000  0  8G13G 9G 5G 7G 2G12G 4G24
  -4803497.910 4  -3742982.437 4  21017136.800    21017135.918
 -11882380.65244  -9258995.07344  21009166.4154   21009166.1324
 -15013002.32944 -11698435.00844  22199910.3554   22199910.4064
  15470644.73244  12055044.24044  23119279.5424   23119278.8744
  14021932.97344  10926171.01844  23987980.4344   23987978.3574
 -17586534.600 4 -13703788.206 4  20811213.414    20811212.250
 -13467322.88944 -10494011.71044  20574738.6434   20574737.7184
 -18705302.27444 -14575548.61844  20901757.7444   20901758.2674
 94  4  6  0 49  0.0000000  0  8G13G 9G 5G 7G 2G12G 4G24
  -4757415.996 4  -3707074.441 4  21025905.886    21025905.044
 -11865693.99944  -9245992.48944  21012341.8614   21012341.4314
 -15089285.64744 -11757876.52944  22185393.9874   22185394.3854
  15544234.45044  12112386.87344  23133283.0984   23133283.0244
  14107628.75544  10992947.45344  24004287.8254   24004281.3674
 -17612648.048 4 -13724136.336 4  20806244.173    20806242.975
 -13456192.92144 -10485338.99344  20576856.5734   20576855.6714
 -18759123.89144 -14617487.50344  20891516.0104   20891516.2274
 94  4  6  0 49 30.0000000  0  8G13G 9G 5G 7G 2G12G 4G24
  -4711041.509 4  -3670938.467 4  21034730.587    21034729.817
 -11848441.29144  -9232548.82344  21015625.0324   21015624.6104
 -15165432.22744 -11817211.49844  22170903.7064   22170903.6094
  15617876.12144  12169769.99144  23147296.6804   23147297.7924
  14193553.13344  11059901.42044  24020638.5854   24020637.5134
 -17638201.595 4 -13744048.180 4  20801381.527    20801380.253
 -13444471.74344 -10476205.59344  20579087.2034   20579086.1084
 -18812428.71444 -14659023.69444  20881372.3574   20881372.5254
 94  4  6  0 50  0.0000000  0  8G13G 9G 5G 7G 2G12G 4G24
  -4664373.003 4  -3634573.389 4  21043611.329    21043610.498
 -11830608.68944  -9218653.28744  21019018.3784   21019018.2104
 -15241445.29344 -11876442.42944  22156438.5994   22156438.9244
  15691564.61544  12227189.56644  23161319.1544   23161319.1654
  14279728.87344  11127051.12244  24037037.7594   24037040.6434
 -17663190.137 4 -13763519.761 4  20796626.333    20796625.115
 -13432167.97044 -10466618.22344  20581428.2954   20581427.3084
 -18865219.79844 -14700159.57344  20871326.5094   20871327.0764
 94  4  6  0 50 30.0000000  0  7G13G 9G 5G 7G12G 4G24
  -4617411.440 4  -3597979.955 4  21052547.822    21052546.992
 -11812186.03044  -9204297.96544  21022524.0144   21022523.6824
 -15317326.05644 -11935570.26144  22141998.9854   22141999.2224
  15765295.93244  12284642.53444  23175349.5804   23175351.1054
 -17687610.756 4 -13782548.803 4  20791979.246    20791978.039
 -13419288.36844 -10456582.15444  20583879.2884   20583878.2924
 -18917513.21744 -14740907.66444  20861375.3884   20861375.7744
 94  4  6  0 51  0.0000000  0  8G13G 9G 5G 7G20G12G 4G24
  -4570131.273 4  -3561138.258 4  21061544.962    21061544.122
 -11793145.38944  -9189461.09844  21026147.4684   21026147.1184
 -15393043.23144 -11994570.62244  22127590.4484   22127590.7474
  15839096.26944  12342149.27744  23189393.1374   23189392.3854
        -1.16354        -1.12854  25213583.7614   25213586.1504
 -17711433.931 4 -13801112.305 4  20787445.850    20787444.669
 -13405802.17444 -10446073.41744  20586445.7054   20586444.4934
 -18969291.68944 -14781254.49444  20851522.1374   20851522.6084
 94  4  6  0 51 30.0000000  0  8G13G 9G 5G 7G20G12G 4G24
  -4522569.315 4  -3524076.984 4  21070595.685    21070594.898
 -11773508.77744  -9174159.83844  21029884.1484   21029883.7554
 -15468626.72344 -12053466.81944  22113207.5224   22113207.7504
  15912946.97344  12399695.26844  23203446.4084   23203447.1074
    -96163.12844    -74932.55844  25195284.8804   25195278.3254
 -17734692.602 4 -13819235.934 4  20783019.912    20783018.700
 -13391728.47544 -10435106.88644  20589123.7584   20589122.6794
 -19020589.94544 -14821227.13044  20841760.1584   20841760.7564
 94  4  6  0 52  0.0000000  0  8G13G 9G 5G 7G20G12G 4G24
  -4474787.070 4  -3486844.056 4  21079688.297    21079687.568
 -11753327.56244  -9158434.21844  21033724.4064   21033724.1454
 -15544137.30444 -12112306.20144  22098838.2634   22098838.8974
  15986785.10244  12457231.46444  23217497.2014   23217499.9274
   -192434.60444   -149949.14944  25176964.6884   25176966.3794
 -17757444.951 4 -13836965.024 4  20778690.298    20778689.042
 -13377120.54144 -10423724.06344  20591903.5664   20591902.6604
 -19071452.42244 -14860860.19444  20832081.4364   20832081.7604
 94  4  6  0 52 30.0000000  0  8G13G 9G 5G 7G20G12G 4G24
  -4426767.657 4  -3449426.322 4  21088826.074    21088825.310
 -11732597.94344  -9142281.27144  21037668.9314   21037668.7404
 -15619541.09244 -12171062.36744  22084489.2894   22084489.7314
  16060629.71544  12514772.71044  23231549.8034   23231551.9874
   -288795.55844   -225035.59844  25158627.3744   25158631.2204
 -17779670.040 4 -13854283.262 4  20774460.940    20774459.738
 -13361958.55544 -10411909.51244  20594788.9434   20594787.9204
 -19121852.60244 -14900133.02644  20822490.6364   20822490.9024
 94  4  6  0 53  0.0000000  0  8G13G 9G 5G 7G20G12G 4G24
  -4378471.836 4  -3411793.210 4  21098016.462    21098015.651
 -11711280.58544  -9125670.34444  21041725.7514   21041725.5014
 -15694785.88244 -12229694.63644  22070170.7484   22070171.3524
  16134523.63944  12572352.36544  23245611.2284   23245610.0864
   -385203.51944   -300158.55144  25140281.1364   25140278.9304
 -17801324.916 4 -13871157.181 4  20770340.128    20770338.954
 -13346208.74844 -10399636.92144  20597785.8664   20597784.7824
 -19171728.94044 -14938997.66844  20812999.5084   20812999.7764
 94  4  6  0 53 30.0000000  0  8G13G 9G 5G 7G20G12G 4G24
  -4329934.598 4  -3373971.979 4  21107252.809    21107251.955
 -11689419.77644  -9108635.95244  21045885.7094   21045885.4414
 -15769895.19444 -12288221.33844  22055877.9494   22055878.0384
  16208425.02044  12629937.83344  23259674.0544   23259674.9244
   -481689.87744   -375342.74944  25121920.2394   25121919.5714
 -17822440.808 4 -13887611.111 4  20766321.908    20766320.710
 -13329910.22444 -10386936.76344  20600887.2814   20600886.2514
 -19221107.25244 -14977474.23844  20803603.0944   20803603.3354
 94  4  6  0 54  0.0000000  0  8G13G 9G 5G 7G20G12G 4G24
  -4281153.222 4  -3335960.512 4  21116535.562    21116534.729
 -11667019.29444  -9091181.03144  21050148.1294   21050148.1344
 -15844866.18744 -12346640.26144  22041611.6284   22041611.3224
  16282326.48944  12687523.39944  23273736.8024   23273738.0554
   -578248.66444   -450583.27244  25103545.9444   25103543.9464
 -17843011.383 4 -13903640.118 4  20762407.434    20762406.250
 -13313074.99144 -10373818.38644  20604091.0424   20604089.9524
 -19269979.78244 -15015556.69444  20794303.1114   20794303.5224
 94  4  6  0 54 30.0000000  0  8G13G 9G 5G 7G20G12G 4G24
  -4232116.824 4  -3297750.326 4  21125866.874    21125866.037
 -11644069.53744  -9073298.10544  21054515.3684   21054515.1474
 -15919681.41944 -12404937.81144  22027374.8064   22027374.6344
  16356237.51944  12745116.39044  23287801.6984   23287803.5794
   -674865.76644   -525869.27344  25085160.1024   25085162.0184
 -17863022.301 4 -13919233.031 4  20758599.409    20758598.290
 -13295696.19944 -10360276.45544  20607398.0374   20607397.1284
 -19318339.98344 -15053239.93844  20785100.2474   20785100.5504
 94  4  6  0 55  0.0000000  0  8G13G 9G 5G 7G20G12G 4G24
  -4182815.585 4  -3259333.772 4  21135248.581    21135247.762
 -11620555.26344  -9054975.29444  21058989.9354   21058989.8264
 -15994334.13844 -12463108.73144  22013168.8554   22013168.7144
  16430171.31444  12802727.12544  23301870.9224   23301870.2164
   -771528.09844   -601190.48044  25066766.2394   25066769.0564
 -17882459.789 4 -13934379.117 4  20754900.564    20754899.456
 -13277756.10044 -10346297.14444  20610811.9834   20610811.0394
 -19366185.07044 -15090521.79544  20775995.4764   20775995.9664
 94  4  6  0 55 30.0000000  0  8G13G 9G 5G 7G20G12G 4G24
  -4133296.156 4  -3220747.201 4  21144671.830    21144670.961
 -11596518.30944  -9036245.20744  21063564.0744   21063564.1074
 -16068884.61844 -12521199.98344  21998982.5274   21998982.6294
  16504078.57044  12860317.17744  23315934.8574   23315935.8244
   -868278.81444   -676580.71544  25048355.5854   25048359.8584
 -17901367.052 4 -13949112.037 4  20751302.644    20751301.485
 -13259289.98644 -10331907.95044  20614325.9324   20614325.0084
 -19413568.52344 -15127443.93744  20766978.7744   20766979.2384
 94  4  6  0 56  0.0000000  0  8G13G 9G 5G 7G20G12G 4G24
  -4083560.282 4  -3181991.970 4  21154136.266    21154135.340
 -11571946.80744  -9017098.58944  21068239.8554   21068239.8634
 -16143341.81644 -12579218.55044  21984813.5794   21984813.2354
  16577963.08944  12917889.51544  23329994.9164   23329996.9044
   -965116.24044   -752038.39844  25029927.8134   25029927.9074
 -17919742.317 4 -13963430.413 4  20747805.946    20747804.804
 -13240298.48944 -10317109.36544  20617939.8104   20617938.9684
 -19460486.99044 -15164003.75544  20758050.6634   20758050.8384
 94  4  6  0 56 30.0000000  0  8G13G 9G 5G 7G20G12G 4G24
  -4033499.239 4  -3142983.361 4  21163662.585    21163661.617
 -11546734.51344  -8997452.65344  21073037.6364   21073037.4394
 -16217584.03644 -12637069.59944  21970685.6184   21970685.4734
  16651947.53144  12975539.71344  23344073.6264   23344074.4814
  -1061928.61044   -827476.38844  25011504.3664   25011504.1074
 -17937473.136 4 -13977246.627 4  20744431.856    20744430.721
 -13220668.98444 -10301813.63444  20621675.2024   20621674.4574
 -19506824.39844 -15200110.79544  20749233.0244   20749232.9724
 94  4  6  0 57  0.0000000  0  8G13G 9G 5G 7G20G12G 4G24
  -3983166.150 4  -3103762.766 4  21173240.674    21173239.729
 -11520934.17744  -8977348.49844  21077947.4084   21077946.9964
 -16291678.10844 -12694805.21044  21956585.8964   21956585.7414
  16725987.37744  13033233.08844  23358162.9224   23358162.2634
  -1158765.71844   -902933.91044  24993076.4454   24993073.2054
 -17954609.183 4 -13990599.380 4  20741170.949    20741169.809
 -13200452.64444 -10286060.62644  20625522.3064   20625521.3264
 -19552628.54044 -15235802.30444  20740516.8454   20740516.7604
 94  4  6  0 57 30.0000000  0  8G13G 9G 5G 7G20G12G 4G24
  -3932614.887 4  -3064372.166 4  21182860.240    21182859.338
 -11494590.98144  -8956821.33744  21082960.4354   21082960.0544
 -16365668.44244 -12752459.98144  21942506.1294   21942506.0744
  16800022.47244  13090922.74044  23372251.5474   23372252.5184
  -1255678.00444   -978449.87344  24974634.7354   24974633.5094
 -17971200.955 4 -14003528.025 4  20738013.667    20738012.506
 -13179708.28644 -10269896.17944  20629469.7514   20629468.8184
 -19597942.12744 -15271111.56344  20731893.7144   20731893.7674
 94  4  6  0 58  0.0000000  0  7G13G 9G 5G 7G12G 4G24
  -3881826.845 4  -3024797.061 4  21192524.888    21192523.972
 -11467702.32444  -8935869.13744  21088077.0524   21088076.9054
 -16439513.69844 -12810001.71344  21928453.6984   21928453.7874
  16874082.26044  13148631.66444  23386344.6174   23386345.6914
 -17987226.138 4 -14016015.174 4  20734964.219    20734963.046
 -13158415.41744 -10253304.31844  20633521.7224   20633520.7594
 -19642740.11444 -15306019.06144  20723368.6864   20723369.0844
 94  4  6  0 58 30.0000000  0  7G13G 9G 5G 7G12G 4G24
  -3830835.683 4  -2985063.682 4  21202228.140    21202227.240
 -11440298.66244  -8914515.63644  21093291.6934   21093291.6994
 -16513245.04644 -12867454.68344  21914423.0264   21914422.7494
  16948142.32244  13206340.79044  23400437.7994   23400437.7574
 -18002715.024 4 -14028084.427 4  20732016.741    20732015.636
 -13136597.23644 -10236303.12644  20637673.5464   20637672.5904
 -19687059.78744 -15340553.84644  20714934.8774   20714935.2714
 94  4  6  0 59  0.0000000  0  7G13G 9G 5G 7G12G 4G24
  -3779630.449 4  -2945163.497 4  21211972.194    21211971.221
 -11412355.99144  -8892742.12844  21098608.8564   21098608.9404
 -16586854.85044 -12924812.94544  21900415.6624   21900415.4864
  17022214.00444  13264058.96144  23414532.8324   23414533.5964
 -18017653.372 4 -14039724.692 4  20729174.055    20729172.964
 -13114228.11244 -10218872.62744  20641930.2954   20641929.1934
 -19730890.50744 -15374707.63044  20706594.2954   20706594.7964
 94  4  6  0 59 30.0000000  0  7G13G 9G 5G 7G12G 4G24
  -3728194.017 4  -2905083.160 4  21221760.254    21221759.252
 -11383852.72244  -8870531.79244  21104032.9494   21104033.0084
 -16660304.00844 -12982046.02944  21886438.6914   21886438.3844
  17096311.85744  13321797.51644  23428633.1514   23428634.9424
 -18032020.515 4 -14050919.864 4  20726440.025    20726439.012
 -13091280.95344 -10200991.71444  20646296.9544   20646295.8924
 -19774208.50644 -15408461.89044  20698351.1284   20698351.6054
 94  4  6  1  0  0.0000000  0  7G13G 9G 5G 7G12G 4G24
  -3676543.303 4  -2864835.849 4  21231589.030    21231588.023
 -11354801.68444  -8847894.62344  21109561.4484   21109561.0064
 -16733616.33644 -13039172.49644  21872487.7004   21872487.8354
  17170430.79944  13379552.52444  23442737.7384   23442736.5774
 -18045830.037 4 -14061680.524 4  20723812.161    20723811.081
 -13067763.03244 -10182666.05244  20650772.1664   20650771.1584
 -19817028.44244 -15441828.04944  20690202.7894   20690203.1054
 94  4  6  1  0 30.0000000  0  7G13G 9G 5G 7G12G 4G24
  -3624662.978 4  -2824409.619 4  21241461.523    21241460.530
 -11325168.59144  -8824803.90344  21115200.4264   21115200.2744
 -16806785.77844 -13096187.62444  21858563.9944   21858563.9794
  17244569.57244  13437322.98144  23456846.2224   23456845.7174
 -18059063.328 4 -14071992.174 4  20721293.985    20721292.850
 -13043669.27644 -10163891.68544  20655356.9754   20655356.0414
 -19859334.72944 -15474793.96044  20682152.0264   20682152.4624
 94  4  6  1  1  0.0000000  0  7G13G 9G 5G 7G12G 4G24
  -3572564.139 4  -2783813.123 4  21251375.565    21251374.618
 -11294981.10344  -8801281.19044  21120944.7404   21120944.3314
 -16879808.95544 -13153088.77844  21844668.2084   21844668.2544
  17318697.92944  13495085.32344  23470952.2944   23470952.9944
 -18071728.019 4 -14081860.761 4  20718883.938    20718882.833
 -13019023.50544 -10144687.18144  20660046.9814   20660045.9724
 -19901122.02344 -15507355.46344  20674200.2494   20674200.3424
 94  4  6  1  1 30.0000000  0  7G13G 9G 5G 7G12G 4G24
  -3520232.689 4  -2743035.369 4  21261333.921    21261332.949
 -11264241.13544  -8777327.97844  21126794.4894   21126794.4564
 -16952661.06444 -13209856.63344  21830805.0004   21830804.7404
  17392824.37444  13552846.15644  23485058.1914   23485057.9244
 -18083806.803 4 -14091272.795 4  20716585.425    20716584.352
 -12993832.38144 -10125057.72244  20664840.5614   20664839.6954
 -19942373.91844 -15539499.77144  20666350.1484   20666350.2814
 94  4  6  1  2  0.0000000  0  7G13G 9G 5G 7G12G 4G24
  -3467668.648 4  -2702076.375 4  21271336.447    21271335.582
 -11232954.48444  -8752948.78044  21132748.1194   21132747.8384
 -17025345.89744 -13266494.14344  21816973.7644   21816973.2924
  17466950.56244  13610606.79344  23499163.5994   23499165.7284
 -18095296.563 4 -14100225.844 4  20714398.975    20714397.916
 -12968119.22744 -10105021.48744  20669733.6464   20669732.7694
 -19983092.65144 -15571228.63244  20658601.6724   20658601.4814
 94  4  6  1  2 30.0000000  0  7G13G 9G 5G 7G12G 4G24
  -3414854.564 4  -2660922.543 4  21281386.664    21281385.813
 -11201116.37744  -8728139.87944  21138806.6884   21138806.1694
 -17097829.50344 -13322974.85344  21803180.5034   21803179.8964
  17541090.51744  13668378.18944  23513272.1294   23513270.7624
 -18106176.410 4 -14108703.638 4  20712328.603    20712327.550
 -12941868.72244 -10084566.53744  20674728.9444   20674728.0984
 -20023254.12144 -15602523.25544  20650959.3504   20650959.2644
 94  4  6  1  3  0.0000000  0  7G13G 9G 5G 7G12G 4G24
  -3361797.318 4  -2619579.233 4  21291483.103    21291482.286
 -11168738.06444  -8702910.03844  21144968.1224   21144967.8524
 -17170100.11644 -13379289.58944  21789427.8334   21789427.2814
  17615260.60744  13726173.03644  23527386.2764   23527386.2684
 -18116450.138 4 -14116709.132 4  20710373.569    20710372.541
 -12915072.57844 -10063686.41644  20679828.0344   20679827.1194
 -20062861.27844 -15633385.94844  20643422.4324   20643422.1644
 94  4  6  1  3 30.0000000  0  7G13G 9G 5G 7G12G 4G24
  -3308532.474 4  -2578074.155 4  21301619.067    21301618.242
 -11135830.17144  -8677267.53244  21151230.3884   21151229.9554
 -17242193.18344 -13435465.98244  21775708.7634   21775708.4534
  17689457.61444  13783988.88044  23541505.6224   23541505.3444
 -18126150.070 4 -14124267.513 4  20708527.701    20708526.647
 -12887761.02544 -10042404.67644  20685025.2484   20685024.3414
 -20101962.76744 -15663854.61344  20635981.6064   20635981.5364
 94  4  6  1  4  0.0000000  0  7G13G 9G 5G 7G12G 4G24
  -3255050.050 4  -2536399.536 4  21311796.472    21311795.566
 -11102377.99244  -8651200.90544  21157596.1834   21157596.0614
 -17314094.37744 -13491492.85744  21762026.3934   21762026.0324
  17763702.45844  13841842.00444  23555633.8544   23555633.3274
 -18135263.338 4 -14131368.752 4  20706793.492    20706792.419
 -12859903.50144 -10020697.50644  20690326.4304   20690325.5194
 -20140544.92744 -15693918.60944  20628639.5524   20628639.5634
 94  4  6  1  4 30.0000000  0  7G13G 9G 5G 7G12G 4G24
  -3201356.356 4  -2494560.290 4  21322014.002    21322013.083
 -11068385.42744  -8624713.19444  21164064.5654   21164064.5824
 -17385797.54144 -13547365.42944  21748381.8214   21748381.4554
  17837994.83844  13899732.14644  23569771.3414   23569772.2324
 -18143792.945 4 -14138015.190 4  20705170.349    20705169.244
 -12831486.00244  -9998553.99244  20695734.0954   20695733.1644
 -20178606.04544 -15723576.59944  20621396.6844   20621396.8564
 94  4  6  1  5  0.0000000  0  7G13G 9G 5G 7G12G 4G24
  -3147484.787 4  -2452582.444 4  21332265.498    21332264.501
 -11033878.59644  -8597824.75944  21170630.6934   21170630.9524
 -17457339.95044 -13603112.73544  21734767.6914   21734767.3374
  17912301.43244  13957633.37044  23583911.8114   23583912.0804
 -18151768.985 4 -14144230.281 4  20703652.555    20703651.453
 -12802553.04644  -9976008.82644  20701239.8764   20701238.7754
 -20216180.72844 -15752855.54844  20614246.4004   20614246.7394
 94  4  6  1  5 30.0000000  0  7G13G 9G 5G 7G12G 4G24
  -3093429.050 4  -2410461.090 4  21342551.973    21342550.962
 -10998855.52944  -8570534.06144  21177295.4654   21177295.4564
 -17528729.55444 -13658740.97244  21721182.5814   21721181.7594
  17986611.37944  14015537.24044  23598052.4944   23598050.9214
 -18159182.527 4 -14150007.062 4  20702241.779    20702240.684
 -12773104.98544  -9953062.27744  20706843.5904   20706842.3344
 -20253257.97444 -15781746.88944  20607190.8184   20607191.0504
 94  4  6  1  6  0.0000000  0  7G13G 9G 5G 7G12G 4G24
  -3039187.812 4  -2368195.188 4  21352873.662    21352872.735
 -10963329.06544  -8542851.11044  21184056.1544   21184056.0084
 -17599966.49644 -13714250.25144  21707626.5734   21707626.2134
  18060905.23944  14073428.52844  23612190.2644   23612189.4614
 -18166029.008 4 -14155341.978 4  20700938.926    20700937.871
 -12743130.71144  -9929705.69344  20712547.4494   20712546.4854
 -20289829.65644 -15810244.28144  20600231.4994   20600231.5884
 94  4  6  1  6 30.0000000  0  7G13G 9G 5G 7G12G 4G24
  -2984754.663 4  -2325779.745 4  21363231.898    21363231.035
 -10927280.65744  -8514761.45344  21190915.9374   21190915.7984
 -17671053.66144 -13769642.82144  21694099.0604   21694098.1834
  18135181.48444  14131306.10144  23626323.9554   23626324.6884
 -18172299.004 4 -14160227.685 4  20699745.815    20699744.725
 -12712634.51544  -9905942.41544  20718350.6824   20718349.6614
 -20325889.93044 -15838343.17444  20593369.5314   20593369.5944
 94  4  6  1  7  0.0000000  0  7G13G 9G 5G 7G12G 4G24
  -2930113.585 4  -2283202.280 4  21373629.774    21373628.910
 -10890691.41244  -8486250.36344  21197878.5744   21197878.5434
 -17741980.51044 -13824910.46744  21680602.1394   21680601.8844
  18209460.91644  14189186.18644  23640458.5954   23640458.9974
 -18177973.723 4 -14164649.539 4  20698665.970    20698664.857
 -12681600.46644  -9881760.03144  20724256.3454   20724255.1914
 -20361427.08844 -15866034.44344  20586606.8854   20586607.0004
 94  4  6  1  7 30.0000000  0  7G13G 9G 5G 7G12G 4G24
  -2875237.536 4  -2240441.720 4  21384072.352    21384071.464
 -10853537.39244  -8457299.18844  21204948.9394   21204948.8284
 -17812705.56844 -13880020.87444  21667143.5994   21667143.3274
  18283777.20444  14247094.94844  23654600.4784   23654602.8174
 -18183022.920 4 -14168583.975 4  20697705.180    20697704.011
 -12649982.02144  -9857122.27344  20730273.2354   20730272.0654
 -20396404.93644 -15893289.88644  20579950.8574   20579950.9994
 94  4  6  1  8  0.0000000  0  8G13G 9G 5G 7G20G12G 4G24
  -2820923.783 4  -2198119.313 4  21394407.952    21394407.006
 -10816618.00944  -8428530.84444  21211974.4394   21211974.3404
 -17884014.82744 -13935586.50644  21653573.9304   21653573.5874
  18357334.17444  14304412.05944  23668597.8874   23668597.1084
        -0.86154         0.11154  24585135.0304   24585142.8754
 -18188240.969 4 -14172649.985 4  20696712.189    20696711.040
 -12618582.43944  -9832655.05744  20736248.2304   20736247.3404
 -20431608.24844 -15920721.01544  20573251.8634   20573251.8284
 94  4  6  1  8 30.0000000  0  8G13G 9G 5G 7G20G12G 4G24
  -2766102.799 4  -2155401.658 4  21404840.094    21404839.069
 -10778862.16844  -8399110.71644  21219159.0454   21219159.0844
 -17954831.37144 -13990768.20144  21640097.8404   21640098.0524
  18431211.06944  14361978.45244  23682656.6044   23682655.9234
    -98241.57644    -76550.94244  24566440.5754   24566441.0214
 -18192555.719 4 -14176012.122 4  20695891.082    20695889.957
 -12586349.54944  -9807538.50944  20742381.8154   20742380.9264
 -20465950.82244 -15947481.44144  20566716.5884   20566716.7564
 94  4  6  1  9  0.0000000  0  8G13G 9G 5G 7G20G12G 4G24
  -2710400.444 4  -2111997.223 4  21415439.859    21415438.884
 -10739899.78444  -8368750.42644  21226573.3214   21226573.3124
 -18024767.08944 -14045263.53944  21626789.4954   21626789.5644
  18505787.93644  14420090.32144  23696848.1294   23696851.7404
   -195816.21444   -152583.07544  24547872.6424   24547872.6184
 -18195590.011 4 -14178376.500 4  20695313.662    20695312.552
 -12552910.95544  -9781482.45444  20748745.1714   20748744.0914
 -20499047.09844 -15973270.72644  20560418.5504   20560418.8744
 94  4  6  1  9 30.0000000  0  8G13G 9G 5G 7G20G12G 4G24
  -2654470.618 4  -2068415.535 4  21426082.992    21426082.027
 -10700381.75844  -8337957.17344  21234093.5264   21234093.2884
 -18094473.94444 -14099580.54244  21613524.6974   21613524.5234
  18580404.40744  14478232.99544  23711047.1214   23711047.0464
   -293375.01144   -228602.84344  24529307.8594   24529309.5634
 -18197994.967 4 -14180250.489 4  20694856.012    20694854.921
 -12518923.96144  -9754999.07844  20755212.7544   20755211.4134
 -20531541.29844 -15998590.86244  20554235.2424   20554235.4284
 94  4  6  1 10  0.0000000  0  8G13G 9G 5G 7G20G12G 4G24
  -2598392.243 4  -2024718.095 4  21436754.238    21436753.358
 -10660369.55244  -8306778.84244  21241707.6484   21241706.9524
 -18164035.25144 -14153784.13644  21600287.7334   21600287.7574
  18654989.67344  14536351.32544  23725240.0924   23725240.6234
   -390993.30344   -304668.98444  24510730.6884   24510726.2584
 -18199846.838 4 -14181693.506 4  20694503.602    20694502.535
 -12484474.68144  -9728155.47544  20761768.1254   20761767.2154
 -20563526.08244 -16023514.05244  20548148.8004   20548148.8314
 94  4  6  1 10 30.0000000  0  8G13G 9G 5G 7G20G12G 4G24
  -2542186.490 4  -1980921.402 4  21447449.783    21447448.940
 -10619868.59844  -8275219.67344  21249414.8284   21249414.1544
 -18233451.02744 -14207874.33244  21587078.0314   21587077.8734
  18729534.22644  14594437.98044  23739425.7614   23739425.0124
   -488689.06744   -380795.50244  24492139.5594   24492139.6034
 -18201164.027 4 -14182719.888 4  20694252.955    20694251.898
 -12449565.87044  -9700953.79544  20768410.9644   20768409.9344
 -20595044.66644 -16048073.96844  20542150.8564   20542151.0014
 94  4  6  1 11  0.0000000  0  8G13G 9G 5G 7G20G12G 4G24
  -2485848.078 4  -1937021.339 4  21458170.608    21458169.745
 -10578869.57444  -8243272.39744  21257216.5954   21257216.0754
 -18302710.95944 -14261843.08944  21573898.1894   21573898.2004
  18804035.23144  14652490.67944  23753602.5534   23753601.2774
   -586453.43644   -456975.56244  24473534.9154   24473535.1054
 -18201938.387 4 -14183323.284 4  20694105.575    20694104.527
 -12414179.60044  -9673380.07244  20775144.7094   20775143.6104
 -20626111.79544 -16072282.09944  20536238.9484   20536239.0314
 94  4  6  1 11 30.0000000  0  8G13G 9G 5G 7G20G12G 4G24
  -2429363.708 4  -1893007.546 4  21468919.208    21468918.355
 -10537357.53044  -8210925.36544  21265116.0894   21265115.8574
 -18371793.19944 -14315673.38444  21560752.4924   21560752.5084
  18878502.14344  14710516.81844  23767772.9354   23767774.2474
   -684269.81844   -533196.05744  24454920.9204   24454918.9094
 -18202154.204 4 -14183491.453 4  20694064.515    20694063.479
 -12378305.16644  -9645425.96144  20781971.2964   20781970.3674
 -20656721.25844 -16096133.60344  20530414.2654   20530414.4404
 94  4  6  1 12  0.0000000  0  8G13G 9G 5G 7G20G12G 4G24
  -2372729.374 4  -1848876.898 4  21479696.340    21479695.521
 -10495330.68744  -8178177.18944  21273113.6514   21273113.4484
 -18440678.24844 -14369350.02644  21547644.2984   21547644.4194
  18952936.68144  14768517.74444  23781937.5944   23781939.5804
   -782130.32844   -609450.94244  24436298.4794   24436304.3104
 -18201804.512 4 -14183218.967 4  20694131.052    20694130.031
 -12341952.72244  -9617099.37344  20788888.8664   20788888.0004
 -20686869.67744 -16119625.85244  20524677.2264   20524677.1934
 94  4  6  1 12 30.0000000  0  7G13G 9G 5G 7G12G 4G24
  -2315935.534 4  -1804621.962 4  21490503.881    21490503.092
 -10452801.09644  -8145037.25944  21281206.6674   21281206.5334
 -18509362.73744 -14422870.38844  21534574.0504   21534573.8254
  19027336.00944  14826491.23444  23796095.6064   23796095.9954
 -18200877.351 4 -14182496.504 4  20694307.443    20694306.427
 -12305122.20444  -9588400.26344  20795897.6254   20795896.8134
 -20716530.27744 -16142737.98644  20519032.9634   20519032.9544
 94  4  6  1 13  0.0000000  0  7G13G 9G 5G 7G12G 4G24
  -2258984.619 4  -1760244.631 4  21501341.345    21501340.508
 -10409782.44644  -8111516.24644  21289392.7524   21289393.0774
 -18577869.27044 -14476252.08444  21521537.5994   21521537.4074
  19101702.42444  14884439.06944  23810246.7034   23810247.2774
 -18199372.420 4 -14181323.828 4  20694593.822    20694592.780
 -12267826.22044  -9559338.45244  20802994.9444   20802994.0504
 -20745672.32644 -16165446.05144  20513487.4564   20513487.5294
 94  4  6  1 13 30.0000000  0  7G13G 9G 5G20G12G 4G24
  -2201871.242 4  -1715740.706 4  21512209.655    21512208.840
 -10366267.49244  -8077608.50144  21297673.1404   21297673.4144
 -18646190.79744 -14529489.61644  21508536.1774   21508536.2544
        -0.12554        -0.02654  24380398.2844   24380399.1444
 -18197282.051 4 -14179694.965 4  20694991.661    20694990.577
 -12230048.55744  -9529901.30944  20810183.6914   20810182.7624
 -20774272.47244 -16187731.85644  20508045.0294   20508045.1084
 94  4  6  1 14  0.0000000  0  7G13G 9G 5G20G12G 4G24
  -2144572.879 4  -1671092.638 4  21523113.193    21523112.338
 -10322243.15444  -8043303.83544  21306050.7544   21306050.9274
 -18714319.12544 -14582576.60644  21495571.9134   21495572.0034
    -97939.30044    -76316.25144  24361761.2964   24361764.8284
 -18194580.951 4 -14177590.211 4  20695505.679    20695504.571
 -12191739.45544  -9500050.05644  20817473.5944   20817472.8974
 -20802301.26744 -16209572.45344  20502711.2054   20502711.2854
 94  4  6  1 14 30.0000000  0  7G13G 9G 5G20G12G 4G24
  -2087048.642 4  -1626268.562 4  21534059.650    21534058.833
 -10277676.31344  -8008576.43544  21314531.5114   21314531.8894
 -18782215.55644 -14635482.89544  21482651.7024   21482651.6504
   -195829.70444   -152594.40044  24343133.9604   24343132.8034
 -18191225.888 4 -14174975.873 4  20696144.118    20696143.028
 -12152825.86744  -9469727.77644  20824878.6574   20824877.8994
 -20829718.05044 -16230936.16144  20497493.8304   20497494.0574
 94  4  6  1 15  0.0000000  0  7G13G 9G 5G20G12G 4G24
  -2029363.640 4  -1581319.215 4  21545036.760    21545035.903
 -10232623.55744  -7973470.40544  21323104.8554   21323104.9434
 -18849929.05344 -14688246.64644  21469766.3984   21469766.3294
   -293733.11744   -228882.74944  24324503.1304   24324504.2044
 -18187279.603 4 -14171900.842 4  20696895.050    20696894.003
 -12113366.38744  -9438980.12444  20832387.5984   20832386.7284
 -20856595.71844 -16251879.77744  20492379.1894   20492379.4224
 94  4  6  1 15 30.0000000  0  7G13G 9G 5G20G12G 4G24
  -1971562.789 4  -1536279.594 4  21556035.924    21556035.044
 -10187131.59844  -7938022.13444  21331761.7394   21331761.7774
 -18917487.42044 -14740889.51344  21456910.5044   21456910.3214
   -391690.54344   -305213.14344  24305862.8174   24305862.5914
 -18182784.403 4 -14168398.089 4  20697750.499    20697749.392
 -12073423.33944  -9407855.66944  20839988.3974   20839987.6564
 -20883001.99644 -16272456.08044  20487354.3344   20487354.5074
 94  4  6  1 16  0.0000000  0  7G13G 9G 5G20G12G 4G24
  -1913645.579 4  -1491149.303 4  21567057.159    21567056.327
 -10141207.30244  -7902236.98244  21340501.0734   21340500.7874
 -18984872.56144 -14793397.39944  21444087.4624   21444087.3194
   -489697.92944   -381582.48144  24287212.6304   24287215.4214
 -18177737.515 4 -14164465.445 4  20698710.873    20698709.773
 -12033024.34044  -9376375.92744  20847675.8624   20847675.1084
 -20908937.51544 -16292665.55744  20482418.9544   20482419.2094
 94  4  6  1 16 30.0000000  0  7G13G 9G 5G20G12G 4G24
  -1855596.227 4  -1445916.045 4  21578103.563    21578102.753
 -10094826.04444  -7866095.75744  21349327.0454   21349326.8384
 -19052042.47044 -14845737.57244  21431305.3864   21431305.0554
   -587736.23544   -457975.96644  24268556.4824   24268558.2424
 -18172120.813 4 -14160088.792 4  20699779.708    20699778.602
 -11992188.52244  -9344555.80544  20855446.8014   20855445.9374
 -20934383.61744 -16312493.66944  20477576.5654   20477576.6184
 94  4  6  1 17  0.0000000  0  7G13G 9G 5G20G12G 4G24
  -1797405.953 4  -1400572.980 4  21589176.770    21589176.009
 -10047967.88244  -7829582.92044  21358243.9594   21358243.8434
 -19118982.61144 -14897898.70544  21418567.0974   21418566.7814
   -685793.25244   -534383.91944  24249896.4924   24249898.7994
 -18165923.226 4 -14155259.503 4  20700959.087    20700957.906
 -11950937.03344  -9312411.78444  20863296.8074   20863295.8944
 -20959316.02644 -16331921.50144  20472832.2074   20472832.2394
 94  4  6  1 17 30.0000000  0  7G13G 9G 5G20G24G12G 4
  -1739032.825 4  -1355087.431 4  21600284.801    21600284.082
 -10000584.80044  -7792661.05044  21367260.5294   21367260.5244
 -19185652.55744 -14949849.29544  21405880.2654   21405879.8534
   -783823.41944   -610771.02844  24231242.3084   24231246.0794
 -20983681.58244 -16350907.63144  20468195.5794   20468195.7094
 -18159100.545 4 -14149943.131 4  20702257.382    20702256.184
 -11909219.88444  -9279904.90844  20871235.3954   20871234.4344
 94  4  6  1 18  0.0000000  0  7G13G 9G 5G20G24G12G 4
  -1680466.464 4  -1309451.312 4  21611429.586    21611428.888
  -9952653.51844  -7755312.00744  21376381.5874   21376381.2144
 -19252041.07644 -15001580.58844  21393247.0944   21393246.7854
   -881812.60244   -687126.18544  24212595.5764   24212595.8284
 -21007452.13644 -16369430.12144  20463672.1814   20463672.2004
 -18151640.038 4 -14144129.747 4  20703677.060    20703675.853
 -11866986.01944  -9246995.40244  20879272.1024   20879271.2804
 94  4  6  1 18 30.0000000  0  7G13G 9G 5G20G24G12G 4
  -1621711.770 4  -1263668.439 4  21622610.222    21622609.534
  -9904174.93544  -7717536.49844  21385606.8984   21385606.5614
 -19318169.13144 -15053108.92144  21380663.2554   21380662.9954
   -979762.47044   -763450.72844  24193955.9814   24193961.5414
 -21030621.79344 -16387484.37844  20459263.1594   20459262.9914
 -18143544.579 4 -14137821.597 4  20705217.548    20705216.397
 -11824217.64344  -9213669.38844  20887410.7254   20887410.0064
 94  4  6  1 19  0.0000000  0  7G13G 9G 5G20G24G12G 4
  -1562795.928 4  -1217760.000 4  21633821.459    21633820.877
  -9855181.09744  -7679359.49544  21394930.0744   21394929.5834
 -19384073.86244 -15104463.23544  21368121.7274   21368121.5594
  -1077696.69844   -839763.07444  24175319.1544   24175323.1464
 -21053224.13044 -16405096.57144  20454962.1054   20454962.0974
 -18134839.010 4 -14131038.038 4  20706874.124    20706872.992
 -11780913.86044  -9179926.17844  20895651.1094   20895650.2624
 94  4  6  1 19 30.0000000  0  7G13G 9G 5G20G24G12G 4
  -1503720.340 4  -1171727.079 4  21645063.207    21645062.629
  -9805677.67544  -7640785.41744  21404350.3174   21404350.1714
 -19449754.23844 -15155642.72244  21355623.1874   21355622.9704
  -1175613.32744   -916061.67844  24156685.6644   24156684.9284
 -21075272.44044 -16422277.05344  20450766.3484   20450766.2524
 -18125522.777 4 -14123778.633 4  20708646.928    20708645.842
 -11737051.31744  -9145747.57144  20903997.8714   20903997.1064
 94  4  6  1 20  0.0000000  0  7G13G 9G 5G20G24G12G 4
  -1444522.925 4  -1125599.229 4  21656328.158    21656327.498
  -9755717.83544  -7601855.68444  21413857.4444   21413856.8524
 -19515244.72844 -15206674.25144  21343160.9984   21343160.7014
  -1273546.60444   -992373.37744  24138049.5294   24138049.4134
 -21096809.37844 -16439059.06444  20446668.1604   20446667.9864
 -18115631.535 4 -14116071.162 4  20710529.240    20710528.041
 -11692674.91044  -9111168.54844  20912442.3994   20912441.6194
 94  4  6  1 20 30.0000000  0  7G13G 9G 5G20G12G 4G24
  -1385223.776 4  -1079392.111 4  21667612.410    21667611.749
  -9705329.63244  -7562592.16544  21423446.0704   21423445.5174
 -19580560.87544 -15257569.93144  21330731.6934   21330731.4024
  -1371513.12844  -1068710.84144  24119407.3074   24119411.0904
 -18105183.472 4 -14107929.814 4  20712517.445    20712516.254
 -11647838.14344  -9076230.80744  20920974.6154   20920973.6824
 -21117859.14544 -16455461.46544  20442662.3814   20442662.4064
 94  4  6  1 21  0.0000000  0  7G13G 9G 5G20G24G12G 4
  -1325813.639 4  -1033098.503 4  21678917.803    21678917.037
  -9654497.27044  -7522982.54344  21433119.0674   21433118.5764
 -19645673.09044 -15308306.69644  21318341.1724   21318340.8164
  -1469500.21644  -1145064.42144  24100761.6104   24100761.4414
 -21138427.17544 -16471488.48444  20438748.1754   20438748.2344
 -18094167.092 4 -14099345.618 4  20714613.770    20714612.653
 -11602545.65944  -9040937.96244  20929593.5664   20929592.4284
 94  4  6  1 21 30.0000000  0  7G13G 9G 5G20G24G12G 4
  -1266283.922 4   -986711.717 4  21690245.947    21690245.152
  -9603205.58244  -7483015.00744  21442879.3974   21442879.0404
 -19710558.28244 -15358866.56644  21305993.9054   21305993.4554
  -1567495.64744  -1221424.44144  24082114.0304   24082113.4034
 -21158499.25544 -16487129.05044  20434928.6894   20434928.6204
 -18082571.991 4 -14090310.474 4  20716820.225    20716819.081
 -11556812.18444  -9005301.48644  20938296.2544   20938295.3384
 94  4  6  1 22  0.0000000  0  7G 9G13G 5G20G24G12G 4
  -9551448.60344  -7442684.91044  21452728.5414   21452728.1834
  -1206638.432 4   -940234.717 4  21701596.137    21701595.347
 -19775216.42444 -15409249.51144  21293689.7464   21293689.4584
  -1665499.97444  -1297791.45044  24063464.4544   24063465.9584
 -21178072.54444 -16502380.94444  20431204.1074   20431203.9094
 -18070399.703 4 -14080825.573 4  20719136.565    20719135.402
 -11510661.63644  -8969340.01944  20947078.4384   20947077.5774
 94  4  6  1 22 30.0000000  0  7G13G 9G 5G20G24G12G 4
  -1146859.189 4   -893653.494 4  21712971.749    21712971.000
  -9499199.05044  -7401970.98944  21462671.3084   21462670.9074
 -19839622.23644 -15459435.83644  21281433.7314   21281433.2904
  -1763491.57444  -1374148.51944  24044817.2944   24044816.1894
 -21197133.77444 -16517233.83444  20427576.8604   20427576.6164
 -18057630.668 4 -14070875.676 4  20721566.431    20721565.260
 -11464078.92144  -8933041.80344  20955942.8674   20955941.9564
 94  4  6  1 23  0.0000000  0  7G 9G13G 5G20G24G12G 4
  -9446460.45544  -7360875.99244  21472707.2854   21472706.7774
  -1086945.066 4   -846967.167 4  21724372.984    21724372.252
 -19903776.95844 -15509426.50344  21269225.7214   21269225.1484
  -1861465.73144  -1450492.02544  24026172.9284   24026172.8104
 -21215693.46844 -16531695.91444  20424044.9964   20424044.7784
 -18044261.728 4 -14060458.318 4  20724110.437    20724109.290
 -11417054.33744  -8896399.27344  20964891.3204   20964890.4254
 94  4  6  1 23 30.0000000  0  7G 9G13G 5G20G12G 4G24
  -9393213.78344  -7319385.09544  21482839.4834   21482839.3804
  -1026872.746 4   -800157.570 4  21735804.345    21735803.595
 -19967667.51344 -15559211.33344  21257067.5714   21257067.0284
  -1959395.51244  -1526800.82444  24007537.2254   24007537.9914
 -18030267.672 4 -14049553.857 4  20726773.383    20726772.245
 -11369563.21644  -8859393.20544  20973928.3604   20973927.5644
 -21233707.70044 -16545732.96244  20420616.8584   20420616.8174
 94  4  6  1 24  0.0000000  0  7G 4G13G 9G 5G20G24G12
 -11321594.46644  -8822014.96044  20983056.3594   20983055.6114
   -966641.115 4   -753223.836 4  21747266.070    21747265.345
  -9339458.27244  -7277497.69044  21493068.6464   21493068.7244
 -20031293.72544 -15608790.18244  21244959.8554   21244959.4344
  -2057276.78444  -1603071.96244  23988910.9674   23988913.3474
 -21251171.98744 -16559341.47844  20417293.5554   20417293.4854
 -18015645.732 4 -14038160.136 4  20729555.839    20729554.724
 94  4  6  1 24 30.0000000  0  7G 4G13G 9G 5G20G24G12
 -11273146.53744  -8784263.32844  20992275.9704   20992274.9904
   -906261.273 4   -706174.616 4  21758755.961    21758755.300
  -9285214.45644  -7235229.79344  21503391.0334   21503391.1834
 -20094652.05144 -15658160.29344  21232903.2864   21232903.1834
  -2155116.64944  -1679310.75944  23970293.0244   23970295.3004
 -21268094.23844 -16572527.63144  20414073.5164   20414073.3104
 -18000405.087 4 -14026284.314 4  20732456.059    20732454.954
 94  4  6  1 25  0.0000000  0  7G 4G13G 9G 5G20G24G12
 -11224218.02444  -8746137.21144  21001586.8354   21001585.7604
   -845743.245 4   -659017.721 4  21770272.154    21770271.476
  -9230494.24644  -7192590.67344  21513804.1034   21513804.1414
 -20157741.58044 -15707320.94844  21220897.5994   21220897.3954
  -2252921.77344  -1755522.49244  23951681.6464   23951683.3264
 -21284461.23944 -16585281.11944  20410958.8674   20410958.5804
 -17984554.064 4 -14013932.870 4  20735472.406    20735471.335
 94  4  6  1 25 30.0000000  0  7G 4G13G 9G 5G20G24G12
 -11174802.26344  -8707631.42244  21010990.2474   21010989.2424
   -785096.792 4   -611760.752 4  21781812.786    21781812.130
  -9175303.54344  -7149584.94644  21524306.5454   21524306.2444
 -20220561.67544 -15756271.65944  21208943.4564   21208943.0344
  -2350698.32244  -1831712.00044  23933075.8894   23933076.8434
 -21300260.14644 -16597591.93344  20407952.4244   20407952.2294
 -17968100.690 4 -14001112.061 4  20738603.324    20738602.332
 94  4  6  1 26  0.0000000  0  7G 4G13G 9G 5G20G24G12
 -11124893.75344  -8668741.66944  21020487.5974   21020486.6834
   -724334.926 4   -564413.850 4  21793375.374    21793374.699
  -9119666.41244  -7106231.35344  21534894.2004   21534893.9564
 -20283114.28244 -15805013.93744  21197039.9944   21197039.7494
  -2448455.95644  -1907886.72744  23914472.8344   23914472.6764
 -21315513.28644 -16609477.47344  20405049.9474   20405049.8334
 -17951056.314 4 -13987830.731 4  20741846.774    20741845.772
 94  4  6  1 26 30.0000000  0  7G 4G13G 9G 5G20G24G12
 -11074500.81044  -8629474.43744  21030077.2104   21030076.2154
   -663465.582 4   -516983.203 4  21804958.362    21804957.750
  -9063606.97444  -7062548.69644  21545562.0114   21545561.5024
 -20345409.29344 -15853555.48744  21185185.4074   21185185.1914
  -2546198.90444  -1984049.99944  23895873.1044   23895875.8624
 -21330226.62044 -16620942.39344  20402250.0784   20402249.9084
 -17933427.254 4 -13974093.804 4  20745201.539    20745200.489
 94  4  6  1 27  0.0000000  0  7G 4G13G 9G 5G20G24G12
 -11023630.95144  -8589835.58244  21039757.1684   21039756.3164
   -602487.639 4   -469467.933 4  21816562.057    21816561.427
  -9007127.19344  -7018538.49444  21556309.4864   21556309.2364
 -20407461.03444 -15901907.47844  21173377.2304   21173377.0274
  -2643922.62544  -2060198.34544  23877276.6364   23877275.5134
 -21344399.80644 -16631986.42144  20399552.8544   20399552.6944
 -17915210.668 4 -13959899.066 4  20748667.997    20748666.942
 94  4  6  1 27 30.0000000  0  7G 4G13G 9G 5G20G24G12
 -10972305.56944  -8549841.77844  21049524.1304   21049523.2874
   -541401.662 4   -421868.481 4  21828186.364    21828185.690
  -8950223.12844  -6974197.68544  21567137.8684   21567137.7424
 -20469277.06744 -15950075.80344  21161614.2044   21161613.6444
  -2741623.88944  -2136329.13544  23858684.5104   23858684.8854
 -21358048.44144 -16642621.70744  20396955.6244   20396955.5304
 -17896405.734 4 -13945245.872 4  20752246.399    20752245.341
 94  4  6  1 28  0.0000000  0  7G 4G13G 9G 5G20G24G12
 -10920541.06144  -8509505.79644  21059374.6664   21059373.5834
   -480200.316 4   -374179.131 4  21839832.657    21839831.919
  -8892890.98344  -6929523.29944  21578047.8674   21578047.9444
 -20530846.55344 -15998052.01444  21149897.9944   21149897.5594
  -2839292.17544  -2212434.25844  23840098.5794   23840099.7704
 -21371174.08444 -16652849.46644  20394457.9284   20394457.6474
 -17877003.429 4 -13930127.195 4  20755938.571    20755937.480
 94  4  6  1 28 30.0000000  0  7G 4G13G 9G 5G20G24G12
 -10868352.50044  -8468839.38544  21069305.8844   21069304.9344
   -418878.077 4   -326395.574 4  21851501.921    21851501.209
  -8835118.38644  -6884505.70144  21589041.5974   21589041.3654
 -20592162.49244 -16045830.65944  21138229.8064   21138229.4814
  -2936918.60644  -2288506.77644  23821520.9114   23821520.9654
 -21383764.09044 -16662659.84744  20392062.1424   20392061.9534
 -17856996.869 4 -13914537.672 4  20759745.734    20759744.634
 94  4  6  1 29  0.0000000  0  7G 4G13G 9G 5G20G24G12
 -10815743.68644  -8427845.50344  21079316.9084   21079316.0294
   -357434.786 4   -278517.687 4  21863194.290    21863193.495
  -8776893.87344  -6839135.95744  21600121.2944   21600121.3254
 -20653210.58844 -16093400.59544  21126612.6364   21126612.3354
  -3034499.43844  -2364543.72544  23802951.8334   23802953.2164
 -21395814.86444 -16672050.04744  20389768.7794   20389768.6964
 -17836384.348 4 -13898475.967 4  20763668.146    20763667.095
 94  4  6  1 29 30.0000000  0  7G 4G13G 9G 5G20G24G12
 -10762726.81744  -8386533.65744  21089405.8034   21089404.7784
   -295875.675 4   -230549.548 4  21874908.632    21874907.787
  -8718222.43944  -6793417.96344  21611286.2584   21611286.4884
 -20713980.57044 -16140753.81644  21115048.2394   21115048.0984
  -3132036.17944  -2440546.35644  23784391.4434   23784394.1494
 -21407324.14344 -16681018.29944  20387578.6914   20387578.6704
 -17815169.790 4 -13881945.143 4  20767705.145    20767704.082
 94  4  6  1 30  0.0000000  0  7G 4G13G 9G 5G20G24G12
 -10709279.26744  -8344886.21444  21099576.4274   21099575.7284
   -234185.186 4   -182479.042 4  21886647.992    21886647.137
  -8659094.47544  -6747344.23444  21622538.0394   21622538.3104
 -20774446.01944 -16187869.74244  21103542.2024   21103542.0744
  -3229509.87644  -2516499.83344  23765843.0904   23765843.0934
 -21418266.43444 -16689544.74544  20385496.4954   20385496.2794
 -17793336.192 4 -13864931.947 4  20771859.965    20771858.908
 94  4  6  1 30 30.0000000  0  7G 4G 9G13G 5G20G24G12
 -10655401.27844  -8302903.36744  21109828.8944   21109828.0354
  -8599510.02244  -6700914.80144  21633876.4994   21633876.9084
   -172369.517 4   -134310.994 4  21898411.092    21898410.343
 -20834606.23244 -16234747.82044  21092094.1624   21092093.8324
  -3326923.21844  -2592406.28044  23747306.3054   23747307.4884
 -21428651.56144 -16697637.03344  20383520.2684   20383520.0974
 -17770888.283 4 -13847440.067 4  20776131.664    20776130.594
 94  4  6  1 31  0.0000000  0  7G 4G 5G13G 9G20G24G12
 -10601087.67644  -8260581.08344  21120164.3994   21120163.7644
 -20894448.72044 -16281378.32244  21080706.4384   21080706.1884
   -110421.190 4    -86039.577 4  21910199.472    21910198.733
  -8539454.60744  -6654118.38544  21645304.7584   21645304.8114
  -3424265.19844  -2668257.11644  23728782.5244   23728781.8024
 -21438478.39844 -16705294.29244  20381650.2904   20381650.1084
 -17747817.384 4 -13829462.743 4  20780521.913    20780520.776
 94  4  6  1 31 30.0000000  0  7G 4G 5G13G 9G20G24G12
 -10546309.77544  -8217897.00944  21130588.3244   21130587.7004
 -20953967.66244 -16327756.70644  21069380.3674   21069380.2444
    -48326.287 4    -37653.946 4  21922015.803    21922015.039
  -8478907.01344  -6606938.45744  21656826.5464   21656826.4094
  -3521518.54344  -2744038.92144  23710275.7224   23710276.9654
 -21447739.50444 -16712510.72244  20379887.9314   20379887.6864
 -17724108.347 4 -13810988.168 4  20785033.584    20785032.435
 94  4  6  1 32  0.0000000  0  7G 4G 5G13G 9G20G24G12
 -10491041.47144  -8174830.79744  21141105.4984   21141104.6744
 -21013170.12844 -16373888.48444  21058114.5614   21058114.5264
     13913.022 4     10844.211 4  21933859.478    21933858.776
  -8417866.11244  -6559374.12944  21668442.1594   21668441.9214
  -3618681.68544  -2819750.41444  23691786.4044   23691787.0824
 -21456450.44044 -16719298.45244  20378230.2514   20378230.2054
 -17699761.949 4 -13792016.944 4  20789666.601    20789665.426
 94  4  6  1 32 30.0000000  0  7G 4G 5G13G 9G20G24G12
 -10435286.95944  -8131385.72544  21151715.3084   21151714.5824
 -21072082.83844 -16419794.48444  21046903.9794   21046903.7284
     76277.364 4     59439.801 4  21945726.961    21945726.225
  -8356341.75544  -6511433.09544  21680149.7874   21680149.8224
  -3715770.44144  -2895403.94844  23673310.7774   23673311.8784
 -21464635.61944 -16725676.50244  20376672.6814   20376672.4924
 -17674796.478 4 -13772563.328 4  20794417.437    20794416.219
 94  4  6  1 33  0.0000000  0  7G 4G 5G13G 9G20G24G12
 -10379060.09644  -8087572.58744  21162415.0214   21162414.1244
 -21130735.74644 -16465498.03944  21035742.8034   21035742.4094
    138736.460 4    108109.223 4  21957612.531    21957611.772
  -8294360.37144  -6463135.92644  21691944.4704   21691944.5934
  -3812811.37544  -2971020.22344  23654844.4154   23654844.4194
 -21472309.01644 -16731655.75644  20375212.5844   20375212.3444
 -17649241.131 4 -13752650.073 4  20799280.445    20799279.274
 94  4  6  1 33 30.0000000  0  7G 4G 5G13G 9G20G24G12
 -10322381.77644  -8043407.66544  21173200.4334   21173199.7234
 -21189150.17244 -16511015.76044  21024626.7684   21024626.4654
    201262.903 4    156831.123 4  21969510.843    21969510.179
  -8231955.27544  -6414508.59844  21703819.7344   21703819.7904
  -3909828.51644  -3046617.95644  23636382.4464   23636382.3014
 -21479493.12144 -16737253.75044  20373845.4064   20373845.0534
 -17623121.850 4 -13732297.390 4  20804250.731    20804249.626
 94  4  6  1 34  0.0000000  0  7G 4G 5G13G 9G20G24G12
 -10265318.89944  -7998943.08644  21184059.0154   21184058.4944
 -21247351.78144 -16556367.65144  21013551.3974   21013551.2534
    263815.785 4    205573.623 4  21981414.242    21981413.629
  -8169179.09144  -6365592.08944  21715765.9634   21715765.7674
  -4006859.47044  -3122226.45444  23617917.4284   23617916.2954
 -21486218.03344 -16742493.92844  20372565.5944   20372565.3534
 -17596478.923 4 -13711536.672 4  20809320.681    20809319.577
 94  4  6  1 34 30.0000000  0  7G 4G 5G 9G13G20G24G12
 -10207903.43744  -7954203.77044  21194985.0034   21194984.3354
 -21305317.21544 -16601535.51044  21002520.8474   21002520.8614
  -8106043.08344  -6316395.21044  21727780.2194   21727780.1584
    326392.589 4    254334.764 4  21993322.231    21993321.561
  -4103902.92944  -3197844.68544  23599450.7014   23599451.9084
 -21492471.34644 -16747366.62444  20371375.6804   20371375.5364
 -17569313.419 4 -13690368.752 4  20814490.067    20814488.999
 94  4  6  1 35  0.0000000  0  7G 4G 5G 9G13G20G24G12
 -10150165.38744  -7909213.08144  21205972.1504   21205971.4954
 -21363036.32444 -16646511.42844  20991537.2264   20991537.0264
  -8042566.78844  -6266933.17444  21739859.3904   21739859.3134
    388990.676 4    303112.490 4  22005234.271    22005233.511
  -4200958.26644  -3273472.17344  23580981.8804   23580981.6734
 -21498267.05044 -16751882.74044  20370272.7904   20370272.6484
 -17541627.189 4 -13668795.071 4  20819758.602    20819757.505
 94  4  6  1 35 30.0000000  0  7G 4G 9G13G20G24G12G 5
 -10092087.59844  -7863957.65944  21217023.8664   21217023.1314
  -7978734.16644  -6217193.48244  21752006.3504   21752006.4764
    451645.379 4    351934.329 4  22017157.069    22017156.304
  -4297986.78344  -3349078.78144  23562518.0644   23562518.3314
 -21503581.73344 -16756024.03744  20369261.3894   20369261.2694
 -17513383.829 4 -13646787.262 4  20825133.142    20825132.018
 -21420471.15444 -16691265.82944  20980608.0214   20980607.6364
 94  4  6  1 36  0.0000000  0  7G 4G 9G13G20G24G12G 5
 -10033630.88744  -7818406.97444  21228147.9144   21228146.9694
  -7914523.58544  -6167159.27244  21764225.0654   21764225.2334
    514390.167 4    400826.365 4  22029097.062    22029096.247
  -4394951.39344  -3424635.57144  23544066.4324   23544068.7034
 -21508383.31444 -16759765.51544  20368347.7084   20368347.4124
 -17484548.963 4 -13624318.535 4  20830620.247    20830619.154
 -21477586.96344 -16735771.64444  20969739.2184   20969738.7764
 94  4  6  1 36 30.0000000  0  7G 4G 9G13G20G24G12G 5
  -9974747.01344  -7772523.43444  21239353.3054   21239352.2614
  -7849896.58544  -6116800.57844  21776523.1714   21776523.6294
    577255.900 4    449812.641 4  22041060.063    22041059.198
  -4491817.63744  -3500115.72744  23525633.6134   23525633.2794
 -21512641.96844 -16763083.93044  20367537.2714   20367537.1154
 -17455090.839 4 -13601364.153 4  20836225.977    20836224.816
 -21534355.11244 -16780006.55244  20958936.5414   20958936.0314
 94  4  6  1 37  0.0000000  0  7G 4G 9G13G20G24G12G 5
  -9915400.27944  -7726279.22144  21250646.5794   21250645.5454
  -7784822.38744  -6066093.42044  21788906.2814   21788906.8494
    640260.018 4    498906.750 4  22053049.394    22053048.458
  -4588564.36644  -3575502.75544  23507223.4404   23507224.1484
 -21516328.81144 -16765956.77944  20366835.6434   20366835.3374
 -17424990.900 4 -13577909.658 4  20841953.818    20841952.676
 -21590779.79144 -16823973.81944  20948199.1234   20948198.7664
 94  4  6  1 37 30.0000000  0  7G 4G13G 9G20G24G12G 5
  -9855568.92644  -7679657.38844  21262031.9464   21262031.2644
    703400.781 4    548107.339 4  22065064.714    22065063.757
  -7719292.38744  -6015031.09544  21801376.2764   21801376.6624
  -4685189.99144  -3650795.40044  23488835.8354   23488835.8634
 -21519417.87444 -16768363.82544  20366247.8704   20366247.8234
 -17394250.435 4 -13553956.052 4  20847803.519    20847802.385
 -21646863.55844 -16867675.44344  20937526.8494   20937526.5804
 94  4  6  1 38  0.0000000  0  7G 4G 9G13G20G24G12G 5
  -9795283.29244  -7632681.56544  21273503.9984   21273503.2074
  -7653322.02944  -5963625.63044  21813930.2004   21813930.0204
    766640.919 4    597385.362 4  22077098.954    22077097.996
  -4781728.56344  -3726020.24344  23470465.0624   23470464.9074
 -21521940.67044 -16770329.62544  20365767.7964   20365767.7154
 -17362905.648 4 -13529531.549 4  20853768.207    20853767.089
 -21702633.94744 -16911132.87344  20926914.1734   20926913.9534
 94  4  6  1 38 30.0000000  0  7G 4G 9G13G20G24G12G 5
  -9734583.43544  -7585382.97744  21285054.8414   21285054.0334
  -7586932.68444  -5911893.69244  21826563.8884   21826563.6494
    829945.699 4    646713.756 4  22089145.469    22089144.510
  -4878211.22244  -3801201.46944  23452104.9594   23452107.4364
 -21523933.55044 -16771882.50644  20365388.4914   20365388.3094
 -17330990.747 4 -13504662.797 4  20859841.387    20859840.317
 -21758117.51044 -16954366.80744  20916355.7504   20916355.5384
 94  4  6  1 39  0.0000000  0  7G 4G 9G13G20G24G12G 5
  -9673495.84444  -7537782.26144  21296679.4234   21296678.5954
  -7520158.92244  -5859862.21144  21839270.3054   21839270.2124
    893295.098 4    696076.922 4  22101200.394    22101199.487
  -4974654.49844  -3876352.04744  23433752.3424   23433753.9764
 -21525425.18044 -16773044.80444  20365104.6204   20365104.3744
 -17298524.792 4 -13479364.654 4  20866019.436    20866018.392
 -21813325.90844 -16997386.32444  20905850.0824   20905849.7744
 94  4  6  1 39 30.0000000  0  7G 4G 9G13G20G24G12G 5
  -9612034.79144  -7489890.53344  21308375.0144   21308374.4094
  -7453019.01244  -5807545.42444  21852046.4834   21852046.2754
    956687.205 4    745473.365 4  22113263.596    22113262.624
  -5071056.72344  -3951470.64544  23415407.2074   23415408.8634
 -21526434.60544 -16773831.35444  20364912.5564   20364912.3984
 -17265509.118 4 -13453638.160 4  20872302.121    20872301.042
 -21868241.64944 -17040177.79844  20895400.0884   20895399.6754
 94  4  6  1 40  0.0000000  0  7G 4G 9G13G20G24G12G 5
  -9550214.19044  -7441718.64144  21320139.1104   21320138.3834
  -7385522.13244  -5754950.46744  21864890.7494   21864890.8644
   1020126.446 4    794906.534 4  22125335.650    22125334.714
  -5167409.68444  -4026550.84344  23397071.5244   23397072.5494
 -21526967.82744 -16774246.83844  20364811.0444   20364811.0154
 -17231938.627 4 -13427479.342 4  20878690.415    20878689.277
 -21922852.49344 -17082731.69244  20885007.9844   20885007.4014
 94  4  6  1 40 30.0000000  0  7G 4G13G 9G20G24G12G 5
  -9488030.12744  -7393263.53144  21331972.4654   21331971.4484
   1083627.879 4    844388.168 4  22137419.538    22137418.635
  -7317671.45244  -5702079.82144  21877802.3864   21877802.3494
  -5263694.94844  -4101578.28144  23378749.2274   23378750.0864
 -21527001.10944 -16774272.76244  20364804.7374   20364804.6614
 -17197797.610 4 -13400875.959 4  20885187.190    20885186.108
 -21977154.87044 -17125045.21944  20874674.6334   20874673.9924
 94  4  6  1 41  0.0000000  0  7G 4G13G 9G20G24G12G 5
  -9425476.91044  -7344520.76744  21343875.8534   21343874.9724
   1147213.218 4    893935.181 4  22149519.417    22149518.536
  -7249457.25744  -5648925.91044  21890783.2084   21890783.2514
  -5359887.38944  -4176533.38044  23360444.7364   23360444.8104
 -21526501.13444 -16773883.16244  20364899.8854   20364899.8534
 -17163063.765 4 -13373810.633 4  20891796.855    20891795.815
 -22031135.32044 -17167107.89544  20864402.4084   20864401.9534
 94  4  6  1 41 30.0000000  0  7G 4G13G 9G20G24G12G 5
  -9362543.56344  -7295481.80044  21355851.7394   21355851.0524
   1210901.594 4    943562.483 4  22161638.859    22161638.078
  -7180850.52544  -5595466.13744  21903838.6954   21903838.7984
  -5455964.41344  -4251398.56944  23342162.0894   23342161.7054
 -21525440.54844 -16773056.72244  20365101.7584   20365101.8554
 -17127717.564 4 -13346268.142 4  20898523.075    20898521.966
 -22084775.70544 -17208905.58944  20854195.0934   20854194.6824
 94  4  6  1 42  0.0000000  0  7G 4G13G 9G20G24G12G 5
  -9299218.73044  -7246137.77544  21367902.0344   21367901.2764
   1274702.366 4    993277.361 4  22173779.718    22173778.968
  -7111830.55244  -5541684.35644  21916972.7694   21916972.6154
  -5551913.02644  -4326163.69144  23323903.5874   23323904.1494
 -21523814.41444 -16771789.59744  20365411.1284   20365411.1274
 -17091748.977 4 -13318240.675 4  20905367.671    20905366.460
 -22138071.77444 -17250434.98444  20844053.1024   20844052.8324
 94  4  6  1 42 30.0000000  0  7G 4G13G 9G20G24G12G 5
  -9235493.92944  -7196482.07944  21380028.5254   21380027.5304
   1338614.360 4   1043078.908 4  22185941.857    22185941.043
  -7042388.24244  -5487573.48344  21930187.1174   21930187.2824
  -5647731.04744  -4400827.06144  23305670.3614   23305670.7244
 -21521630.80644 -16770088.07644  20365826.6884   20365826.4944
 -17055158.797 4 -13289728.854 4  20912330.564    20912329.321
 -22191020.05244 -17291693.37344  20833977.2364   20833976.7894
 94  4  6  1 43  0.0000000  0  7G 4G 9G13G20G24G12G 5
  -9171356.84444  -7146505.14544  21392233.3654   21392232.4644
  -6972521.26244  -5433131.70844  21943482.4774   21943482.3364
   1402638.967 4   1092968.206 4  22198125.314    22198124.553
  -5743413.55444  -4475384.82744  23287462.6414   23287463.5204
 -21518902.07844 -16767961.78944  20366345.8874   20366345.8534
 -17017945.151 4 -13260731.212 4  20919412.054    20919410.937
 -22243597.99344 -17332663.18744  20823972.0834   20823971.6464
 94  4  6  1 43 30.0000000  0  7G 4G13G 9G20G24G12G 5
  -9106813.80344  -7096211.86844  21404515.6294   21404514.6844
   1466746.990 4   1142922.499 4  22210324.752    22210323.916
  -6902238.23544  -5378365.74544  21956856.9894   21956856.8794
  -5838986.16944  -4549856.96444  23269275.6524   23269275.4994
 -21515662.44144 -16765437.38844  20366962.3764   20366962.2464
 -16980136.939 4 -13231270.273 4  20926606.653    20926605.551
 -22295825.00744 -17373359.55344  20814033.6714   20814033.0634
 94  4  6  1 44  0.0000000  0  7G 4G13G 9G20G24G12G 5
  -9041865.40044  -7045602.72944  21416874.8594   21416873.8814
   1530921.076 4   1192928.269 4  22222536.728    22222535.842
  -6831558.79744  -5323290.88044  21970306.8394   21970306.8274
  -5934462.82744  -4624254.32944  23251106.7784   23251106.4464
 -21511927.52444 -16762527.05744  20367673.0794   20367672.9844
 -16941751.021 4 -13201359.176 4  20933911.272    20933910.168
 -22347714.93844 -17413793.25444  20804159.2474   20804158.7414
 94  4  6  1 44 30.0000000  0  7G 4G13G 9G20G24G12G 5
  -8976529.00544  -6994691.25244  21429307.9194   21429307.2794
   1595144.908 4   1242972.802 4  22234758.142    22234757.274
  -6760506.24244  -5267925.27744  21983827.7274   21983827.1854
  -6029856.37244  -4698586.92644  23232954.1234   23232953.8874
 -21507700.36144 -16759233.15944  20368477.4904   20368477.4524
 -16902803.331 4 -13171010.337 4  20941322.791    20941321.708
 -22399271.76444 -17453967.39244  20794348.2954   20794347.9454
 94  4  6  1 45  0.0000000  0  7G 4G13G 9G20G24G12G 5
  -8910826.35344  -6943494.38744  21441810.7824   21441809.9554
   1659401.987 4   1293043.248 4  22246985.874    22246984.946
  -6689102.33344  -5212285.88844  21997415.4634   21997415.1154
  -6125179.71044  -4772864.82444  23214814.7754   23214814.8634
 -21502988.85444 -16755561.84944  20369374.0724   20369373.9244
 -16863310.227 4 -13140236.501 4  20948838.113    20948836.978
 -22450506.72644 -17493890.72544  20784598.5194   20784598.2784
 94  4  6  1 45 30.0000000  0  7G 4G13G 9G20G24G12G 5
  -8844764.13144  -6892017.33444  21454382.0844   21454381.2634
   1723689.381 4   1343137.316 4  22259219.348    22259218.350
  -6617353.34544  -5156377.59644  22011068.7534   22011068.7424
  -6220432.46044  -4847087.74344  23196688.6654   23196689.2584
 -21497788.46344 -16751509.58944  20370363.8184   20370363.5174
 -16823274.323 4 -13109039.703 4  20956456.689    20956455.555
 -22501429.26444 -17533570.61544  20774908.3784   20774907.9264
 94  4  6  1 46  0.0000000  0  7G 4G13G 9G20G24G12G 5
  -8778357.70344  -6840272.06544  21467018.6994   21467017.7794
   1788006.530 4   1393254.570 4  22271458.457    22271457.437
  -6545286.84244  -5100221.88544  22024782.3604   22024782.6984
  -6315611.71944  -4921253.36144  23178576.4764   23178576.2364
 -21492098.69344 -16747075.99544  20371446.3714   20371446.0294
 -16782696.063 4 -13077420.285 4  20964178.529    20964177.393
 -22552032.62644 -17573001.79244  20765278.9014   20765278.5034
 94  4  6  1 46 30.0000000  0  7G 4G13G 9G20G24G12G 5
  -8711605.74944  -6788257.55844  21479721.0264   21479720.2004
   1852368.969 4   1443407.115 4  22283706.270    22283705.168
  -6472896.11544  -5043813.53644  22038557.8224   22038558.5504
  -6410698.12844  -4995346.65344  23160481.6804   23160482.5384
 -21485906.30644 -16742250.74844  20372624.7804   20372624.5574
 -16741559.566 4 -13045365.881 4  20972006.545    20972005.427
 -22602292.36844 -17612165.21544  20755714.8004   20755714.2334
 94  4  6  1 47  0.0000000  0  7G 4G13G 9G20G24G 5G12
  -8644510.96544  -6735975.90844  21492488.8644   21492487.7624
   1916776.510 4   1493594.801 4  22295962.631    22295961.477
  -6400182.40244  -4987153.52544  22052394.9494   22052395.5764
  -6505688.86844  -5069365.39444  23142405.6824   23142406.5814
 -21479209.56944 -16737032.50144  20373899.1734   20373898.9064
 -22652224.79744 -17651073.59044  20746212.9254   20746212.4894
 -16699864.993 4 -13012876.614 4  20979940.748    20979939.663
 94  4  6  1 47 30.0000000  0  7G12G 4G13G 9G20G24G 5
 -16657579.176 4 -12979926.637 4  20987987.446    20987986.459
  -8577038.68744  -6683400.10744  21505328.4854   21505327.3664
   1981262.266 4   1543843.432 4  22308233.875    22308232.694
  -6327103.86744  -4930209.23944  22066301.6274   22066302.0194
  -6600547.28644  -5143281.00644  23124354.7194   23124355.4684
 -21471978.25844 -16731397.70744  20375275.0724   20375275.0364
 -22701795.78344 -17689700.32144  20736779.8694   20736779.5104
 94  4  6  1 48  0.0000000  0  7G12G 4G13G 9G20G24G 5
 -16614716.363 4 -12946527.051 4  20996143.965    20996142.971
  -8509203.32244  -6630541.38344  21518237.1074   21518236.3694
   2045811.697 4   1594141.682 4  22320517.163    22320516.023
  -6253671.69344  -4872989.39544  22080275.3204   22080275.6014
  -6695284.36944  -5217102.09644  23106326.7344   23106327.8004
 -21464233.99244 -16725363.20844  20376748.7954   20376748.7244
 -22751012.53244 -17728051.02344  20727414.2234   20727413.9624
 94  4  6  1 48 30.0000000  0  7G12G 4G13G 9G20G24G 5
 -16571271.299 4 -12912673.767 4  21004411.314    21004410.263
  -8440994.90344  -6577391.97044  21531216.8514   21531215.8154
   2110430.259 4   1644493.803 4  22332813.606    22332812.541
  -6179872.32544  -4815483.42344  22094318.9514   22094319.1254
  -6789891.14844  -5290821.64644  23088323.4074   23088324.9524
 -21455971.01544 -16718924.51944  20378321.1944   20378321.0684
 -22799864.27744 -17766117.31244  20718118.0664   20718117.7094
 94  4  6  1 49  0.0000000  0  7G12G 4G13G 9G20G24G 5
 -16527267.244 4 -12878384.905 4  21012785.016    21012783.948
  -8372432.42744  -6523966.67144  21544263.8404   21544262.7384
   2175094.513 4   1694881.523 4  22345118.800    22345117.719
  -6105724.04644  -4757705.56144  22108428.9474   22108428.6094
  -6884387.68144  -5364455.27244  23070341.3184   23070343.0794
 -21447200.16444 -16712090.08744  20379990.2174   20379990.1334
 -22848367.46844 -17803911.99744  20708888.2754   20708887.8644
 94  4  6  1 49 30.0000000  0  7G12G 4G13G 9G20G24G 5
 -16482707.099 4 -12843662.724 4  21021264.534    21021263.458
  -8303508.82844  -6470259.97944  21557379.6604   21557378.5434
   2239801.744 4   1745302.725 4  22357432.143    22357431.226
  -6031234.59844  -4699661.85844  22122603.8494   22122603.9174
  -6978773.28344  -5438002.45844  23052380.2154   23052381.2464
 -21437931.72244 -16704867.91844  20381753.9314   20381753.7524
 -22896506.22544 -17841422.70944  20699727.7874   20699727.2894
 94  4  6  1 50  0.0000000  0  7G12G 4G13G 9G20G24G 5
 -16437582.683 4 -12808500.845 4  21029851.397    21029850.367
  -8234221.21244  -6416269.63844  21570564.5574   21570563.5804
   2304560.028 4   1795763.713 4  22369755.197    22369754.425
  -5956410.90944  -4641357.70444  22136842.1364   22136842.4764
  -7073036.23944  -5511454.08744  23034442.5424   23034444.8514
 -21428151.46044 -16697246.93244  20383615.0494   20383614.9634
 -22944271.84744 -17878642.66844  20690638.1964   20690637.5394
 94  4  6  1 50 30.0000000  0  7G12G 4G13G 9G20G24G 5
 -16391906.172 4 -12772908.768 4  21038543.407    21038542.330
  -8164589.02244  -6362010.79944  21583815.0764   21583814.3134
   2369357.533 4   1846255.264 4  22382085.804    22382085.029
  -5881269.44344  -4582805.93144  22151141.1304   22151141.0884
  -7167185.00344  -5584816.74044  23016526.7254   23016527.7644
 -21417866.72144 -16689232.84744  20385572.2394   20385572.1254
 -22991676.28344 -17915581.18544  20681617.3674   20681616.7364
 94  4  6  1 51  0.0000000  0  7G12G 4G13G 9G20G24G 5
 -16345667.222 4 -12736878.429 4  21047342.399    21047341.345
  -8094608.95044  -6307480.87444  21597131.7854   21597130.9904
   2434204.519 4   1896785.373 4  22394425.825    22394425.037
  -5805799.73544  -4523998.38744  22165502.6314   22165502.7094
  -7261206.03644  -5658079.84544  22998635.2864   22998637.4684
 -21407085.07644 -16680831.56344  20387623.8654   20387623.7114
 -23038720.80444 -17952239.24844  20672665.1384   20672664.6964
 94  4  6  1 51 30.0000000  0  7G12G 4G13G 9G20G24G 5
 -16298867.770 4 -12700411.335 4  21056248.036    21056247.012
  -8024292.09944  -6252688.53444  21610512.7254   21610511.8694
   2499099.298 4   1947352.728 4  22406774.873    22406774.075
  -5729998.31944  -4464932.37444  22179927.3084   22179927.4034
  -7355097.39544  -5731241.92644  22980768.4074   22980769.2834
 -21395828.10644 -16672059.89544  20389765.8924   20389765.6664
 -23085414.37044 -17988623.83944  20663779.7334   20663779.1884
 94  4  6  1 52  0.0000000  0  7G12G 4G13G 9G20G24G 5
 -16251503.580 4 -12663504.187 4  21065261.147    21065260.109
  -7953656.91044  -6197648.13144  21623954.0724   21623953.2644
   2564046.176 4   1997960.676 4  22419133.948    22419133.063
  -5653861.54244  -4405605.03444  22194415.5664   22194415.6644
  -7448851.17544  -5804296.78744  22962927.7174   22962928.6574
 -21384087.60344 -16662911.44844  20392000.1264   20391999.9354
 -23131751.72044 -18024730.86144  20654961.9844   20654961.4314
 94  4  6  1 52 30.0000000  0  7G12G 4G13G 9G20G24G 5
 -16203575.656 4 -12626157.765 4  21074381.523    21074380.432
  -7882704.65944  -6142360.66644  21637455.7384   21637454.6904
   2629044.599 4   2048608.792 4  22431502.814    22431501.860
  -5577382.59944  -4346011.07644  22208968.8844   22208969.3434
  -7542464.49944  -5877242.21844  22945113.8234   22945114.8254
 -21371866.44144 -16653388.46144  20394325.6984   20394325.5184
 -23177720.36644 -18060550.58144  20646214.3784   20646213.9464
 94  4  6  1 53  0.0000000  0  7G12G 4G13G 9G20G 5G24
 -16155091.776 4 -12588378.128 4  21083607.694    21083606.547
  -7811439.20244  -6086829.14544  21651017.0674   21651016.1894
   2694086.905 4   2099291.101 4  22443879.918    22443879.049
  -5500565.49344  -4286153.60044  22223586.4094   22223586.8034
  -7635941.51544  -5950081.42544  22927325.6784   22927326.6134
 -23223317.20444 -18096080.58044  20637537.5124   20637537.1624
 -21359160.95444 -16643488.07744  20396743.5384   20396743.3084
 94  4  6  1 53 30.0000000  0  7G12G 4G13G 9G20G 5G24
 -16106042.973 4 -12550158.292 4  21092941.373    21092940.234
  -7739843.03144  -6031039.92244  21664641.5394   21664640.4144
   2759182.496 4   2150014.933 4  22456267.171    22456266.324
  -5423417.28444  -4226038.13044  22238267.3364   22238267.4854
  -7729269.62644  -6022804.61544  22909565.9094   22909566.5384
 -23268510.35944 -18131296.01844  20628937.4664   20628937.0544
 -21345939.09044 -16633185.32144  20399259.6294   20399259.4714
 94  4  6  1 54  0.0000000  0  7G12G 4G13G 9G20G 5G24
 -16056452.582 4 -12511516.435 4  21102378.152    21102377.022
  -7667924.27544  -5974999.33844  21678327.2914   21678326.1894
   2824308.338 4   2200762.339 4  22468660.249    22468659.388
  -5345975.35144  -4165693.79344  22253004.1874   22253004.4764
  -7822468.46844  -6095427.06444  22891830.7454   22891832.2114
 -23313306.94744 -18166202.44544  20620413.0184   20620412.6734
 -21332221.80044 -16622496.51744  20401869.8864   20401869.8804
 94  4  6  1 54 30.0000000  0  7G12G 4G13G 9G20G 5G24
 -16006320.728 4 -12472452.662 4  21111917.956    21111916.779
  -7595668.12044  -5918695.84544  21692077.0364   21692075.9024
   2889464.675 4   2251533.508 4  22481059.080    22481058.297
  -5268234.62844  -4105116.63944  22267797.6614   22267797.6894
  -7915534.42644  -6167945.96344  22874120.6794   22874121.0034
 -23357711.92344 -18200803.72144  20611962.9884   20611962.7774
 -21318008.67944 -16611421.35144  20404574.4834   20404574.4334
 94  4  6  1 55  0.0000000  0  7G12G 4G13G 9G20G 5G24
 -15955635.982 4 -12432958.066 4  21121563.019    21121561.840
  -7523064.67544  -5862121.73644  21705893.0154   21705891.9774
   2954663.399 4   2302337.702 4  22493465.964    22493465.230
  -5190187.40144  -4044300.64644  22282649.7284   22282649.5234
  -8008452.28944  -6240349.49144  22856438.8564   22856440.2504
 -23401717.60444 -18235093.85644  20603588.9424   20603588.6464
 -21303292.00944 -16599953.80944  20407375.0514   20407374.9354
 94  4  6  1 55 30.0000000  0  7G12G 4G13G 9G20G 5G24
 -15904397.937 4 -12393032.330 4  21131313.236    21131312.171
  -7450117.38144  -5805279.69444  21719774.5844   21719773.3304
   3019905.390 4   2353175.609 4  22505881.109    22505880.351
  -5111826.04644  -3983239.88144  22297561.2664   22297561.5984
  -8101217.56144  -6312634.08544  22838786.2604   22838786.2634
 -23445330.77744 -18269078.14144  20595289.7314   20595289.2504
 -21288084.61144 -16588103.88244  20410268.9544   20410268.6934
 94  4  6  1 56  0.0000000  0  7G12G 4G13G 9G20G 5G24
 -15852604.127 4 -12352673.529 4  21141169.267    21141168.215
  -7376832.68844  -5748174.74144  21733720.0754   21733719.1184
   3085193.517 4   2404049.468 4  22518304.982    22518304.237
  -5033124.16044  -3921913.75944  22312537.5094   22312537.9784
  -8193823.91344  -6384794.86944  22821163.9564   22821163.6164
 -23488563.34844 -18302765.85344  20587062.5264   20587062.4114
 -21272385.00444 -16575870.41444  20413256.2114   20413256.0734
 94  4  6  1 56 30.0000000  0  7G12G 4G13G 9G20G 5G24
 -15800262.691 4 -12311888.006 4  21151129.519    21151128.453
  -7303237.24944  -5690827.65744  21747724.7034   21747723.6424
   3150520.142 4   2454953.321 4  22530736.094    22530735.413
  -4954083.60744  -3860323.72744  22327578.5444   22327579.1564
  -8286275.54644  -6456835.08744  22803571.2214   22803571.4114
 -23531425.68344 -18336165.06944  20578906.1754   20578905.9274
 -21256187.33844 -16563248.85044  20416338.5814   20416338.6884
 94  4  6  1 57  0.0000000  0  7G12G 4G13G 9G20G 5G24
 -15747386.647 4 -12270685.908 4  21161191.538    21161190.451
  -7229339.44144  -5633244.95544  21761787.0184   21761786.0754
   3215872.721 4   2505877.402 4  22543172.211    22543171.536
  -4874714.66944  -3798477.81744  22342682.0184   22342682.4684
  -8378581.54844  -6528761.81444  22786006.4154   22786006.1684
 -23573914.19044 -18369272.99544  20570820.9704   20570820.8334
 -21239514.71044 -16550257.18644  20419511.4274   20419511.2544
 94  4  6  1 57 30.0000000  0  7G12G 4G13G 9G20G 5G24
 -15693988.316 4 -12229076.840 4  21171352.884    21171351.890
  -7155152.18344  -5575436.71144  21775904.3344   21775903.5564
   3281239.649 4   2556812.663 4  22555611.123    22555610.403
  -4795036.74344  -3736391.14344  22357844.2994   22357844.8974
  -8470750.35244  -6600581.64644  22768467.0874   22768466.7614
 -23616037.02044 -18402095.97744  20562805.3264   20562805.0414
 -21222379.24044 -16536904.86844  20422772.2204   20422772.0864
 94  4  6  1 58  0.0000000  0  7G12G 4G13G 9G20G 5G24
 -15640075.585 4 -12187066.941 4  21181612.163    21181611.143
  -7080686.18444  -5517411.25944  21790074.8074   21790074.2964
   3346613.733 4   2607753.498 4  22568051.386    22568050.689
  -4715079.88644  -3674087.12244  22373059.6234   22373060.6854
  -8562785.83544  -6672297.58644  22750952.8814   22750953.1354
 -23657791.33144 -18434631.80144  20554859.7894   20554859.4064
 -21204780.29644 -16523191.39944  20426121.0784   20426121.0334
 94  4  6  1 58 30.0000000  0  7G12G 4G13G 9G20G 5G24
 -15585642.551 4 -12144651.609 4  21191970.442    21191969.369
  -7005933.09744  -5459162.10244  21804299.8594   21804299.1684
   3412001.322 4   2658704.856 4  22580494.330    22580493.564
  -4634864.15244  -3611581.39244  22388323.9124   22388324.2014
  -8654677.97844  -6743901.83744  22733466.1274   22733466.5934
 -23699163.59344 -18466869.92444  20546986.6774   20546986.2344
 -21186720.63844 -16509118.93444  20429557.7574   20429557.6834
 94  4  6  1 59  0.0000000  0  7G12G 4G13G 9G20G 5G24
 -15530690.561 4 -12101831.890 4  21202427.482    21202426.310
  -6930888.12144  -5400685.50544  21818580.4594   21818579.9214
   3477401.813 4   2709666.267 4  22592939.575    22592938.915
  -4554400.73044  -3548882.64944  22403635.6634   22403636.0894
  -8746423.98244  -6815392.20744  22716007.2914   22716007.4224
 -23740154.93644 -18498811.23044  20539186.3934   20539185.9804
 -21168204.86444 -16494691.05744  20433081.2184   20433081.0654
 94  4  6  1 59 30.0000000  0  7G12G 4G13G 9G20G 5G24
 -15475218.776 4 -12058607.132 4  21212983.399    21212982.221
  -6855559.30544  -5341987.72844  21832914.9954   21832914.2584
   3542816.915 4   2760639.068 4  22605387.691    22605387.011
  -4473706.12944  -3486003.77144  22418991.3534   22418991.4784
  -8838018.82144  -6886764.79344  22698577.3794   22698577.1734
 -23780777.22644 -18530464.96144  20531456.4514   20531456.0064
 -21149218.71244 -16479896.65444  20436693.9504   20436693.9514
 94  4  6  2  0  0.0000000  0  7G12G 4G13G 9G20G 5G24
 -15419195.281 4 -12014952.470 4  21223644.336    21223643.151
  -6779906.05844  -5283037.14944  21847311.3554   21847310.6624
   3608279.079 4   2811648.536 4  22617844.874    22617844.048
  -4392741.12844  -3422914.19844  22434398.7854   22434398.2454
  -8929426.52244  -6957991.54544  22681183.2104   22681183.8874
 -23820992.70944 -18561801.70144  20523803.7274   20523803.2914
 -21129730.71044 -16464711.19544  20440402.3614   20440402.3804
 94  4  6  2  0 30.0000000  0  7G12G 4G13G 9G20G 5G24
 -15362640.722 4 -11970883.998 4  21234406.296    21234405.180
  -6703948.21944  -5223849.22444  21861765.7154   21861764.7444
   3673768.625 4   2862679.345 4  22630307.164    22630306.292
  -4311516.91444  -3359622.63644  22449855.5984   22449855.1714
  -9020663.41844  -7029085.22544  22663821.5214   22663822.3144
 -23860811.11844 -18592829.03144  20516226.5894   20516226.0324
 -21109766.81344 -16449154.90944  20444201.6564   20444201.3324
 94  4  6  2  1  0.0000000  0  7G12G 4G13G 9G20G 5G24
 -15305550.992 4 -11926398.514 4  21245270.048    21245269.028
  -6627678.45444  -5164418.25344  21876279.3904   21876278.8934
   3739290.375 4   2913735.241 4  22642775.564    22642774.752
  -4230006.18244  -3296107.80544  22465366.4594   22465366.6744
  -9111721.59544  -7100039.62644  22646493.8344   22646494.6894
 -23900213.42544 -18623532.12944  20508728.4364   20508728.0164
 -21089322.84144 -16433224.54244  20448091.9524   20448091.8124
 94  4  6  2  1 30.0000000  0  7G12G 4G13G 9G20G 5G24
 -15247932.072 4 -11881500.674 4  21256234.581    21256233.595
  -6551106.43044  -5104751.74744  21890850.5534   21890849.9544
   3804839.181 4   2964812.224 4  22655249.103    22655248.246
  -4148208.82044  -3232369.61644  22480931.9604   22480932.6584
  -9202602.71844  -7170856.07344  22629199.6084   22629200.1404
 -23939188.40544 -18653902.24244  20501311.8134   20501311.2564
 -21068404.93744 -16416924.87844  20452072.2324   20452072.2494
 94  4  6  2  2  0.0000000  0  7G12G 4G13G 9G20G 5G24
 -15189785.106 4 -11836191.372 4  21267299.614    21267298.556
  -6474238.19344  -5044854.42944  21905478.0144   21905477.8964
   3870414.824 4   3015910.114 4  22667727.769    22667726.932
  -4066113.36144  -3168399.15244  22496553.8904   22496554.3394
  -9293303.67344  -7241532.11744  22611939.6994   22611940.7584
 -23977708.38644 -18683917.81344  20493981.6464   20493981.1714
 -21047018.27644 -16400259.94244  20456142.1014   20456142.1084
 94  4  6  2  2 30.0000000  0  7G12G 4G13G 9G20G 5G24
 -15131130.816 4 -11790486.748 4  21278461.153    21278460.092
  -6397100.58944  -4984747.21644  21920156.6404   21920156.3054
   3935997.391 4   3067013.409 4  22680207.742    22680206.904
  -3983740.22944  -3104212.31744  22512229.1964   22512229.4494
  -9383840.95244  -7312080.62444  22594711.1754   22594711.4574
 -24015799.60744 -18713599.28444  20486733.0914   20486732.6454
 -21025179.37744 -16383242.61744  20460297.9984   20460297.9224
 94  4  6  2  3  0.0000000  0  7G12G 4G13G 9G20G 5G24
 -15071959.640 4 -11744379.352 4  21289721.116    21289719.992
  -6319682.04044  -4924421.08244  21934888.9344   21934888.5374
   4001597.445 4   3118130.337 4  22692691.006    22692690.153
  -3901081.65044  -3039803.05644  22527958.6974   22527958.1284
  -9474200.63344  -7382490.74044  22577516.4584   22577517.3614
 -24053464.71444 -18742948.71644  20479565.6894   20479565.2464
 -21002869.65944 -16365858.41944  20464543.2574   20464543.2304
 94  4  6  2  3 30.0000000  0  7G12G 4G13G 9G20G 5G24
 -15012268.029 4 -11697866.426 4  21301080.082    21301078.912
  -6241984.77544  -4863877.77444  21949674.2734   21949673.6804
   4067219.407 4   3169264.326 4  22705178.415    22705177.580
  -3818155.71644  -2975185.48444  22543739.2274   22543738.3794
  -9564374.77244  -7452756.28444  22560356.9694   22560357.9394
 -24090713.19244 -18771973.50144  20472477.5904   20472477.0154
 -20980077.19644 -16348098.05744  20468880.4794   20468880.4084
 94  4  6  2  4  0.0000000  0  7G12G 4G13G 9G20G 5G24
 -14952060.440 4 -11650951.444 4  21312537.137    21312536.081
  -6164009.18844  -4803117.58444  21964512.5354   21964511.9034
   4132859.949 4   3220412.798 4  22717669.387    22717668.514
  -3734969.22944  -2910364.88244  22559569.0114   22559568.6874
  -9654363.66844  -7522877.48544  22543232.4534   22543233.1644
 -24127569.91244 -18800693.02344  20465463.9504   20465463.3354
 -20956808.07544 -16329966.27444  20473308.5304   20473308.5204
 94  4  6  2  4 30.0000000  0  7G12G 4G13G 9G20G 5G24
 -14891327.880 4 -11603627.394 4  21324094.157    21324093.138
  -6085741.22444  -4742129.57444  21979406.4084   21979405.4824
   4198529.277 4   3271583.701 4  22730165.730    22730164.866
  -3651528.25444  -2845345.96844  22575447.1934   22575447.4054
  -9744153.82544  -7592843.81944  22526145.7574   22526146.2564
 -24164046.52344 -18829116.35644  20458522.6474   20458522.1704
 -20933047.16344 -16311451.27744  20477830.1654   20477830.0654
 94  4  6  2  5  0.0000000  0  7G12G 4G13G 9G20G 5G24
 -14830081.168 4 -11555902.704 4  21335749.006    21335748.003
  -6007205.35844  -4680932.80844  21994351.1124   21994350.5594
   4264217.321 4   3322769.184 4  22742665.713    22742664.858
  -3567856.97244  -2780147.59444  22591369.1634   22591369.8274
  -9833751.84544  -7662660.43444  22509095.7194   22509097.2554
 -24200139.82144 -18857241.00644  20451654.4654   20451653.9594
 -20908803.19644 -16292559.87244  20482443.6264   20482443.3984
 94  4  6  2  5 30.0000000  0  7G12G 4G13G 9G20G 5G24
 -14768323.402 4 -11507779.790 4  21347501.229    21347500.103
  -5928409.10844  -4619533.14144  22009345.6024   22009345.3024
   4329922.255 4   3373967.831 4  22755168.986    22755168.077
  -3483952.20144  -2714767.27144  22607335.5324   22607336.8224
  -9923156.25344  -7732326.20444  22492082.6164   22492083.4484
 -24235833.38444 -18885054.17144  20444862.0274   20444861.8554
 -20884095.30444 -16273306.96844  20487145.3484   20487145.0894
 94  4  6  2  6  0.0000000  0  7G12G 4G13G 9G20G 5G24
 -14706048.606 4 -11459253.995 4  21359351.844    21359350.630
  -5849348.53844  -4557927.51444  22024390.4284   22024389.8984
   4395651.202 4   3425185.191 4  22767676.741    22767675.914
  -3399793.82144  -2649189.32944  22623350.5834   22623352.0724
 -10012356.40644  -7801832.80944  22475108.2894   22475108.1884
 -24271098.74044 -18912533.66744  20438151.2154   20438150.8624
 -20858928.23344 -16253696.26244  20491934.4404   20491934.3014
 94  4  6  2  6 30.0000000  0  7G12G 4G13G 9G20G 5G24
 -14643259.440 4 -11410327.391 4  21371300.266    21371299.029
  -5770029.35244  -4496120.36044  22039484.4934   22039483.8134
   4461402.481 4   3476419.949 4  22780188.765    22780187.902
  -3315377.63644  -2583410.51444  22639414.7244   22639416.0244
 -10101350.50944  -7871178.83744  22458173.2494   22458173.5274
 -24305905.23544 -18939655.60844  20431527.6224   20431527.1794
 -20833301.65744 -16233727.49944  20496811.1374   20496810.8484
 94  4  6  2  7  0.0000000  0  7G12G 4G13G 9G20G 5G24
 -14579969.975 4 -11361010.941 4  21383343.841    21383342.668
  -5690456.00944  -4434115.17244  22054626.7164   22054626.3434
   4527163.319 4   3527662.150 4  22792702.749    22792701.801
  -3230704.68644  -2517431.62044  22655527.5624   22655528.2214
 -10190148.26244  -7940371.87844  22441275.6534   22441276.5574
 -24340242.21844 -18966411.69944  20424993.5884   20424993.0284
 -20807234.94644 -16213415.77844  20501771.5584   20501771.2974
 94  4  6  2  7 30.0000000  0  7G12G 4G13G 9G20G 5G24
 -14516186.801 4 -11311309.784 4  21395481.431    21395480.253
  -5610610.15744  -4371897.63044  22069820.8304   22069820.2134
   4592928.368 4   3578907.634 4  22805217.356    22805216.550
  -3145768.23144  -2451247.39344  22671690.4174   22671690.9814
 -10278751.60044  -8009413.42644  22424415.1594   22424415.2034
 -24374118.71444 -18992808.96744  20418547.1434   20418546.6924
 -20780736.56744 -16192767.69144  20506814.0194   20506813.9754
 94  4  6  2  8  0.0000000  0  7G12G 4G13G 9G20G 5G24
 -14451906.973 4 -11261221.624 4  21407713.373    21407712.247
  -5530476.32444  -4309455.67944  22085069.7784   22085069.0884
   4658701.934 4   3630159.753 4  22817733.732    22817732.891
  -3060569.70544  -2384858.96444  22687902.9054   22687903.3504
 -10367152.79644  -8078297.46344  22407592.8174   22407592.6944
 -24407539.37844 -19018851.04244  20412187.4014   20412186.9384
 -20753798.77244 -16171777.20044  20511940.0064   20511940.0944
 94  4  6  2  8 30.0000000  0  7G12G 4G13G 9G20G 5G24
 -14387141.684 4 -11210755.186 4  21420037.769    21420036.664
  -5450064.99744  -4246797.50444  22100371.5954   22100371.5984
   4724473.921 4   3681410.647 4  22830249.745    22830248.960
  -2975132.37144  -2318284.45144  22704160.7234   22704161.1944
 -10455358.99444  -8147029.55244  22390807.7294   22390807.8634
 -24440522.66444 -19044552.30244  20405910.9104   20405910.4044
 -20726422.34644 -16150444.92144  20517149.5004   20517149.6094
 94  4  6  2  9  0.0000000  0  7G12G 4G13G 9G20G 5G24
 -14321903.517 4 -11159920.274 4  21432452.153    21432451.062
  -5369390.82244  -4183934.51244  22115723.5154   22115723.2744
   4790233.143 4   3732651.593 4  22842763.366    22842762.473
  -2889477.61144  -2251540.53044  22720460.5284   22720461.3034
 -10543377.97444  -8215615.75644  22374058.3564   22374058.7904
 -24473099.55444 -19069936.89244  20399711.7924   20399711.1874
 -20698629.63444 -16128788.26644  20522438.2214   20522438.0664
 94  4  6  2  9 30.0000000  0  7G12G 4G13G 9G20G 5G24
 -14256199.559 4 -11108722.409 4  21444955.239    21444954.160
  -5288476.99544  -4120884.78044  22131120.8244   22131120.6124
   4855973.801 4   3783878.072 4  22855273.365    22855272.517
  -2803615.87544  -2184635.31944  22736799.8044   22736799.9834
 -10631212.05744  -8284057.89144  22357344.2464   22357345.1444
 -24505285.07444 -19095016.51944  20393587.1844   20393586.4984
 -20670430.37344 -16106814.82044  20527804.4494   20527804.4024
 94  4  6  2 10  0.0000000  0  7G12G 4G13G 9G20G 5G24
 -14190018.975 4 -11057153.152 4  21457549.071    21457547.980
  -5207342.61744  -4057663.19344  22146560.1884   22146560.0104
   4921708.173 4   3835099.648 4  22867782.253    22867781.362
  -2717547.49644  -2117569.08344  22753178.3904   22753178.2164
 -10718845.97744  -8352344.05944  22340667.8464   22340668.5934
 -24537056.48344 -19119773.46344  20387541.1834   20387540.6664
 -20641813.13144 -16084515.67344  20533250.1274   20533250.0604
 94  4  6  2 10 30.0000000  0  7G12G 4G20G13G 9G 5G24
 -14123370.334 4 -11005219.173 4  21470231.983    21470230.895
  -5126005.58244  -3994283.69644  22162038.1204   22162037.6544
 -10806283.60144  -8420477.25944  22324028.9324   22324029.5394
   4987429.083 4   3886310.739 4  22880288.462    22880287.616
  -2631302.81444  -2050365.46944  22769590.4634   22769590.5764
 -24568418.64444 -19144211.50844  20381573.1144   20381572.6694
 -20612771.72244 -16061886.00844  20538776.5364   20538776.4884
 94  4  6  2 11  0.0000000  0  7G12G 4G20G13G 9G 5G24
 -14056246.911 4 -10952915.229 4  21483005.210    21483004.122
  -5044453.52344  -3930736.64344  22177557.0114   22177556.1764
 -10893513.64744  -8488448.70744  22307429.6694   22307429.8364
   5053144.512 4   3937517.556 4  22892793.803    22892792.792
  -2544876.43444  -1983020.27044  22786036.9904   22786036.7874
 -24599358.61244 -19168320.57444  20375685.5034   20375684.8064
 -20583299.45244 -16038920.60844  20544384.8194   20544384.7654
 94  4  6  2 11 30.0000000  0  7G12G 4G20G13G 9G 5G24
 -13988640.354 4 -10900234.814 4  21495870.348    21495869.104
  -4962678.70644  -3867016.01044  22193118.3014   22193117.3054
 -10980522.97744  -8556248.17944  22290872.3514   22290872.5544
   5118864.529 4   3988727.952 4  22905299.934    22905298.917
  -2458257.10844  -1915524.71744  22802519.9254   22802520.1994
 -24629854.29944 -19192083.44744  20369882.3584   20369881.9234
 -20553377.09044 -16015604.48644  20550078.8974   20550078.8064
 94  4  6  2 12  0.0000000  0  7G12G 4G20G13G 9G 5G24
 -13920537.937 4 -10847168.015 4  21508829.771    21508828.535
  -4880666.15344  -3803110.13844  22208724.8244   22208724.5854
 -11067293.87144  -8623861.84844  22274360.3474   22274361.1144
   5184603.326 4   4039952.977 4  22917809.559    22917808.593
  -2371435.59244  -1847871.61944  22819041.1054   22819041.5014
 -24659880.26944 -19215480.30644  20364168.7744   20364168.1754
 -20522981.35944 -15991919.50444  20555862.9724   20555862.8374
 94  4  6  2 12 30.0000000  0  7G12G 4G20G13G 9G 5G24
 -13851931.429 4 -10793708.415 4  21521885.114    21521883.917
  -4798385.47644  -3738995.33344  22224382.2124   22224381.7454
 -11153813.54244  -8691279.75944  22257896.2854   22257896.4594
   5250370.510 4   4091200.127 4  22930324.438    22930323.644
  -2284392.70744  -1780046.02944  22835604.8664   22835604.8384
 -24689416.16944 -19238495.29344  20358548.1204   20358547.5974
 -20492094.93244 -15967852.16044  20561740.5144   20561740.2654
 94  4  6  2 13  0.0000000  0  7G12G 4G20G13G 9G 5G24
 -13782822.879 4 -10739857.617 4  21535036.090    21535034.779
  -4715845.54344  -3674678.51444  22240088.9144   22240088.7144
 -11240079.20644  -8758499.73644  22241480.5894   22241480.8364
   5316165.536 4   4142468.964 4  22942844.753    22942844.074
  -2197095.65544  -1712022.38644  22852217.4174   22852217.2024
 -24718447.62544 -19261117.20544  20353023.6194   20353023.1474
 -20460731.08644 -15943412.80244  20567708.9084   20567708.7824
 94  4  6  2 13 30.0000000  0  7G12G 4G20G13G 9G 5G24
 -13713241.650 4 -10685638.505 4  21548276.943    21548275.687
  -4633083.71444  -3610188.78844  22255837.9294   22255837.4884
 -11326115.28244  -8825540.81344  22225108.6034   22225109.1094
   5381960.654 4   4193737.879 4  22955365.133    22955364.507
  -2109565.59544  -1643817.18144  22868873.9214   22868873.8074
 -24747005.37644 -19283369.99744  20347589.2524   20347588.7274
 -20428922.26644 -15918626.71144  20573761.8524   20573761.5794
 94  4  6  2 14  0.0000000  0  7G12G 4G20G13G 9G 5G24
 -13643188.313 4 -10631051.516 4  21561607.694    21561606.494
  -4550083.83544  -3545513.55544  22271632.3604   22271632.0304
 -11411917.69844  -8892399.81144  22208780.9824   22208781.4534
   5447756.953 4   4245007.707 4  22967885.857    22967885.215
  -2021812.02344  -1575437.81744  22885572.6224   22885572.7894
 -24775094.84344 -19305257.89444  20342243.9074   20342243.4454
 -20396679.85244 -15893502.75544  20579897.4614   20579897.3264
 94  4  6  2 14 30.0000000  0  7G12G 4G20G13G 9G 5G24
 -13572651.966 4 -10576088.154 4  21575030.386    21575029.128
  -4466825.60244  -3480637.01944  22287475.9734   22287475.3904
 -11497470.54244  -8959064.34644  22192500.6384   22192500.6664
   5513567.074 4   4296288.306 4  22980409.181    22980408.532
  -1933823.98844  -1506875.75944  22902316.1434   22902316.3954
 -24802720.15344 -19326784.10744  20336987.0294   20336986.4524
 -20364007.63044 -15868043.88244  20586114.7484   20586114.5944
 94  4  6  2 15  0.0000000  0  7G12G 4G20G13G 9G 5G24
 -13501634.216 4 -10520749.674 4  21588544.598    21588543.349
  -4383316.26644  -3415564.81444  22303367.2664   22303366.8434
 -11582770.69044  -9025531.97244  22176268.5194   22176268.9664
   5579390.815 4   4347579.517 4  22992934.984    22992934.393
  -1845617.30044  -1438143.31444  22919100.9874   22919102.4304
 -24829913.54644 -19347973.76444  20331812.1874   20331811.6314
 -20330918.37544 -15842260.04744  20592411.3314   20592411.4264
 94  4  6  2 15 30.0000000  0  7G12G 4G20G13G 9G 5G24
 -13430458.211 4 -10465287.879 4  21602088.890    21602087.716
  -4299870.61144  -3350542.23044  22319246.2764   22319245.6004
 -11668136.12244  -9092050.46644  22160023.9324   22160024.2364
   5644906.981 4   4398631.058 4  23005402.447    23005401.632
  -1757542.19944  -1369513.39544  22935860.8864   22935861.7304
 -24857000.52244 -19369080.49644  20326657.7514   20326657.3074
 -20297738.37444 -15816405.49944  20598725.2914   20598725.1794
 94  4  6  2 16  0.0000000  0  7G12G 4G20G13G 9G 5G24
 -13359043.990 4 -10409640.461 4  21615678.520    21615677.476
  -4216408.13944  -3285506.55044  22335128.6434   22335128.4054
 -11753482.39044  -9158554.03044  22143783.1194   22143783.0734
   5710196.978 4   4449506.360 4  23017826.667    23017825.784
  -1669530.64844  -1300933.00544  22952608.8924   22952610.0854
 -24883879.94744 -19390025.50344  20321542.7454   20321542.3074
 -20264387.28344 -15790417.63744  20605071.8144   20605071.7384
 94  4  6  2 16 30.0000000  0  8G12G20G 4G13G 9G16G 5G24
 -13286570.982 4 -10353168.021 4  21629469.732    21629468.652
 -11837983.78544  -9224399.24644  22127703.1434   22127703.2734
  -4132128.45744  -3219834.08744  22351166.6384   22351165.6134
   5776083.294 4   4500846.327 4  23030364.493    23030363.505
  -1580756.86944  -1231758.67244  22969502.3044   22969503.5244
        -0.61554        -0.37854  23136664.6094   23136666.5894
 -24909716.56944 -19410157.93344  20316626.2444   20316625.8614
 -20230027.52844 -15763643.80344  20611610.1974   20611610.1094
 94  4  6  2 17  0.0000000  0  8G12G 4G20G13G 9G16G 5G24
 -13213599.857 4 -10296307.432 4  21643355.749    21643354.544
  -4047602.77844  -3153969.93844  22367251.2674   22367250.7004
 -11922195.93144  -9290019.07844  22111678.1214   22111677.6194
   5842007.158 4   4552215.561 4  23042909.565    23042908.327
  -1491785.70644  -1162430.53744  22986433.2144   22986433.4914
    -89299.87944    -69584.20044  23119671.7724   23119672.4964
 -24935049.31744 -19429897.73644  20311805.6614   20311805.0614
 -20195206.59244 -15736510.60644  20618236.4334   20618236.2944
 94  4  6  2 17 30.0000000  0  8G12G 4G20G13G 9G16G 5G24
 -13140213.661 4 -10239123.409 4  21657320.745    21657319.440
  -3962914.44544  -3087979.04444  22383366.9494   22383366.5904
 -12006197.31644  -9355474.67844  22095693.0104   22095693.1874
   5907887.028 4   4603550.518 4  23055446.098    23055444.842
  -1402695.26644  -1093009.46844  23003386.7114   23003387.3784
   -178451.24244   -139052.74944  23102707.1434   23102707.2534
 -24959925.29044 -19449281.61344  20307071.8034   20307071.3794
 -20160002.07444 -15709078.51244  20624935.7644   20624935.4524
 94  4  6  2 18  0.0000000  0  8G12G 4G20G13G 9G16G 5G24
 -13066411.326 4 -10181615.119 4  21671364.924    21671363.601
  -3878062.73844  -3021860.84844  22399513.7874   22399513.2254
 -12089981.83544  -9420761.29944  22079749.2734   22079749.3084
   5973725.626 4   4654853.311 4  23067974.902    23067973.526
  -1313472.17744  -1023485.02044  23020365.2524   23020365.3844
   -267448.16644   -208400.95444  23085771.2964   23085771.2044
 -24984340.62644 -19468306.54944  20302425.6834   20302425.2294
 -20124402.47244 -15681338.56044  20631710.1914   20631709.9474
 94  4  6  2 18 30.0000000  0  8G12G 4G20G13G 9G16G 5G24
 -12992210.190 4 -10123796.074 4  21685485.010    21685483.738
  -3793061.36444  -2955626.01644  22415689.1454   22415688.3784
 -12173561.24944  -9485888.09044  22063844.6554   22063845.1084
   6039508.000 4   4706112.298 4  23080492.859    23080491.539
  -1224124.65344   -953863.61844  23037367.1784   23037367.8504
   -356329.00644   -277658.71444  23068857.6204   23068858.6074
 -25008334.68944 -19487003.22144  20297859.8254   20297859.5224
 -20088417.97344 -15653298.68944  20638557.6844   20638557.5104
 94  4  6  2 19  0.0000000  0  8G12G 4G20G13G 9G16G 5G24
 -12917591.041 4 -10065651.306 4  21699684.620    21699683.415
  -3707884.75744  -2889254.64744  22431897.8684   22431897.4424
 -12256911.55344  -9550836.36044  22047983.5524   22047984.0344
   6105254.936 4   4757343.684 4  23093004.042    23093002.807
  -1134640.97744   -884136.12244  23054395.2594   23054396.1204
   -445077.10244   -346813.01944  23051968.9914   23051969.7564
 -25031879.09244 -19505349.50644  20293379.5124   20293378.9284
 -20052037.85544 -15624950.54244  20645480.6434   20645480.4254
 94  4  6  2 19 30.0000000  0  8G12G 4G20G13G 9G16G 5G24
 -12842519.187 4 -10007153.785 4  21713970.259    21713969.146
  -3622487.51244  -2822711.33944  22448148.5724   22448147.8254
 -12339993.09444  -9615575.20744  22032173.5184   22032173.9694
   6171002.983 4   4808575.927 4  23105515.323    23105514.356
  -1044982.47744   -814272.40344  23071456.8474   23071457.8374
   -533646.62844   -415828.18344  23035114.5104   23035115.7464
 -25054932.86444 -19523313.48344  20288992.5664   20288991.8234
 -20015236.24544 -15596273.96344  20652483.7674   20652483.6144
 94  4  6  2 20  0.0000000  0  8G12G20G 4G13G 9G16G 5G24
 -12767009.028 4  -9948314.727 4  21728339.273    21728338.138
 -12422815.13544  -9680111.85044  22016413.0114   22016413.2464
  -3536887.89544  -2756010.34444  22464437.5514   22464437.0454
   6236739.768 4   4859799.393 4  23118024.497    23118023.847
   -955158.15144   -744279.45244  23088549.9494   23088550.9744
   -622054.35544   -484717.30044  23018291.1234   23018293.1414
 -25077516.38444 -19540911.02944  20284694.9754   20284694.5604
 -19978027.38044 -15567280.04544  20659564.3184   20659564.1814
 94  4  6  2 20 30.0000000  0  8G12G 4G20G13G 9G16G 5G24
 -12691043.418 4  -9889120.769 4  21742795.071    21742793.888
  -3451074.64544  -2689142.86844  22480767.2324   22480766.7514
 -12505355.51444  -9744429.01644  22000705.9464   22000706.3704
   6302484.218 4   4911028.836 4  23130535.335    23130534.646
   -865151.39844   -674144.35944  23105677.9944   23105678.2264
   -710276.15844   -553461.51044  23001503.6124   23001503.8844
 -25099606.82044 -19558124.35344  20280491.2034   20280490.7214
 -19940399.80144 -15537959.85144  20666724.5624   20666724.5904
 94  4  6  2 21  0.0000000  0  8G12G20G 4G13G 9G16G 5G24
 -12614635.409 4  -9829582.090 4  21757335.099    21757333.843
 -12587622.18944  -9808532.90244  21985051.1634   21985051.8274
  -3365061.58044  -2622119.70644  22497134.9604   22497134.1634
   6368225.509 4   4962255.803 4  23143045.578    23143044.847
   -774973.89444   -603876.22744  23122838.5734   23122839.4364
   -798307.49044   -622057.33644  22984751.9364   22984753.6254
 -25121193.77944 -19574945.35744  20276383.2074   20276382.8964
 -19902372.10244 -15508327.87744  20673961.0774   20673961.0544
 94  4  6  2 21 30.0000000  0  8G12G20G 4G13G 9G16G 5G24
 -12537805.160 4  -9769714.392 4  21771955.579    21771954.274
 -12669630.20744  -9872435.24344  21969445.3104   21969446.2084
  -3278868.21344  -2554956.05444  22513536.9174   22513536.3594
   6433945.383 4   5013466.090 4  23155551.483    23155550.866
   -684625.71444   -533475.10544  23140031.0524   23140032.2044
   -886157.16544   -690511.56844  22968034.6184   22968034.9544
 -25142311.70644 -19591400.88244  20272364.7244   20272364.4334
 -19863958.81244 -15478395.44244  20681270.8534   20681270.8604
 94  4  6  2 22  0.0000000  0  8G12G20G 4G13G 9G16G 5G24
 -12460550.583 4  -9709516.047 4  21786656.775    21786655.382
 -12751372.54544  -9936130.56344  21953890.2804   21953890.8794
  -3192501.46944  -2487657.30344  22529971.9304   22529971.0004
   6499647.813 4   5064662.785 4  23168054.295    23168053.559
   -594106.31144   -462940.54244  23157256.2984   23157257.0284
   -973820.81644   -758820.87244  22951352.4924   22951353.4964
 -25162968.79844 -19607497.31744  20268433.8504   20268433.6654
 -19825143.00344 -15448149.35544  20688657.1794   20688657.3884
 94  4  6  2 22 30.0000000  0  7G12G20G 4G13G 9G 5G24
 -12382864.169 4  -9648981.205 4  21801440.032    21801438.609
 -12832836.23344  -9999608.76444  21938388.3644   21938389.3484
  -3105945.59244  -2420211.17344  22546443.1424   22546442.2514
   6565342.634 4   5115853.549 4  23180555.473    23180554.816
   -503420.78444   -392276.51444  23174513.0134   23174513.7834
 -25183151.58244 -19623224.15944  20264593.2094   20264592.7974
 -19785915.59744 -15417582.54544  20696121.8954   20696121.9964
 94  4  6  2 23  0.0000000  0  7G12G20G 4G13G 9G 5G24
 -12304769.675 4  -9588128.379 4  21816300.916    21816299.451
 -12914040.25344 -10062884.61544  21922935.8564   21922936.1874
  -3019213.28944  -2352627.56844  22562947.7814   22562947.2834
   6631007.838 4   5167021.228 4  23193051.246    23193050.373
   -412599.15144   -321506.46144  23191795.8504   23191797.3754
 -25202885.26144 -19638601.04944  20260838.1074   20260837.6474
 -19746294.73544 -15386709.14744  20703661.5364   20703661.7314
 94  4  6  2 23 30.0000000  0  8G12G20G 4G13G 9G 3G 5G24
 -12226246.703 4  -9526941.676 4  21831243.304    21831241.778
 -12994958.70144 -10125937.94544  21907537.5454   21907538.3954
  -2932278.70844  -2284886.34044  22579490.8614   22579489.5694
   6696666.215 4   5218183.594 4  23205545.556    23205544.661
   -321632.39944   -250623.31644  23209106.4114   23209106.3464
         0.32814         0.41314  25594187.482    25594184.372
 -25222147.85544 -19653610.86144  20257172.4924   20257172.0574
 -19706258.06144 -15355511.73544  20711280.2934   20711280.3854
 94  4  6  2 24  0.0000000  0  8G12G20G 4G13G 9G 3G 5G24
 -12147317.910 4  -9465438.750 4  21846262.930    21846261.471
 -13075609.04644 -10188782.36344  21892190.2604   21892190.7694
  -2845161.93644  -2217003.15144  22596068.5854   22596067.7854
   6762297.031 4   5269324.490 4  23218034.585    23218033.728
   -230564.15544   -179661.10544  23226436.1334   23226436.5034
    -72426.251 4    -56435.801 4  25580405.345    25580401.997
 -25240948.92944 -19668261.04944  20253594.8524   20253594.3754
 -19665832.08644 -15324010.97544  20718972.9664   20718972.9014
 94  4  6  2 24 30.0000000  0  8G12G20G 4G13G 9G 3G 5G24
 -12067978.463 4  -9403615.833 4  21861360.613    21861359.294
 -13155981.42944 -10251410.18144  21876895.7754   21876896.2164
  -2757852.57744  -2148969.88444  22612682.7914   22612681.7224
   6827907.209 4   5320449.297 4  23230519.782    23230518.902
   -139382.52444   -108610.51344  23243787.4814   23243788.4904
   -144757.035 4   -112797.368 4  25566641.458    25566638.245
 -25259279.69544 -19682544.75844  20250106.5864   20250105.9124
 -19625022.31544 -15292211.15444  20726738.8624   20726738.7364
 94  4  6  2 25  0.0000000  0  8G12G20G 4G13G 9G 3G 5G24
 -11988235.405 4  -9341478.414 4  21876535.263    21876533.965
 -13236077.29244 -10313822.52844  21861654.1724   21861655.0434
  -2670363.29444  -2080796.41444  22629331.5174   22629330.8034
   6893492.178 4   5371554.467 4  23243000.338    23242999.358
    -48080.80144    -37466.38144  23261161.8094   23261162.1004
   -216996.233 4   -169087.575 4  25552894.580    25552891.429
 -25277137.21344 -19696459.70244  20246708.3434   20246708.0464
 -19583835.52144 -15260117.54544  20734576.3924   20734576.4384
 94  4  6  2 25 30.0000000  0  8G12G20G 4G13G 9G 3G 5G24
 -11908103.685 4  -9279038.144 4  21891783.937    21891782.558
 -13315906.66844 -10376027.22744  21846462.9074   21846463.4234
  -2582711.99144  -2012496.71144  22646010.9904   22646010.2234
   6959038.833 4   5422629.792 4  23255473.562    23255472.517
     43318.61344     33753.89044  23278554.9354   23278554.2924
   -289156.686 4   -225316.426 4  25539162.094    25539159.128
 -25294522.41344 -19710006.61044  20243399.9914   20243399.7614
 -19542283.05144 -15227738.99644  20742483.3714   20742483.4334
 94  4  6  2 26  0.0000000  0  8G12G20G 4G13G 9G 3G 5G24
 -11827559.025 4  -9216276.103 4  21907111.186    21907109.766
 -13395439.86444 -10438001.13444  21831328.2824   21831329.1194
  -2494888.93444  -1944063.16644  22662723.0434   22662722.7344
   7024573.927 4   5473696.102 4  23267944.517    23267943.463
    134843.35144    105071.82044  23295971.8004   23295972.4154
   -361211.529 4   -281462.965 4  25525450.339    25525447.389
 -25311404.89744 -19723161.79044  20240187.4784   20240187.2044
 -19500345.66544 -15195060.51444  20750463.9054   20750463.9044
 94  4  6  2 26 30.0000000  0  8G12G20G 4G13G 9G 3G 5G24
 -11746614.038 4  -9153202.112 4  21922514.557    21922513.033
 -13474684.45644 -10499750.14944  21816248.4994   21816249.1464
  -2406911.57844  -1875509.39044  22679464.6454   22679464.1254
   7090086.866 4   5524745.155 4  23280411.407    23280410.245
    226487.97344    176483.17644  23313411.2014   23313410.9624
   -433170.833 4   -337535.064 4  25511757.140    25511754.118
 -25327782.46744 -19735923.53244  20237070.9494   20237070.7014
 -19458036.94444 -15162092.67944  20758515.2104   20758514.9344
 94  4  6  2 27  0.0000000  0  8G12G20G 4G13G 9G 3G 5G24
 -11665265.591 4  -9089813.737 4  21937994.709    21937993.151
 -13553631.89044 -10561267.61644  21801225.5154   21801226.0374
  -2318775.12344  -1806831.64244  22696236.4574   22696236.1044
   7155583.314 4   5575781.353 4  23292874.991    23292873.721
    318249.87744    247985.91044  23330872.5334   23330873.6354
   -505028.974 4   -393528.351 4  25498083.462    25498080.271
 -25343637.40744 -19748278.03044  20234053.8154   20234053.6234
 -19415353.14244 -15128832.57344  20766637.6614   20766637.5144
 94  4  6  2 27 30.0000000  0  8G12G20G 4G13G 9G 3G 5G24
 -11583523.010 4  -9026118.248 4  21953549.820    21953548.302
 -13632286.22944 -10622556.70044  21786258.2654   21786258.6434
  -2230487.98044  -1738036.45844  22713036.9964   22713036.9674
   7221056.040 4   5626799.071 4  23305334.117    23305332.787
    410118.99344    319572.19844  23348354.4334   23348355.4284
   -576792.946 4   -449448.256 4  25484427.147    25484424.130
 -25358983.44844 -19760235.98344  20231133.7034   20231133.2324
 -19372307.76144 -15095290.71744  20774828.8294   20774828.7414
 94  4  6  2 28  0.0000000  0  8G12G20G 4G13G 9G 3G 5G24
 -11501371.721 4  -8962104.289 4  21969182.663    21969181.262
 -13710627.62344 -10683601.92444  21771350.3864   21771350.5454
  -2142040.86444  -1669116.63144  22729868.0024   22729867.2284
   7286522.018 4   5677811.526 4  23317791.828    23317790.643
    502131.57644    391270.26844  23365863.4364   23365864.5484
   -648445.264 4   -505281.135 4  25470792.226    25470788.755
 -25373815.94644 -19771793.77544  20228311.3324   20228310.7614
 -19328887.72944 -15061456.92444  20783091.4144   20783091.5294
 94  4  6  2 28 30.0000000  0  8G12G20G 4G13G 9G 3G 5G24
 -11418810.625 4  -8897770.996 4  21984893.524    21984892.118
 -13788649.37744 -10744398.07344  21756503.1764   21756503.4164
  -2053415.07444  -1600057.57544  22746732.8704   22746732.4504
   7351984.637 4   5728821.369 4  23330248.869    23330247.782
    594298.90344    463088.91944  23383402.3024   23383402.9434
   -719982.619 4   -561024.451 4  25457178.887    25457175.045
 -25388142.47744 -19782957.30544  20225584.9614   20225584.4784
 -19285080.61044 -15027321.50644  20791427.5604   20791427.7524
 94  4  6  2 29  0.0000000  0  8G20G12G 4G13G 9G 3G 5G24
 -13866372.67544 -10804961.65844  21741713.0384   21741713.1694
 -11335865.829 4  -8833138.713 4  22000677.362    22000675.889
  -1964635.83744  -1530878.94644  22763627.0474   22763626.3254
   7417420.010 4   5779809.977 4  23342700.887    23342699.804
    686585.45044    535000.47044  23400964.1644   23400964.3344
   -791428.492 4   -616696.504 4  25443582.792    25443579.381
 -25401996.75344 -19793752.84544  20222948.4434   20222948.0444
 -19240916.32744 -14992907.77744  20799831.8844   20799832.0434
 94  4  6  2 29 30.0000000  0  8G20G12G 4G13G 9G 3G 5G24
 -13943800.75344 -10865295.20344  21726979.0274   21726979.1984
 -11252545.843 4  -8768214.075 4  22016532.691    22016531.116
  -1875716.31244  -1461590.99944  22780547.7754   22780547.7544
   7482822.078 4   5830772.638 4  23355146.636    23355145.519
    778968.09844    606986.89844  23418544.2504   23418545.9434
   -862789.139 4   -672302.100 4  25430002.776    25430000.250
 -25415386.07144 -19804186.08144  20220400.4164   20220400.1134
 -19196395.67344 -14958216.35744  20808303.8714   20808304.1124
 94  4  6  2 30  0.0000000  0  8G20G12G 4G13G 9G 3G 5G24
 -14020896.50044 -10925369.78544  21712308.1494   21712308.6754
 -11168819.244 4  -8702972.594 4  22032465.329    22032463.828
  -1786625.22944  -1392169.38744  22797501.1624   22797500.2664
   7548224.693 4   5881735.719 4  23367592.181    23367591.221
    871473.60444    679069.05144  23436147.3204   23436147.0804
   -934030.303 4   -727814.587 4  25416446.285    25416443.285
 -25428267.78944 -19814223.77944  20217949.3444   20217948.9124
 -19151481.76144 -14923218.50544  20816850.7234   20816850.7814
 94  4  6  2 30 30.0000000  0  7G20G12G 4G13G 3G 5G24
 -14097703.24444 -10985219.17044  21697692.2384   21697692.6204
 -11084734.668 4  -8637452.176 4  22048466.041    22048464.680
  -1697407.38044  -1322648.97844  22814478.6254   22814477.8304
   7613581.659 4   5932663.228 4  23380029.150    23380028.112
  -1005198.112 4   -783269.948 4  25402904.015    25402900.021
 -25440674.28744 -19823891.17844  20215588.3934   20215587.9524
 -19106227.26044 -14887955.25644  20825462.4964   20825462.4404
 94  4  6  2 31  0.0000000  0  6G20G12G 4G13G 5G24
 -14174213.72844 -11044837.71044  21683132.9334   21683133.2494
 -11000290.320 4  -8571651.422 4  22064535.220    22064533.921
  -1608074.01044  -1253038.56544  22831478.3764   22831478.1024
   7678897.212 4   5983558.463 4  23392458.191    23392457.043
 -25452591.10244 -19833177.00644  20213320.5274   20213320.3794
 -19060625.64044 -14852421.52244  20834140.1244   20834139.9804
 94  4  6  2 31 30.0000000  0  6G20G12G 4G13G 5G24
 -14250396.87744 -11104201.18544  21668635.7104   21668636.4204
 -10915460.554 4  -8505550.342 4  22080677.736    22080676.447
  -1518595.31744  -1183314.91444  22848505.6944   22848505.5944
   7744199.508 4   6034443.366 4  23404884.716    23404883.680
 -25463985.76744 -19842055.96744  20211152.3074   20211151.9724
 -19014637.93744 -14816586.94544  20842891.1514   20842891.1494
 94  4  6  2 32  0.0000000  0  7G20G12G 4G13G 6G 5G24
 -14326243.17244 -11163302.17144  21654202.5424   21654202.6914
 -10830241.000 4  -8439145.524 4  22096894.462    22096893.125
  -1428962.27944  -1113471.00044  22865562.2944   22865561.7874
   7809495.262 4   6085323.175 4  23417310.062    23417308.922
        -0.51054         0.09854  25370711.4094   25370717.6954
 -25474850.69544 -19850522.14644  20209084.8634   20209084.4354
 -18968265.18544 -14780452.33044  20851715.5884   20851715.5484
 94  4  6  2 32 30.0000000  0  8G20G12G 4G13G 6G 3G 5G24
 -14401734.86644 -11222126.85044  21639837.0234   21639837.2064
 -10744619.340 4  -8372427.370 4  22113187.859    22113186.395
  -1339162.45544  -1043497.11344  22882650.6244   22882650.4984
   7874799.304 4   6136209.440 4  23429736.855    23429735.750
    -74965.71944    -58414.30644  25356446.1824   25356445.5944
        -0.54414        -0.17214  25348918.622    25348916.013
 -25485169.51844 -19858562.78744  20207121.3174   20207120.8564
 -18921492.42344 -14744006.01644  20860616.1874   20860616.1164
 94  4  6  2 33  0.0000000  0  7G20G12G 4G13G 6G 5G24
 -14476883.44944 -11280684.16244  21625536.5944   21625536.8594
 -10658612.327 4  -8305408.937 4  22129554.594    22129553.076
  -1249207.88644   -973402.63144  22899768.3874   22899767.7464
   7940097.429 4   6187091.101 4  23442162.631    23442161.632
   -149915.93044   -116817.22844  25342183.9444   25342185.6614
 -25494959.22544 -19866191.12944  20205258.4344   20205257.9614
 -18874341.38244 -14707264.94044  20869588.6724   20869588.4444
 94  4  6  2 33 30.0000000  0  8G20G12G 4G13G 6G 3G 5G24
 -14551708.52544 -11338989.39944  21611297.6104   21611298.0284
 -10572245.167 4  -8238109.874 4  22145989.897    22145988.354
  -1159103.28944   -903191.26044  22916914.6834   22916913.6054
   8005366.964 4   6237950.475 4  23454582.932    23454581.824
   -224872.21044   -175224.50144  25327920.5174   25327919.3864
        -0.03914        -0.01414  25322055.273    25322052.412
 -25504241.49944 -19873424.06644  20203491.9894   20203491.5174
 -18826853.25044 -14670261.19944  20878625.3254   20878625.2534
 94  4  6  2 34  0.0000000  0  8G20G12G 4G13G 6G 3G 5G24
 -14626187.30744 -11397024.79544  21597124.6634   21597125.3254
 -10485500.393 4  -8170516.577 4  22162496.909    22162495.540
  -1068830.28244   -832848.65244  22934093.0944   22934092.2544
   8070627.985 4   6288803.219 4  23467001.722    23467000.556
   -299832.15044   -233634.73844  25313656.3924   25313657.1714
    -70429.190 4    -54879.794 4  25308652.724    25308650.127
 -25512997.08844 -19880246.60044  20201825.9554   20201825.3974
 -18779018.40244 -14632987.28744  20887728.0364   20887727.8874
 94  4  6  2 34 30.0000000  0  8G20G12G 4G13G 6G 3G 5G24
 -14700344.48544 -11454809.59144  21583013.0744   21583013.1834
 -10398408.273 4  -8102652.626 4  22179069.933    22179068.593
   -978418.11844   -762397.61544  22951298.1174   22951297.1354
   8135852.765 4   6339627.716 4  23479413.728    23479412.552
   -374831.97944   -292076.06844  25299383.6794   25299385.8774
   -140775.144 4   -109694.735 4  25295266.034    25295263.573
 -25521257.63444 -19886683.38844  20200253.8594   20200253.4504
 -18730866.03444 -14595465.95544  20896891.1084   20896890.8984
 94  4  6  2 35  0.0000000  0  8G20G12G 4G13G 6G 3G 5G24
 -14774176.07744 -11512340.68844  21568963.5094   21568964.0064
 -10310970.272 4  -8034519.158 4  22195708.693    22195707.453
   -887868.49644   -691839.47044  22968529.3424   22968528.1714
   8201042.349 4   6390424.787 4  23491818.913    23491817.916
   -449869.16244   -350546.54744  25285104.4524   25285103.9724
   -211036.977 4   -164444.171 4  25281895.836    25281892.433
 -25529024.25644 -19892735.29744  20198775.9694   20198775.4214
 -18682401.01344 -14557700.99944  20906113.6624   20906113.6334
 94  4  6  2 35 30.0000000  0  8G20G12G 4G13G 6G 3G 5G24
 -14847677.27144 -11569614.32744  21554976.6934   21554977.2634
 -10223186.956 4  -7966116.611 4  22212413.300    22212411.956
   -797192.46544   -621182.82944  22985784.3204   22985783.4634
   8266198.941 4   6441196.148 4  23504218.031    23504216.830
   -524947.46844   -409049.09244  25270817.4314   25270820.6144
   -281212.543 4   -219126.387 4  25268541.597    25268538.656
 -25536286.86644 -19898394.47244  20197393.8404   20197393.3714
 -18633602.33644 -14519676.05244  20915399.7294   20915399.5564
 94  4  6  2 36  0.0000000  0  8G20G12G 4G13G 6G 3G 5G24
 -14920833.51544 -11626619.18044  21541055.3484   21541056.1124
 -10135049.532 4  -7897438.131 4  22229185.401    22229183.971
   -706405.08044   -550439.41444  23003060.5284   23003059.5214
   8331333.979 4   6491950.720 4  23516612.781    23516611.731
   -600050.42944   -467570.74244  25256525.8104   25256527.3894
   -351290.481 4   -273732.503 4  25255205.915    25255203.691
 -25543034.07044 -19903652.03244  20196109.8604   20196109.4354
 -18584441.56244 -14481368.95444  20924754.6844   20924754.5604
 94  4  6  2 36 30.0000000  0  8G20G12G 4G13G 6G 3G 5G24
 -14993648.49844 -11683358.11544  21527199.0394   21527199.6394
 -10046566.941 4  -7828490.686 4  22246023.257    22246021.715
   -615518.51944   -479618.72544  23020355.6394   23020354.7894
   8396441.030 4   6542683.478 4  23529002.206    23529001.222
   -675165.97644   -526102.32044  25242231.9304   25242231.4984
   -421277.199 4   -328267.533 4  25241887.476    25241885.509
 -25549264.00544 -19908506.52644  20194924.4284   20194923.9014
 -18534924.10544 -14442783.91944  20934177.5704   20934177.5344
 94  4  6  2 37  0.0000000  0  8G20G12G 4G13G 6G 3G 5G24
 -15066117.21844 -11739827.22844  21513408.7274   21513409.3544
  -9957739.377 4  -7759274.431 4  22262926.807    22262925.136
   -524529.95744   -408718.54744  23037670.1574   23037669.5924
   8461522.549 4   6593396.350 4  23541386.886    23541386.027
   -750294.43644   -584643.94544  25227935.1754   25227935.6444
   -491170.320 4   -382729.629 4  25228587.094    25228585.255
 -25554970.42744 -19912953.08744  20193838.4324   20193837.9584
 -18485048.77244 -14403920.01944  20943668.5694   20943668.5284
 94  4  6  2 37 30.0000000  0  8G20G12G 4G13G 6G 3G 5G24
 -15138220.12244 -11796011.29744  21499687.9504   21499688.6094
  -9868552.949 4  -7689778.541 4  22279898.506    22279896.740
   -433419.32444   -337723.24944  23055007.8264   23055006.9504
   8526595.317 4   6644102.401 4  23553769.889    23553769.091
   -825433.98544   -643194.12444  25213636.3564   25213640.3014
   -560953.318 4   -437105.931 4  25215308.112    25215305.919
 -25560138.43944 -19916980.10544  20192855.1334   20192854.7774
 -18434800.59444 -14364765.59244  20953230.5714   20953230.4214
 94  4  6  2 38  0.0000000  0  7G20G12G 4G13G 6G 5G24
 -15209971.94344 -11851921.79144  21486034.1184   21486034.4844
  -9779028.017 4  -7620018.882 4  22296934.556    22296932.730
   -342198.83844   -266642.34544  23072366.3564   23072365.4684
   8591641.471 4   6694787.716 4  23566147.897    23566146.915
   -900594.42544   -701760.68544  25199333.5344   25199335.1984
 -25564795.81144 -19920609.22644  20191968.9504   20191968.3874
 -18384222.76344 -14325354.28944  20962855.0724   20962855.1384
 94  4  6  2 38 30.0000000  0  8G20G12G 4G13G 6G 3G 5G24
 -15281365.77044 -11907553.32744  21472448.3924   21472448.8514
  -9689163.338 4  -7549994.482 4  22314035.143    22314033.393
   -250849.44944   -195461.00244  23089749.6534   23089749.9264
   8656665.223 4   6745455.574 4  23578521.491    23578520.330
   -975767.02744   -760336.62844  25185028.5724   25185026.8054
         0.05314        -0.26914  25188803.402    25188801.286
 -25568936.01244 -19923835.35844  20191181.0134   20191180.4794
 -18333325.06444 -14285693.74344  20972540.5084   20972540.5704
 94  4  6  2 39  0.0000000  0  8G24G20G12G 4G13G 6G 3G 5
 -18282096.56344 -14245775.42544  20982288.9134   20982288.8334
 -15352388.13044 -11962895.41144  21458933.3314   21458933.6874
  -9598950.662 4  -7479698.923 4  22331201.791    22331200.314
   -159363.93644   -124173.58644  23107158.9374   23107158.2604
   8721677.559 4   6796114.543 4  23590893.031    23590891.690
  -1050955.69544   -818925.13644  25170720.0804   25170722.2574
    -69487.014 4    -54145.966 4  25175580.548    25175578.339
 -25572552.24944 -19926653.20444  20190492.7374   20190492.2594
 94  4  6  2 39 30.0000000  0  8G24G20G12G 4G13G 6G 3G 5
 -18230547.60944 -14205607.40844  20992098.5134   20992098.3564
 -15423041.82244 -12017950.22144  21445488.3674   21445488.3694
  -9508398.425 4  -7409138.777 4  22348433.229    22348431.881
    -67754.24344    -52789.40444  23124591.8014   23124591.0254
   8786672.647 4   6846760.062 4  23603261.195    23603259.737
  -1126157.66144   -877524.01844  25156409.9284   25156412.5214
   -138872.921 4   -108212.830 4  25162376.955    25162374.595
 -25575648.81444 -19929066.11544  20189903.5724   20189903.2994
 94  4  6  2 40  0.0000000  0  8G24G20G12G 4G13G 6G 3G 5
 -18178683.28444 -14165193.64444  21001967.8644   21001967.8134
 -15493334.22044 -12072723.50644  21432112.0134   21432112.2504
  -9417519.268 4  -7338323.886 4  22365726.965    22365725.615
     23972.78144     18686.18344  23142047.0474   23142045.1304
   8851640.521 4   6897384.378 4  23615624.091    23615622.818
  -1201371.68644   -936132.32744  25142097.7864   25142094.5354
   -208167.577 4   -162208.588 4  25149190.383    25149187.810
 -25578230.75844 -19931078.01544  20189412.3464   20189411.7894
 94  4  6  2 40 30.0000000  0  8G24G20G12G 4G13G 6G 3G 5
 -18126479.18844 -14124515.12244  21011901.9474   21011902.0054
 -15563247.72344 -12127201.54444  21418807.8414   21418807.8164
  -9326301.196 4  -7267244.906 4  22383085.342    22383083.837
    115836.26644     90268.11544  23159528.1334   23159526.3194
   8916596.135 4   6947999.141 4  23627984.616    23627983.269
  -1276600.62544   -994752.23844  25127782.6254   25127780.0854
   -277356.212 4   -216121.735 4  25136023.751    25136021.802
 -25580272.87444 -19932669.27244  20189023.5454   20189023.0144
 94  4  6  2 41  0.0000000  0  8G24G20G12G 4G13G 6G 3G 5
 -18073971.62044 -14083600.13044  21021893.7704   21021893.6754
 -15632807.18444 -12181403.70244  21405571.2504   21405571.2744
  -9234774.719 4  -7195925.601 4  22400502.413    22400500.792
    207802.91344    161930.42744  23177028.8604   23177027.5394
   8981511.830 4   6998582.808 4  23640337.492    23640336.264
  -1351871.94344  -1053405.15244  25113459.0254   25113459.4444
   -346467.021 4   -269974.237 4  25122872.660    25122870.248
 -25581802.09744 -19933860.87344  20188732.5444   20188732.2614
 94  4  6  2 41 30.0000000  0  8G24G20G12G 4G13G 6G 3G 5
 -18021170.26544 -14042456.21144  21031941.5544   21031941.3594
 -15702013.23944 -12235330.48144  21392401.8854   21392401.8324
  -9142945.892 4  -7124370.693 4  22417976.987    22417975.342
    299875.21144    233675.06644  23194549.5504   23194547.2254
   9046384.356 4   7049132.837 4  23652682.146    23652680.956
  -1427168.92144  -1112078.03044  25099130.3644   25099130.4244
   -415503.132 4   -323768.548 4  25109736.022    25109732.750
 -25582818.39644 -19934652.79744  20188539.2674   20188538.6764
 94  4  6  2 42  0.0000000  0  8G24G20G12G 4G13G 6G 3G 5
 -17968052.12944 -14001065.44744  21042049.6254   21042049.6094
 -15770843.98444 -12288964.81244  21379303.6954   21379303.9574
  -9050798.231 4  -7052567.343 4  22435512.135    22435510.544
    392073.64144    305517.93244  23212094.2124   23212092.7664
   9111232.956 4   7099664.218 4  23665022.579    23665021.131
  -1502479.31444  -1170761.42044  25084799.0024   25084797.4874
   -484445.514 4   -377489.836 4  25096616.726    25096613.465
 -25583292.53044 -19935022.25244  20188448.9604   20188448.6224
 94  4  6  2 42 30.0000000  0  8G24G20G12G 4G13G 6G 3G 5
 -17914644.21644 -13959448.88544  21052212.9144   21052212.7734
 -15839309.71444 -12342314.71344  21366275.0014   21366275.2864
  -8958347.814 4  -6980528.085 4  22453104.812    22453103.249
    484369.81444    377437.06644  23229657.2774   23229655.8664
   9176044.504 4   7150166.724 4  23677355.813    23677354.514
  -1577820.42944  -1229468.73544  25070461.6454   25070460.6424
   -553307.778 4   -431148.695 4  25083512.315    25083509.641
 -25583232.21144 -19934975.25244  20188460.3694   20188460.0054
 94  4  6  2 43  0.0000000  0  8G24G20G12G 4G13G 6G 3G 5
 -17860943.87144 -13917604.45444  21062431.7854   21062431.8124
 -15907411.94444 -12395381.37144  21353315.6524   21353316.1884
  -8865601.692 4  -6908258.406 4  22470753.747    22470752.220
    576743.12944    449416.27544  23247235.1724   23247234.0404
   9240814.870 4   7200637.144 4  23689680.992    23689679.976
  -1653183.01344  -1288192.79344  25056120.0574   25056121.6464
   -622094.263 4   -484748.495 4  25070422.222    25070419.891
 -25582645.83644 -19934518.33744  20188572.0754   20188571.6544
 94  4  6  2 43 30.0000000  0  8G20G24G12G 4G13G 6G 3G 5
 -15975145.68544 -12448160.89044  21340426.3414   21340426.8824
 -17806932.80444 -13875517.90044  21072709.6214   21072709.6084
  -8772560.116 4  -6835758.505 4  22488458.944    22488457.385
    669183.72744    521447.89444  23264826.0784   23264825.2734
   9305546.471 4   7251077.360 4  23701998.888    23701998.016
  -1728577.52544  -1346941.68744  25041772.6254   25041774.5864
   -690802.631 4   -538287.426 4  25057347.411    25057344.721
 -25581527.68844 -19933647.05444  20188784.8994   20188784.2864
 94  4  6  2 44  0.0000000  0  8G20G24G12G 4G13G 6G 3G 5
 -16042489.31744 -12500636.42744  21327611.2574   21327611.5904
 -17752589.62944 -13833172.56144  21083050.7774   21083050.7044
  -8679207.230 4  -6763016.022 4  22506223.468    22506221.882
    761700.61744    593538.98044  23282431.6324   23282430.8064
   9370258.388 4   7301502.225 4  23714313.222    23714312.335
  -1803999.50744  -1405711.99244  25027420.5454   25027420.7664
   -759414.229 4   -591750.947 4  25044291.284    25044288.548
 -25579861.31444 -19932348.58144  20189102.0494   20189101.3604
 94  4  6  2 44 30.0000000  0  8G20G24G12G 4G13G 6G 3G 5
 -16109448.70444 -12552812.55844  21314869.2584   21314869.7234
 -17697931.26344 -13790581.62144  21093451.9854   21093451.7504
  -8585554.621 4  -6690039.992 4  22524045.047    22524043.420
    854278.30544    665677.44344  23300048.6064   23300048.1064
   9434941.914 4   7351904.953 4  23726622.112    23726621.332
  -1879452.27544  -1464506.16744  25013062.2214   25013060.0904
   -827937.930 4   -645145.971 4  25031251.462    25031249.282
 -25577660.83044 -19930633.91644  20189520.5984   20189519.9884
 94  4  6  2 45  0.0000000  0  8G20G24G12G 4G13G 6G 3G 5
 -16176015.08344 -12604682.44444  21302202.0934   21302202.2744
 -17642946.29044 -13747736.17944  21103915.2144   21103915.1784
  -8491598.973 4  -6616827.827 4  22541924.289    22541922.724
    946931.11944    737874.43844  23317679.9984   23317678.8304
   9499603.302 4   7402290.440 4  23738926.481    23738926.023
  -1954928.21144  -1523318.62644  24998699.5244   24998697.8294
   -896367.822 4   -698467.904 4  25018229.471    25018227.446
 -25574925.10444 -19928502.18344  20190041.2654   20190040.7594
 94  4  6  2 45 30.0000000  0  8G20G24G12G 4G13G 6G 3G 5
 -16242174.81544 -12656235.46344  21289612.2674   21289612.8874
 -17587647.93544 -13704646.54944  21114438.0224   21114438.2474
  -8397331.868 4  -6543372.971 4  22559862.750    22559861.229
   1039688.48544    810152.90044  23335331.1104   23335330.6614
   9564253.695 4   7452667.357 4  23751229.142    23751228.702
  -2030422.62444  -1582145.38144  24984333.4604   24984333.7044
   -964693.050 4   -751708.272 4  25005227.511    25005225.149
 -25571641.95944 -19925943.89144  20190666.0324   20190665.6064
 94  4  6  2 46  0.0000000  0  8G20G24G12G 4G13G 6G 3G 5
 -16307919.53944 -12707465.09844  21277101.5594   21277101.8514
 -17532043.29644 -13661318.26144  21125019.1724   21125019.6144
  -8302750.883 4  -6469673.529 4  22577860.914    22577859.307
   1132567.38044    882526.07444  23353005.2784   23353005.7644
   9628898.742 4   7503040.112 4  23763530.724    23763530.251
  -2105913.70644  -1640969.59144  24969967.8294   24969968.2834
  -1032908.479 4   -804863.095 4  24992246.542    24992243.595
 -25567809.20944 -19922957.33444  20191395.4464   20191394.9794
 94  4  6  2 46 30.0000000  0  8G20G24G12G 4G13G 6G 3G 5
 -16373249.26544 -12758371.36644  21264669.7014   21264669.7814
 -17476136.35244 -13617754.40544  21135657.9044   21135658.3054
  -8207861.276 4  -6395733.600 4  22595917.693    22595916.093
   1225566.36244    954992.80344  23370702.2814   23370702.0124
   9693535.945 4   7553406.741 4  23775830.927    23775830.261
  -2181403.94544  -1699793.06044  24955602.1274   24955602.8274
  -1101016.940 4   -857934.576 4  24979285.814    24979282.871
 -25563430.83944 -19919545.61644  20192228.6514   20192228.0794
 94  4  6  2 47  0.0000000  0  8G20G24G12G 4G13G 6G 3G 5
 -16438179.71244 -12808966.50144  21252313.7344   21252313.9424
 -17419938.33144 -13573963.74244  21146352.0784   21146352.3284
  -8112684.522 4  -6321569.915 4  22614029.281    22614027.504
   1318664.40044   1027536.72944  23388418.0684   23388417.1794
   9758147.155 4   7603753.119 4  23788126.074    23788125.451
  -2256906.82344  -1758626.47544  24941234.2154   24941234.4644
  -1169036.679 4   -910936.923 4  24966341.977    24966339.487
 -25558530.46044 -19915727.13944  20193161.1424   20193160.6324
 94  4  6  2 47 30.0000000  0  8G20G24G12G 4G13G 6G 3G 5
 -16502731.54344 -12859266.61144  21240030.1344   21240030.1034
 -17363465.14444 -13529958.66544  21157098.6724   21157098.8754
  -8017246.602 4  -6247202.730 4  22632190.531    22632188.864
   1411823.63244   1100128.33144  23406145.6654   23406144.8234
   9822709.165 4   7654061.160 4  23800412.015    23800411.178
  -2332438.44244  -1817482.16544  24926861.1714   24926861.3484
  -1236991.244 4   -963888.475 4  24953410.698    24953408.219
 -25553131.26244 -19911519.97044  20194188.5554   20194187.9774
 94  4  6  2 48  0.0000000  0  8G20G24G12G 4G13G 6G 3G 5
 -16566878.66844 -12909251.36944  21227823.3714   21227823.3354
 -17306674.46644 -13485706.19044  21167905.6034   21167905.7174
  -7921527.079 4  -6172616.123 4  22650405.426    22650403.947
   1505047.83544   1172770.56244  23423885.5354   23423884.9924
   9887245.527 4   7704349.218 4  23812692.588    23812691.921
  -2407966.16244  -1876334.96044  24912488.9474   24912494.5734
  -1304857.651 4  -1016771.336 4  24940496.109    24940493.544
 -25547208.23444 -19906904.62344  20195315.5954   20195315.0224
 94  4  6  2 48 30.0000000  0  8G20G24G12G 4G13G 6G 3G 5
 -16630629.58644 -12958927.39344  21215691.8284   21215691.8974
 -17249582.89444 -13441219.25544  21178769.7604   21178769.8574
  -7825540.070 4  -6097821.082 4  22668671.170    22668669.704
   1598323.13644   1245452.60444  23441635.4734   23441634.0424
   9951745.157 4   7754608.659 4  23824966.592    23824965.860
  -2483506.56744  -1935197.50944  24898114.2814   24898112.1124
  -1372647.354 4  -1069594.431 4  24927596.147    24927593.416
 -25540776.01044 -19901892.49944  20196539.7644   20196539.0534
 94  4  6  2 49  0.0000000  0  7G20G24G12G13G 6G 3G 5
 -16693970.36644 -13008283.83244  21203638.3174   21203638.3144
 -17192176.94944 -13396487.34844  21189693.6594   21189693.7234
  -7729277.111 4  -6022811.015 4  22686989.371    22686987.739
  10016219.506 4   7804848.405 4  23837235.895    23837234.988
  -2559041.08744  -1994055.56044  24883740.7824   24883740.8714
  -1440349.206 4  -1122349.081 4  24914712.749    24914710.517
 -25533815.78544 -19896468.94744  20197864.2664   20197863.5724
 94  4  6  2 49 30.0000000  0  7G20G24G12G13G 6G 3G 5
 -16756902.34644 -13057321.72544  21191662.8724   21191663.1044
 -17134469.93544 -13351520.84544  21200674.9184   21200674.8854
  -7632745.031 4  -5947591.245 4  22705358.840    22705356.917
  10080664.913 4   7855065.595 4  23849499.375    23849498.538
  -2634581.24344  -2052917.95444  24869365.4934   24869366.1884
  -1507967.464 4  -1175038.586 4  24901845.296    24901843.514
 -25526315.60644 -19890624.65544  20199291.4944   20199290.8014
 94  4  6  2 50  0.0000000  0  8G20G24G12G13G 6G 3G17G 5
 -16819409.53744 -13106028.61344  21179768.3054   21179768.4034
 -17076465.16244 -13306322.31844  21211712.9124   21211712.8094
  -7535933.293 4  -5872153.556 4  22723781.494    22723779.535
  10145094.971 4   7905270.835 4  23861760.246    23861758.959
  -2710129.98644  -2111787.14144  24854987.9834   24854989.4884
  -1575488.813 4  -1227652.573 4  24888996.592    24888994.541
        -1.08254        -0.88454  25449589.8794   25449590.3084
 -25518260.92644 -19884348.28344  20200824.2634   20200823.5614
 94  4  6  2 50 30.0000000  0  8G20G24G12G13G 6G17G 3G 5
 -16881541.81544 -13154443.36144  21167944.6804   21167944.9844
 -17018224.20444 -13260939.74844  21222795.7894   21222795.6044
  -7438897.199 4  -5796541.042 4  22742246.942    22742245.008
  10209457.463 4   7955423.422 4  23874008.230    23874006.513
  -2785753.84544  -2170714.75744  24840597.0944   24840597.4794
   -102694.31144    -80021.45744  25430047.0024   25430053.8814
  -1642966.031 4  -1280232.169 4  24876155.961    24876153.659
 -25509694.99344 -19877673.53044  20202454.2024   20202453.4194
 94  4  6  2 51  0.0000000  0  8G20G24G12G13G 6G17G 3G 5
 -16943246.74744 -13202525.11444  21156202.3624   21156202.9994
 -16959684.29644 -13215324.23244  21233935.5474   21233935.4184
  -7341589.999 4  -5720717.276 4  22760763.984    22760762.309
  10273802.189 4   8005562.159 4  23886252.501    23886250.838
  -2861415.94244  -2229672.12544  24826199.9084   24826198.5954
   -205281.78644   -159959.63044  25410524.5134   25410528.0854
  -1710349.740 4  -1332738.909 4  24863333.185    24863331.015
 -25500548.04044 -19870546.03544  20204194.6794   20204194.0994
 94  4  6  2 51 30.0000000  0  8G20G24G12G13G 6G17G 3G 5
 -17004551.05444 -13250294.69244  21144536.7724   21144537.0444
 -16900879.87844 -13169502.60744  21245125.7054   21245125.5174
  -7244044.200 4  -5644707.596 4  22779326.570    22779324.901
  10338099.889 4   8055664.264 4  23898487.786    23898486.231
  -2937152.49944  -2288687.62144  24811788.5344   24811790.4944
   -307770.11144   -239820.59144  25391020.9954   25391035.1824
  -1777669.579 4  -1385195.873 4  24850522.660    24850520.353
 -25490851.52344 -19862990.30744  20206039.9164   20206039.3094
 94  4  6  2 52  0.0000000  0  7G20G24G12G13G 6G 3G 5
 -17065444.26744 -13297743.93944  21132949.1604   21132949.0864
 -16841802.93244 -13123468.61844  21256367.6464   21256367.4544
  -7146254.966 4  -5568508.228 4  22797935.335    22797933.558
  10402358.510 4   8105735.914 4  23910715.607    23910714.322
  -3012949.08044  -2347749.84444  24797365.4354   24797364.9254
  -1844917.909 4  -1437597.116 4  24837725.481    24837723.203
 -25480606.71044 -19855007.33744  20207989.4974   20207988.9764
 94  4  6  2 52 30.0000000  0  7G20G24G12G13G 6G 3G 5
 -17125945.74244 -13344887.93444  21121436.0424   21121436.4404
 -16782462.58844 -13077229.38544  21267659.8324   21267659.7664
  -7048246.835 4  -5492138.290 4  22816585.684    22816583.847
  10466556.584 4   8155760.406 4  23922932.038    23922930.970
  -3088810.54644  -2406862.61544  24782929.5174   24782931.6054
  -1912116.975 4  -1489959.978 4  24824938.017    24824935.370
 -25469824.15244 -19846605.34244  20210041.2444   20210040.6954
 94  4  6  2 53  0.0000000  0  7G20G24G12G13G 6G 3G 5
 -17186078.33944 -13391744.49844  21109993.2014   21109993.5244
 -16722892.78744 -13030811.35444  21278995.5924   21278995.3934
  -6950048.160 4  -5415619.874 4  22835272.162    22835270.464
  10530669.018 4   8205718.159 4  23935132.441    23935131.140
  -3164751.27344  -2466037.19344  24768478.1554   24768479.3054
  -1979292.263 4  -1542304.316 4  24812155.243    24812152.413
 -25458540.93944 -19837813.23044  20212188.2524   20212187.7564
 94  4  6  2 53 30.0000000  0  8G20G24G12G13G 6G17G 3G 5
 -17245755.91144 -13438246.48944  21098637.0854   21098637.4184
 -16663030.97644 -12984165.78244  21290386.8004   21290386.8604
  -6851578.498 4  -5338890.301 4  22854010.140    22854008.736
  10594779.356 4   8255674.273 4  23947332.229    23947330.682
  -3240670.14044  -2525194.68244  24754030.8054   24754029.7304
        -0.33754         0.29654  25313186.4404   25313183.2334
  -2046360.680 4  -1594565.380 4  24799392.532    24799389.587
 -25446690.27644 -19828578.94444  20214443.4894   20214442.9154
 94  4  6  2 54  0.0000000  0  8G20G24G12G13G 6G17G 3G 5
 -17304991.33044 -13484403.95444  21087364.8344   21087365.0174
 -16602904.97844 -12937314.34944  21301828.3714   21301828.4234
  -6752856.046 4  -5261963.750 4  22872796.369    22872795.013
  10658872.664 4   8305617.121 4  23959528.803    23959527.112
  -3316578.51844  -2584344.07544  24739585.3254   24739586.9554
   -102031.69944    -79504.58344  25293770.9184   25293771.2604
  -2113337.904 4  -1646755.379 4  24786646.907    24786644.348
 -25434284.77544 -19818912.32044  20216804.3704   20216803.7824
 94  4  6  2 54 30.0000000  0  8G20G24G12G13G 6G17G 3G 5
 -17363776.81744 -13530210.81844  21076178.1934   21076178.4384
 -16542514.21944 -12890256.61144  21313320.3504   21313320.4704
  -6653878.556 4  -5184838.473 4  22891631.204    22891629.876
  10722954.369 4   8355550.925 4  23971723.020    23971721.445
  -3392476.03644  -2643484.86944  24725142.6934   24725141.5014
   -203956.60244   -158926.52544  25274374.6614   25274380.7204
  -2180218.884 4  -1698870.384 4  24773919.564    24773916.799
 -25421317.59744 -19808808.02744  20219271.8724   20219271.3424
 94  4  6  2 55  0.0000000  0  8G20G24G12G13G 6G17G 3G 5
 -17422100.54344 -13575657.86544  21065079.6714   21065080.0924
 -16481869.92544 -12843001.31444  21324860.5224   21324860.7104
  -6554639.820 4  -5107509.620 4  22910515.901    22910514.322
  10787033.886 4   8405483.025 4  23983916.841    23983915.727
  -3468358.55044  -2702614.06944  24710703.0434   24710704.7154
   -305746.08244   -238242.88444  25255004.7504   25255008.9844
  -2246994.616 4  -1750903.376 4  24761212.398    24761209.442
 -25407797.18144 -19798272.64144  20221844.7134   20221844.2554
 94  4  6  2 55 30.0000000  0  8G20G24G12G13G 6G17G 3G 5
 -17479959.31244 -13620742.61544  21054069.4974   21054069.8264
 -16420967.69644 -12795545.02944  21336449.8974   21336449.9884
  -6455142.203 4  -5029979.032 4  22929449.859    22929448.026
  10851112.015 4   8455414.049 4  23996110.258    23996109.465
  -3544222.87344  -2761729.08144  24696266.4694   24696264.8684
   -407403.07844   -317455.97544  25235660.5734   25235665.7514
  -2313665.117 4  -1802854.368 4  24748525.481    24748522.794
 -25393717.95644 -19787301.82144  20224523.8074   20224523.3364
 94  4  6  2 56  0.0000000  0  8G20G24G12G13G 6G17G 3G 5
 -17537361.66444 -13665471.71144  21043146.1344   21043146.2924
 -16359814.12144 -12747892.88844  21348087.0824   21348087.1954
  -6355399.448 4  -4952257.427 4  22948430.436    22948428.407
  10915178.206 4   8505335.764 4  24008301.611    24008301.032
  -3620086.59044  -2820843.60044  24681830.2824   24681830.0244
   -508919.04244   -396559.26544  25216342.4124   25216349.3684
  -2380241.268 4  -1854731.837 4  24735856.695    24735854.333
 -25379092.79344 -19775905.59044  20227307.0364   20227306.2924
 94  4  6  2 56 30.0000000  0  8G20G24G12G13G 6G17G 3G 5
 -17594297.45644 -13709837.25144  21032311.7794   21032311.7054
 -16298397.82844 -12700036.03544  21359774.2354   21359774.4104
  -6255406.909 4  -4874341.185 4  22967458.326    22967456.294
  10979240.477 4   8555254.433 4  24020492.287    24020491.677
  -3695952.75844  -2879960.02644  24667393.5254   24667395.2634
   -610278.59544   -475540.67644  25197053.4384   25197054.0684
  -2446715.808 4  -1906530.117 4  24723206.960    24723204.340
 -25363917.04144 -19764080.32944  20230195.0264   20230194.3114
 94  4  6  2 57  0.0000000  0  8G20G24G12G13G 6G17G 3G 5
 -17650775.25144 -13753845.91344  21021564.4634   21021564.5854
 -16236722.55844 -12651977.38244  21371510.6294   21371510.5584
  -6155178.689 4  -4796241.303 4  22986530.990    22986529.114
  11043287.910 4   8605161.520 4  24032680.030    24032679.455
  -3771831.13244  -2939085.96444  24652954.2614   24652956.7764
   -711514.54444   -554425.70644  25177788.9984   25177792.7614
  -2513100.102 4  -1958258.072 4  24710574.183    24710571.591
 -25348206.06944 -19751838.01344  20233184.5564   20233184.0014
 94  4  6  2 57 30.0000000  0  8G20G24G12G13G 6G17G 3G 5
 -17706803.50944 -13797504.28344  21010902.5154   21010903.0444
 -16174785.50844 -12603714.74444  21383296.7904   21383296.7954
  -6054728.788 4  -4717968.687 4  23005645.784    23005643.997
  11107309.833 4   8655048.734 4  24044863.005    24044862.376
  -3847737.51644  -2998233.74544  24638509.6624   24638510.8074
   -812652.69744   -633234.50044  25158543.5144   25158540.9304
  -2579405.462 4  -2009924.531 4  24697956.701    24697954.189
 -25331960.54844 -19739179.16644  20236275.9774   20236275.3074
 94  4  6  2 58  0.0000000  0  8G20G24G12G13G 6G17G 3G 5
 -17762382.96744 -13840812.93944  21000325.9284   21000326.2954
 -16112589.84444 -12555250.58944  21395132.3724   21395132.4924
  -5954063.371 4  -4639528.140 4  23024801.700    23024800.048
  11171303.340 4   8704913.806 4  24057040.381    24057039.909
  -3923685.09144  -3057413.64344  24624056.7714   24624058.1784
   -913685.29344   -711961.15944  25139317.2044   25139320.7084
  -2645635.527 4  -2061532.319 4  24685353.639    24685350.870
 -25315181.66844 -19726104.71244  20239468.9334   20239468.2254
 94  4  6  2 58 30.0000000  0  8G24G12G13G 6G17G 3G 5G20
 -16050120.63744 -12506573.28444  21407019.8934   21407019.9264
  -5853177.789 4  -4560916.036 4  23043999.759    23043997.877
  11235276.158 4   8754762.760 4  24069214.034    24069213.626
  -3999670.28944  -3116622.81944  24609597.2494   24609598.6604
  -1014613.71244   -790606.47544  25120110.2094   25120116.1124
  -2711782.920 4  -2113075.672 4  24672766.160    24672763.501
 -25297858.22544 -19712605.92744  20242765.3874   20242764.6974
 -17817503.68844 -13883764.13944  20989836.8734   20989837.1454
 94  4  6  2 59  0.0000000  0  8G24G12G13G 6G17G 3G 5G20
 -15987370.64344 -12457677.18244  21418960.8364   21418961.0504
  -5752072.254 4  -4482132.537 4  23063239.734    23063237.737
  11299231.647 4   8804598.215 4  24081384.204    24081383.976
  -4075677.83844  -3175849.43244  24595133.8944   24595135.3924
  -1115428.81444   -869163.55744  25100925.6954   25100929.3564
  -2777845.100 4  -2164552.621 4  24660194.868    24660192.255
 -25279981.55544 -19698676.05944  20246167.1244   20246166.6924
 -17872160.31044 -13926353.70744  20979436.1274   20979436.4504
 94  4  6  2 59 30.0000000  0  8G24G12G13G 6G17G 3G 5G20
 -15924343.90544 -12408565.43844  21430954.4074   21430954.5154
  -5650746.335 4  -4403177.304 4  23082521.713    23082519.513
  11363173.305 4   8854422.887 4  24093552.018    24093551.590
  -4151703.49144  -3235090.17044  24580666.8724   24580664.0044
  -1216212.53844   -947696.13344  25081760.2734   25081762.1274
  -2843819.080 4  -2215960.849 4  24647640.248    24647637.942
 -25261537.05944 -19684303.72744  20249677.0084   20249676.4034
 -17926346.92244 -13968577.02644  20969124.7234   20969124.9784
 94  4  6  3  0  0.0000000  0  7G24G12G13G 6G 3G 5G20
 -15861095.84944 -12359281.23344  21442990.1094   21442990.1854
  -5549249.964 4  -4324089.250 4  23101835.926    23101833.707
  11427054.760 4   8904200.645 4  24105707.995    24105707.817
  -4227787.30844  -3294376.21344  24566188.4664   24566190.2844
  -2909752.095 4  -2267337.161 4  24635093.473    24635091.168
 -25242573.35244 -19669526.81244  20253285.7124   20253285.0744
 -17980107.78444 -14010468.59544  20958894.1674   20958894.4634
 94  4  6  3  0 30.0000000  0  7G24G12G13G 6G 3G 5G20
 -15797639.20544 -12309834.49744  21455065.4024   21455065.3894
  -5447599.112 4  -4244880.820 4  23121179.542    23121177.249
  11490863.268 4   8953921.561 4  24117850.332    24117850.216
  -4303939.18144  -3353715.29144  24551696.8994   24551699.4794
  -2975657.263 4  -2318691.775 4  24622552.021    24622549.565
 -25223106.98644 -19654358.21444  20256990.0044   20256989.3384
 -18033453.63444 -14052036.78144  20948742.6904   20948742.9674
 94  4  6  3  1  0.0000000  0  8G24G12G13G17G 6G 3G 5G20
 -15733961.73544 -12260215.68244  21467182.7444   21467182.7434
  -5345771.624 4  -4165534.747 4  23140556.349    23140554.297
  11554624.273 4   9003605.475 4  24129983.688    24129983.565
         0.24454         1.20254  25024394.0574   25024393.7504
  -4380127.27544  -3413082.59644  24537198.6084   24537201.8434
  -3041510.037 4  -2370005.555 4  24610020.570    24610018.079
 -25203103.92244 -19638771.41044  20260796.5344   20260795.9614
 -18086357.07344 -14093260.23244  20938675.6224   20938675.9304
 94  4  6  3  1 30.0000000  0  8G24G12G13G17G 6G 3G 5G20
 -15670038.25744 -12210405.17244  21479346.8994   21479347.0234
  -5243742.230 4  -4086031.351 4  23159971.651    23159969.722
  11618366.322 4   9053274.619 4  24142113.382    24142113.166
   -100255.93844    -78120.38644  25005316.0204   25005320.0854
  -4456330.53344  -3472461.70244  24522697.3404   24522697.2504
  -3107282.326 4  -2421256.622 4  24597504.434    24597502.073
 -25182542.57044 -19622749.57944  20264709.1424   20264708.6184
 -18138787.39744 -14134115.01644  20928698.6394   20928698.9204
 94  4  6  3  2  0.0000000  0  8G24G12G13G17G 6G 3G 5G20
 -15605869.10644 -12160403.22744  21491557.9074   21491558.2744
  -5141506.164 4  -4006366.921 4  23179426.323    23179424.729
  11682097.465 4   9102935.278 4  24154241.119    24154240.657
   -200370.28344   -156131.33544  24986264.9504   24986269.0384
  -4532542.10044  -3531847.27444  24508194.8064   24508194.0584
  -3172967.036 4  -2472439.450 4  24585005.038    24585002.760
 -25161427.37244 -19606296.17844  20268727.2884   20268726.5874
 -18190734.75644 -14174593.46644  20918813.3424   20918813.6234
 94  4  6  3  2 30.0000000  0  8G24G12G13G17G 6G 3G 5G20
 -15541479.61344 -12110229.59144  21503810.9164   21503810.8784
  -5039088.673 4  -3926561.129 4  23198915.807    23198914.297
  11745796.057 4   9152570.572 4  24166362.773    24166361.788
   -300370.62244   -234053.52944  24967235.3504   24967235.3074
  -4608789.82644  -3591261.05744  24493685.3714   24493687.3554
  -3238586.209 4  -2523571.217 4  24572518.163    24572515.667
 -25139772.19444 -19589422.01344  20272848.2654   20272847.6024
 -18242218.64544 -14214710.77444  20909016.1714   20909016.4714
 94  4  6  3  3  0.0000000  0  8G24G12G13G17G 6G 3G 5G20
 -15476875.46644 -12059888.68844  21516104.7724   21516104.5494
  -4936494.688 4  -3846617.802 4  23218439.027    23218437.398
  11809460.480 4   9202179.234 4  24178477.982    24178476.564
   -400256.12944   -311886.29044  24948228.1584   24948234.3874
  -4685072.13444  -3650701.74044  24479169.4084   24479171.3284
  -3304142.425 4  -2574653.938 4  24560043.182    24560040.613
 -25117570.65744 -19572122.11144  20277073.0914   20277072.2754
 -18293238.55244 -14254466.53744  20899307.5754   20899307.8584
 94  4  6  3  3 30.0000000  0  8G24G12G13G17G 6G 3G 5G20
 -15412040.31544 -12009367.78144  21528442.4504   21528442.0054
  -4833722.449 4  -3766535.566 4  23237996.215    23237994.277
  11873095.643 4   9251765.087 4  24190587.594    24190586.121
   -500015.55444   -389620.76244  24929244.4114   24929245.6814
  -4761377.77644  -3710160.65344  24464648.8704   24464651.6254
  -3369631.293 4  -2625684.178 4  24547580.878    24547578.700
 -25094822.76844 -19554396.48444  20281401.7404   20281401.0424
 -18343787.33944 -14293855.19344  20889688.4014   20889688.9464
 94  4  6  3  4  0.0000000  0  8G24G12G13G17G 6G 3G 5G20
 -15346969.19544 -11958663.00444  21540825.0254   21540824.5684
  -4730759.242 4  -3686304.515 4  23257589.623    23257587.268
  11936717.846 4   9301340.850 4  24202694.341    24202693.006
   -599615.52244   -467230.95744  24910290.7474   24910295.4414
  -4837679.03944  -3769616.08944  24450129.3244   24450128.4994
  -3435037.202 4  -2676649.758 4  24535134.477    24535132.308
 -25071504.86644 -19536226.69244  20285839.0064   20285838.3064
 -18393847.15944 -14332862.83444  20880162.3134   20880162.4514
 94  4  6  3  4 30.0000000  0  8G24G12G13G17G 6G 3G 5G20
 -15281674.85044 -11907784.28444  21553249.9884   21553250.0244
  -4627626.510 4  -3605941.355 4  23277215.088    23277212.693
  12000308.978 4   9350892.404 4  24214795.400    24214793.855
   -699060.90644   -544720.78644  24891366.6044   24891370.3634
  -4913994.10944  -3829082.29544  24435606.9524   24435607.1694
  -3500379.165 4  -2727565.515 4  24522700.403    24522698.133
 -25047625.68244 -19517619.53744  20290383.1464   20290382.3874
 -18443434.02444 -14371501.93944  20870726.2854   20870726.2534
 94  4  6  3  5  0.0000000  0  8G24G12G13G17G 6G 3G 5G20
 -15216160.26544 -11856733.95044  21565716.8024   21565717.0014
  -4524333.749 4  -3525453.505 4  23296870.877    23296868.659
  12063862.990 4   9400415.031 4  24226889.107    24226887.658
   -798356.50344   -622093.76844  24872471.8334   24872473.9854
  -4990317.46144  -3888554.96844  24421083.0674   24421085.5194
  -3565663.871 4  -2778436.659 4  24510277.084    24510274.997
 -25023211.84544 -19498595.76844  20295028.9564   20295028.2334
 -18492552.11144 -14409775.76244  20861379.3164   20861379.4014
 94  4  6  3  5 30.0000000  0  8G24G12G13G17G 6G 3G 5G20
 -15150433.64644 -11805518.40144  21578224.1414   21578224.2604
  -4420877.459 4  -3444838.245 4  23316557.773    23316555.886
  12127386.591 4   9449913.969 4  24238977.104    24238975.741
   -897500.15144   -699348.42744  24853605.3184   24853608.6404
  -5066641.67944  -3948028.31944  24406559.1514   24406558.8634
  -3630885.425 4  -2829258.595 4  24497865.888    24497863.712
 -24998272.12144 -19479162.21644  20299774.7854   20299773.9654
 -18541192.82644 -14447677.60644  20852123.3004   20852123.4194
 94  4  6  3  6  0.0000000  0  8G24G12G13G17G 6G 3G 5G20
 -15084508.15644 -11754147.87944  21590769.5174   21590769.6714
  -4317251.520 4  -3364090.801 4  23336276.971    23336275.401
  12190889.433 4   9499396.731 4  24251061.303    24251059.908
   -996496.59144   -776488.31244  24834766.7134   24834765.9904
  -5142973.15144  -4007507.32044  24392033.2584   24392032.2244
  -3696034.785 4  -2880024.274 4  24485468.239    24485466.211
 -24972797.58744 -19459311.92844  20304622.3484   20304621.7564
 -18589344.57944 -14485198.43744  20842960.4474   20842960.6114
 94  4  6  3  6 30.0000000  0  8G24G12G13G17G 6G 3G 5G20
 -15018397.37544 -11702632.97644  21603349.9664   21603349.8174
  -4213477.849 4  -3283228.258 4  23356024.435    23356022.903
  12254353.246 4   9548849.074 4  24263137.975    24263136.892
  -1095389.60244   -853547.67844  24815947.5974   24815950.7014
  -5219341.82344  -4067015.29744  24377500.3354   24377498.2624
  -3761131.102 4  -2930748.626 4  24473080.736    24473078.710
 -24946812.07344 -19439063.47844  20309567.2354   20309566.4554
 -18637023.79444 -14522351.05944  20833887.3144   20833887.3644
 94  4  6  3  7  0.0000000  0  8G24G12G13G17G 6G 3G 5G20
 -14952092.79544 -11650967.05944  21615967.3854   21615967.1654
  -4109546.170 4  -3202242.575 4  23375802.267    23375800.244
  12317791.360 4   9598281.394 4  24275210.114    24275208.914
  -1194167.85844   -930517.60544  24797149.7624   24797155.3404
  -5295726.07444  -4126535.37944  24362964.9494   24362963.3314
  -3826161.728 4  -2981421.789 4  24460705.553    24460703.564
 -24920301.68744 -19418406.03844  20314612.0484   20314611.3174
 -18684215.22344 -14559123.58644  20824907.1464   20824907.0294
 94  4  6  3  7 30.0000000  0  8G24G12G13G17G 6G 3G20G 5
 -14885583.04844 -11599141.27344  21628623.7094   21628623.5734
  -4005446.318 4  -3121125.835 4  23395612.018    23395609.736
  12381217.604 4   9647704.461 4  24287279.937    24287278.391
  -1292810.29844  -1007381.76244  24778378.3614   24778385.3444
  -5372131.07044  -4186071.67844  24348425.6504   24348428.5694
  -3891113.769 4  -3032033.709 4  24448345.405    24448343.560
 -18730903.38344 -14595503.95344  20816022.7294   20816022.6384
 -24893233.38544 -19397313.85744  20319762.9384   20319762.3304
 94  4  6  3  8  0.0000000  0  8G24G12G13G17G 6G 3G 5G20
 -14818851.80544 -11547142.89044  21641322.1574   21641322.2254
  -3901178.118 4  -3039877.909 4  23415453.719    23415451.355
  12444635.600 4   9697121.089 4  24299348.009    24299346.354
  -1391314.22844  -1084137.95144  24759634.0104   24759638.4624
  -5448552.11944  -4245620.48544  24333883.3224   24333883.2634
  -3955984.282 4  -3082582.101 4  24436001.023    24435999.315
 -24865594.92244 -19375777.39844  20325022.4064   20325021.6364
 -18777082.70144 -14631487.82144  20807234.7864   20807235.1294
 94  4  6  3  8 30.0000000  0  8G24G12G13G17G 6G 3G 5G20
 -14751888.11944 -11494963.38444  21654064.9294   21654065.1814
  -3796749.126 4  -2958504.687 4  23435325.928    23435323.839
  12508041.194 4   9746528.051 4  24311413.521    24311411.931
  -1489667.86244  -1160777.00344  24740918.4184   24740921.9334
  -5524983.48744  -4305177.28744  24319339.1124   24319341.8394
  -4020778.169 4  -3133070.778 4  24423671.033    24423669.289
 -24837398.22044 -19353805.94144  20330388.0814   20330387.3374
 -18822755.72144 -14667077.16844  20798543.5254   20798543.8304
 94  4  6  3  9  0.0000000  0  8G24G12G13G17G 6G 3G 5G20
 -14684701.47144 -11442610.13744  21666850.3664   21666850.4074
  -3692173.411 4  -2877017.144 4  23455226.002    23455224.239
  12571423.518 4   9795916.898 4  24323474.650    24323473.037
  -1587869.06144  -1237297.32344  24722231.7024   24722233.0194
  -5601435.31944  -4364750.08644  24304790.6424   24304792.8234
  -4085507.001 4  -3183508.767 4  24411353.570    24411351.672
 -24808655.09144 -19331408.69544  20335857.7374   20335857.0604
 -18867931.39144 -14702278.97544  20789947.0294   20789947.3554
 94  4  6  3  9 30.0000000  0  8G24G12G13G17G 6G 3G 5G20
 -14617301.89244 -11390090.97044  21679676.1354   21679676.3824
  -3587450.927 4  -2795415.241 4  23475153.783    23475152.470
  12634786.304 4   9845290.510 4  24335532.222    24335530.769
  -1685928.72544  -1313707.36444  24703571.4374   24703570.9334
  -5677914.96544  -4424344.55544  24290236.9414   24290236.7754
  -4150168.095 4  -3233893.982 4  24399048.879    24399046.981
 -24779361.00244 -19308582.13044  20341432.2384   20341431.3204
 -18912604.34544 -14737089.05544  20781446.0644   20781446.1164
 94  4  6  3 10  0.0000000  0  8G24G12G13G17G 6G 3G 5G20
 -14549712.94244 -11337424.23644  21692537.9184   21692537.9974
  -3482595.150 4  -2713709.471 4  23495107.081    23495105.767
  12698119.652 4   9894641.197 4  24347583.915    24347582.653
  -1783854.58444  -1390013.11744  24684936.5294   24684942.1754
  -5754419.57344  -4483958.44544  24275678.4654   24275680.0614
  -4214772.093 4  -3284234.710 4  24386754.978    24386753.101
 -24749532.94344 -19285339.48544  20347108.4324   20347107.3594
 -18956782.80844 -14771513.81344  20773039.0164   20773039.2634
 94  4  6  3 10 30.0000000  0  8G24G12G13G17G 6G 3G 5G20
 -14481909.95444 -11284590.72444  21705440.2524   21705440.4814
  -3377591.339 4  -2631888.350 4  23515088.658    23515087.139
  12761441.596 4   9943982.992 4  24359634.059    24359632.759
  -1881621.83844  -1466195.30544  24666331.7304   24666334.2114
  -5830933.38544  -4543579.54444  24261118.3164   24261119.3544
  -4279301.726 4  -3334517.493 4  24374475.337    24374473.671
 -24719147.41144 -19261662.44244  20352890.5954   20352889.5064
 -19000446.98244 -14805537.82644  20764729.8254   20764730.2634
 94  4  6  3 11  0.0000000  0  8G24G12G13G17G 6G 3G 5G20
 -14413916.54444 -11231608.83244  21718378.8364   21718378.7764
  -3272456.669 4  -2549965.259 4  23535095.297    23535093.403
  12824738.447 4   9993305.220 4  24371679.139    24371677.561
  -1979253.85844  -1542272.12044  24647752.8924   24647750.9534
  -5907476.19344  -4603223.24144  24246552.5604   24246553.9054
  -4343771.466 4  -3384753.601 4  24362207.164    24362205.653
 -24688204.13244 -19237550.79244  20358778.7754   20358777.7894
 -19043608.88944 -14839170.47044  20756516.6294   20756516.8204
 94  4  6  3 11 30.0000000  0  8G24G12G13G17G 6G 3G 5G20
 -14345729.91244 -11178476.38544  21731354.2154   21731354.3794
  -3167187.211 4  -2467937.135 4  23555127.595    23555125.541
  12888017.623 4  10042613.684 4  24383720.652    24383719.260
  -2076738.05444  -1618233.74644  24629202.3524   24629203.4404
  -5984042.04744  -4662884.89444  24231982.6494   24231983.4464
  -4408174.766 4  -3434937.932 4  24349951.515    24349949.956
 -24656697.65744 -19213000.28844  20364774.1874   20364773.3994
 -19086259.49444 -14872404.69144  20748400.5434   20748400.5624
 94  4  6  3 12  0.0000000  0  8G24G12G13G17G 6G 3G 5G20
 -14277316.08044 -11125166.89544  21744372.7834   21744372.8234
  -3061780.811 4  -2385802.308 4  23575185.976    23575183.963
  12951284.752 4  10091912.748 4  24395759.972    24395758.915
  -2174055.41244  -1694065.33344  24610683.3034   24610685.8264
  -6060623.29944  -4722558.50944  24217409.9044   24217410.1644
  -4472506.833 4  -3485066.761 4  24337709.671    24337707.954
 -24624632.57744 -19188014.50644  20370876.0244   20370875.3334
 -19128391.43744 -14905234.76244  20740383.1294   20740383.3534
 94  4  6  3 12 30.0000000  0  8G24G12G13G17G 6G 3G 5G20
 -14208671.84844 -11071677.87844  21757435.4414   21757435.6094
  -2956246.795 4  -2303568.042 4  23595268.553    23595266.619
  13014534.080 4  10141197.960 4  24407795.855    24407794.844
  -2271218.59444  -1769776.83044  24592193.3534   24592194.3324
  -6137233.87244  -4782255.01844  24202831.4184   24202832.5284
  -4536774.454 4  -3535145.376 4  24325479.844    24325478.350
 -24592024.09244 -19162605.29644  20377081.1054   20377080.4464
 -19170009.00144 -14937664.01944  20732463.4934   20732463.6234
 94  4  6  3 13  0.0000000  0  8G24G12G13G17G 6G 3G 5G20
 -14139834.18244 -11018038.12444  21770534.8974   21770534.5684
  -2850593.587 4  -2221240.901 4  23615373.752    23615371.715
  13077760.481 4  10190465.309 4  24419827.415    24419826.381
  -2368231.74144  -1845371.41744  24573731.6314   24573735.8764
  -6213883.18644  -4841981.69544  24188245.2944   24188245.7584
  -4600983.391 4  -3585178.258 4  24313261.181    24313259.919
 -24558882.11044 -19136780.37244  20383387.7864   20383387.0554
 -19211115.35544 -14969694.92644  20724641.1754   20724641.3494
 94  4  6  3 13 30.0000000  0  8G24G12G13G17G 6G 3G 5G20
 -14070796.67244 -10964242.64644  21783672.4414   21783672.1964
  -2744828.153 4  -2138826.307 4  23635500.040    23635498.069
  13140960.639 4  10239712.201 4  24431853.675    24431852.917
  -2465087.92044  -1920843.69844  24555300.5434   24555303.3484
  -6290562.46944  -4901731.73144  24173653.4704   24173652.5794
  -4665137.867 4  -3635168.699 4  24301052.966    24301051.456
 -24525218.79644 -19110549.21644  20389793.7734   20389793.0114
 -19251712.40144 -15001328.97444  20716915.7214   20716915.9894
 94  4  6  3 14  0.0000000  0  8G24G12G13G17G 6G 3G20G 5
 -14001571.71444 -10910301.10544  21796845.5554   21796845.2594
  -2638955.486 4  -2056328.146 4  23655646.892    23655644.771
  13204133.114 4  10288937.525 4  24443874.777    24443874.110
  -2561790.73944  -1996196.48044  24536898.8704   24536902.9034
  -6367270.33544  -4961504.04644  24159056.2134   24159056.2774
  -4729240.259 4  -3685118.543 4  24288854.706    24288853.019
 -19291800.11644 -15032566.13644  20709287.3094   20709287.5524
 -24491030.66544 -19083909.11144  20396299.7074   20396298.8854
 94  4  6  3 14 30.0000000  0  8G24G12G13G17G 6G 3G 5G20
 -13932193.06344 -10856239.80544  21810047.6844   21810047.5304
  -2532978.987 4  -1973749.084 4  23675813.519    23675811.473
  13267277.966 4  10338141.312 4  24455891.003    24455890.111
  -2658340.19244  -2071429.74544  24518526.6164   24518528.4564
  -6444008.89044  -5021300.25844  24144453.2234   24144453.2134
  -4793291.318 4  -3735028.404 4  24276666.252    24276664.343
 -24456305.18244 -19056850.29244  20402907.5964   20402907.0334
 -19331377.03044 -15063405.27744  20701756.1034   20701756.0524
 94  4  6  3 15  0.0000000  0  8G24G12G13G17G 6G 3G 5G20
 -13862655.11744 -10802054.37544  21823280.1554   21823280.2284
  -2426895.310 4  -1891086.504 4  23696000.525    23695998.630
  13330401.892 4  10387328.787 4  24467902.907    24467902.439
  -2754722.37144  -2146532.64844  24500186.3404   24500188.4354
  -6520765.96244  -5081110.90544  24129847.0784   24129848.8214
  -4857285.109 4  -3784893.646 4  24264488.480    24264486.602
 -24421023.16744 -19029357.81044  20409621.5064   20409620.9694
 -19370434.75244 -15093839.85144  20694323.5224   20694323.4894
 94  4  6  3 15 30.0000000  0  8G24G12G13G17G 6G 3G 5G20
 -13792941.78044 -10747732.27444  21836546.0494   21836546.2104
  -2320706.244 4  -1808341.806 4  23716207.696    23716206.003
  13393506.819 4  10436501.467 4  24479911.364    24479910.896
  -2850938.62744  -2221506.26844  24481876.4434   24481878.5064
  -6597536.46844  -5140932.03044  24115238.5684   24115238.5324
  -4921220.794 4  -3834713.613 4  24252321.752    24252320.164
 -24385187.10244 -19001433.60044  20416440.8994   20416440.2074
 -19408969.87544 -15123867.20244  20686990.6784   20686990.7094
 94  4  6  3 16  0.0000000  0  8G24G12G13G17G 6G 3G 5G20
 -13723067.96244 -10693285.12544  21849842.5854   21849842.6344
  -2214414.479 4  -1725517.089 4  23736434.384    23736432.600
  13456593.601 4  10485660.013 4  24491916.300    24491915.997
  -2946990.83344  -2296352.09144  24463597.4774   24463600.2474
  -6674328.45844  -5200769.87344  24100625.5594   24100627.4264
  -4985098.396 4  -3884488.326 4  24240166.353    24240164.529
 -24348799.68544 -18973079.76144  20423365.0704   20423364.4834
 -19446980.22944 -15153485.64544  20679757.4444   20679757.4674
 94  4  6  3 16 30.0000000  0  8G24G12G13G17G 6G 3G20G 5
 -13653009.70944 -10638694.25744  21863174.2504   21863174.2794
  -2108013.023 4  -1642606.897 4  23756681.937    23756679.943
  13519672.379 4  10534812.323 4  24503920.197    24503919.441
  -3042866.05844  -2371059.99644  24445352.9234   24445354.5854
  -6751116.70744  -5260604.82244  24086012.8754   24086012.6674
  -5048908.510 4  -3934210.438 4  24228023.682    24228021.694
 -19484453.90344 -15182685.89644  20672626.3864   20672626.4664
 -24311856.08044 -18944292.53044  20430395.3304   20430394.7464
 94  4  6  3 17  0.0000000  0  8G24G12G13G17G 6G 3G20G 5
 -13582753.83744 -10583949.39944  21876543.5954   21876543.9044
  -2001506.187 4  -1559614.584 4  23776949.511    23776947.430
  13582742.700 4  10583958.032 4  24515921.951    24515920.970
  -3138568.90844  -2445633.59744  24427141.7834   24427144.3974
  -6827891.20244  -5320429.05244  24071402.8494   24071402.4514
  -5112652.553 4  -3983881.062 4  24215893.357    24215891.622
 -19521390.31844 -15211467.50344  20665597.6874   20665597.5194
 -24274367.89244 -18915080.95144  20437529.1024   20437528.4074
 94  4  6  3 17 30.0000000  0  8G24G12G13G17G 6G 3G20G 5
 -13512319.24244 -10529065.28244  21889946.8184   21889947.1384
  -1894908.336 4  -1476551.348 4  23797234.420    23797232.192
  13645793.769 4  10633088.743 4  24527920.144    24527918.874
  -3234109.93844  -2520081.10644  24408961.3914   24408963.5584
  -6904656.43644  -5380246.06444  24056794.5534   24056794.8904
  -5176342.310 4  -4033509.387 4  24203773.447    24203771.765
 -19557798.85044 -15239837.77244  20658669.4504   20658669.2704
 -24236358.03944 -18885462.88344  20444762.1014   20444761.5334
 94  4  6  3 18  0.0000000  0  8G24G12G13G17G 6G 3G20G 5
 -13441700.78144 -10474037.88844  21903385.1404   21903385.0564
  -1788219.961 4  -1393417.565 4  23817536.607    23817534.447
  13708828.520 4  10682206.721 4  24539915.209    24539914.194
  -3329473.20244  -2594390.07444  24390814.3024   24390815.7194
  -6981409.08144  -5440053.28144  24042188.3534   24042189.5274
  -5239975.619 4  -4083093.722 4  24191664.422    24191662.836
 -19593675.32744 -15267793.45144  20651842.2284   20651842.2024
 -24197824.37544 -18855436.64644  20452094.8434   20452094.1344
 94  4  6  3 18 30.0000000  0  8G24G12G13G17G 6G 3G20G 5
 -13370910.50344 -10418876.61544  21916856.1524   21916855.8554
  -1681459.005 4  -1310227.229 4  23837852.605    23837850.614
  13771832.562 4  10731300.790 4  24551904.397    24551903.533
  -3424684.36144  -2668580.52444  24372695.8534   24372696.9134
  -7058168.51144  -5499865.76244  24027581.8214   24027583.3264
  -5303567.860 4  -4132646.057 4  24179563.341    24179561.629
 -19629032.62344 -15295344.57344  20645113.9664   20645113.8394
 -24158778.47544 -18825011.26844  20459525.0004   20459524.4064
 94  4  6  3 19  0.0000000  0  8G24G12G13G17G 6G 3G20G 5
 -13299965.09244 -10363594.45944  21930356.7114   21930356.5904
  -1574634.126 4  -1226987.086 4  23858180.814    23858178.771
  13834800.702 4  10780366.896 4  24563887.073    24563886.289
  -3519747.85444  -2742655.88244  24354605.0984   24354606.0724
  -7134961.66044  -5559704.54244  24012968.9064   24012970.7054
  -5367125.222 4  -4182171.216 4  24167468.797    24167467.026
 -19663874.43844 -15322494.02544  20638483.8444   20638483.8504
 -24119230.28544 -18794194.49844  20467050.8854   20467050.1774
 94  4  6  3 19 30.0000000  0  8G24G12G13G17G 6G 3G20G 5
 -13228852.44044 -10308181.99044  21943888.8614   21943888.9094
  -1467736.956 4  -1143690.620 4  23878522.786    23878520.747
  13897744.997 4  10829414.413 4  24575864.908    24575864.110
  -3614644.02744  -2816600.86544  24336546.4624   24336547.4324
  -7211789.92844  -5619570.67344  23998349.3954   23998349.9294
  -5430636.338 4  -4231660.341 4  24155382.987    24155380.962
 -19698187.56844 -15349231.51244  20631954.1314   20631954.1284
 -24079165.42044 -18762975.11644  20474674.9114   20474674.0884
 94  4  6  3 20  0.0000000  0  8G24G12G13G17G 6G 3G20G 5
 -13157581.40944 -10252646.11244  21957451.2074   21957451.6014
  -1360777.129 4  -1060345.328 4  23898876.516    23898874.471
  13960659.168 4  10878438.462 4  24587837.220    24587836.066
  -3709390.66344  -2890429.35844  24318517.1164   24318520.8924
  -7288675.04844  -5679481.12944  23983718.7864   23983717.3704
  -5494108.561 4  -4281119.165 4  24143304.555    24143302.753
 -19731976.76244 -15375560.74044  20625524.2754   20625524.5374
 -24038588.77644 -18731356.94444  20482396.3464   20482395.5844
 94  4  6  3 20 30.0000000  0  8G24G12G13G17G 6G 3G20G 5
 -13086166.07044 -10196997.78944  21971041.0074   21971041.2634
  -1253761.026 4   -976956.180 4  23919241.097    23919238.944
  14023540.458 4  10927436.871 4  24599803.067    24599801.824
  -3804007.87444  -2964156.96544  24300512.2424   24300515.8934
  -7365619.10844  -5739437.49944  23969076.9474   23969077.0464
  -5557545.739 4  -4330550.686 4  24131232.778    24131231.001
 -19765243.49444 -15401482.85144  20619193.8974   20619193.9314
 -23997508.12244 -18699346.03744  20490213.8184   20490213.1894
 94  4  6  3 21  0.0000000  0  8G24G12G13G17G 6G 3G20G 5
 -13014587.58144 -10141222.33844  21984662.0434   21984662.2914
  -1146664.807 4   -893504.602 4  23939620.870    23939618.588
  14086416.228 4  10976430.990 4  24611767.663    24611766.547
  -3898454.34644  -3037751.54944  24282540.0634   24282542.0164
  -7442584.10344  -5799410.16644  23954431.1024   23954430.8574
  -5620921.305 4  -4379934.196 4  24119172.880    24119171.045
 -19797959.38844 -15426975.73544  20612968.1884   20612968.2534
 -23955898.14944 -18666922.67644  20498131.9014   20498131.1594
 94  4  6  3 21 30.0000000  0  8G24G12G13G17G 6G 3G20G 5
 -12942844.42244 -10085318.57244  21998314.2194   21998314.2924
  -1039483.746 4   -809986.909 4  23960016.706    23960014.538
  14149294.955 4  11025427.408 4  24623733.110    24623732.156
  -3992724.38744  -3111208.64144  24264601.4044   24264603.1384
  -7519554.48144  -5859387.02544  23939784.2544   23939785.5134
  -5684227.631 4  -4429263.750 4  24107125.921    24107124.276
 -19830114.88444 -15452031.94844  20606849.1874   20606849.2524
 -23913744.69944 -18634075.82844  20506153.4994   20506152.7954
 94  4  6  3 22  0.0000000  0  8G24G12G13G17G 6G 3G20G 5
 -12870961.04344 -10029305.54244  22011993.0604   22011993.3484
   -932234.986 4   -726416.461 4  23980425.549    23980423.397
  14212162.766 4  11074415.323 4  24635696.453    24635695.721
  -4086835.43544  -3184541.86144  24246692.1764   24246695.5714
  -7596535.53244  -5919372.20944  23925135.4954   23925134.3664
  -5747479.657 4  -4478550.990 4  24095089.232    24095087.701
 -19861722.46944 -15476661.21944  20600834.5294   20600834.4104
 -23871070.78944 -18600823.42544  20514274.0224   20514273.3774
 94  4  6  3 22 30.0000000  0  8G24G12G13G17G 6G 3G20G 5
 -12798926.25444  -9973174.52944  22025700.6254   22025700.8024
   -824917.680 4   -642792.606 4  24000847.399    24000845.248
  14275023.965 4  11123398.095 4  24647658.312    24647658.049
  -4180759.70044  -3257729.52844  24228818.4614   24228820.5654
  -7673509.90744  -5979352.19144  23910487.6144   23910486.5964
  -5810673.936 4  -4527793.227 4  24083063.622    24083062.100
 -19892776.59944 -15500859.22744  20594925.1614   20594924.9984
 -23827865.86844 -18567157.24844  20522495.6164   20522494.8114
 94  4  6  3 23  0.0000000  0  8G24G12G13G17G 6G 3G20G 5
 -12726741.04644  -9916926.30844  22039436.8334   22039436.9114
   -717538.004 4   -559120.148 4  24021281.109    24021279.032
  14337876.248 4  11172373.915 4  24659618.884    24659618.173
  -4274486.11244  -3330763.01444  24210982.9304   24210987.2914
  -7750482.03344  -6039330.42444  23895839.8364   23895839.6594
  -5873813.788 4  -4576993.055 4  24071048.403    24071046.978
 -19923278.85644 -15524627.20544  20589120.6094   20589120.6554
 -23784116.46844 -18533066.80444  20530820.6874   20530820.0424
 94  4  6  3 23 30.0000000  0  8G24G12G13G17G 6G 3G20G 5
 -12654427.14144  -9860577.80644  22053197.7634   22053198.0114
   -610112.250 4   -475411.784 4  24041723.505    24041721.440
  14400706.837 4  11221332.829 4  24671574.917    24671574.518
  -4368025.31344  -3403650.60644  24193183.1274   24193184.2874
  -7827478.50844  -6099327.63944  23881187.4934   23881186.6804
  -5936913.140 4  -4626161.331 4  24059040.939    24059039.630
 -19953240.85444 -15547974.20044  20583418.9284   20583418.9554
 -23739843.36044 -18498568.27344  20539245.5104   20539245.0144
 94  4  6  3 24  0.0000000  0  8G24G12G13G17G 6G 3G20G 5
 -12581984.25144  -9804128.78244  22066983.2434   22066983.4954
   -502641.757 4   -391668.558 4  24062174.462    24062172.313
  14463517.809 4  11270276.454 4  24683527.489    24683526.673
  -4461376.45044  -3476391.68444  24175419.1514   24175419.8124
  -7904493.68944  -6159339.41344  23866531.6324   23866531.3624
  -5999970.496 4  -4675296.883 4  24047041.512    24047040.278
 -19982659.23844 -15570897.60044  20577820.7924   20577820.8914
 -23695044.98144 -18463660.44044  20547770.3284   20547769.7794
 94  4  6  3 24 30.0000000  0  8G24G12G13G17G 6G 3G20G 5
 -12509410.50244  -9747577.79244  22080793.7624   22080793.8594
   -395118.664 4   -307884.343 4  24082635.398    24082633.358
  14526320.641 4  11319213.733 4  24695478.232    24695477.492
  -4554527.46344  -3548976.80044  24157693.2114   24157699.2344
  -7981517.83944  -6219358.18944  23851874.2004   23851873.3674
  -6062975.724 4  -4724391.805 4  24035051.822    24035050.706
 -20011521.62944 -15593387.75844  20572328.5554   20572328.6924
 -23649698.94344 -18428325.85944  20556399.4144   20556398.9194
 94  4  6  3 25  0.0000000  0  7G24G12G17G 6G 3G20G 5
 -12436716.16444  -9690932.83944  22094627.2134   22094626.7794
   -287540.428 4   -224057.161 4  24103106.786    24103104.809
  -4647482.13044  -3621408.95344  24140004.4994   24140006.3414
  -8058552.55444  -6279385.18244  23837214.9824   23837214.7964
  -6125923.372 4  -4773441.859 4  24023073.280    24023072.213
 -20039820.79644 -15615439.04344  20566943.4234   20566943.4904
 -23603806.98544 -18392565.88444  20565132.4514   20565131.7554
 94  4  6  3 25 30.0000000  0  7G24G12G17G 6G 3G20G 5
 -12363901.11044  -9634193.81844  22108483.4244   22108483.1074
   -179918.657 4   -140196.056 4  24123586.450    24123584.648
  -4740256.65644  -3693700.74444  24122349.8424   24122350.9694
  -8135608.30344  -6339428.58644  23822551.8164   23822551.0084
  -6188822.836 4  -4822454.369 4  24011103.946    24011102.712
 -20067563.97244 -15637057.08844  20561664.1364   20561664.0824
 -23557397.13444 -18356402.36044  20573964.0754   20573963.4284
 94  4  6  3 26  0.0000000  0  8G16G24G12G17G 6G 3G20G 5
        -0.03254         0.73154  21322511.9374   21322511.5154
 -12290912.50444  -9577319.56144  22122372.6044   22122372.7494
    -72229.023 4    -56282.069 4  24144079.128    24144077.418
  -4832835.39544  -3765839.92944  24104732.2594   24104730.9674
  -8212643.41844  -6399455.91044  23807892.7514   23807891.9024
  -6251646.850 4  -4871408.087 4  23999148.914    23999147.626
 -20094722.07044 -15658219.22744  20556496.1084   20556496.0434
 -23510432.19044 -18319806.29844  20582901.2394   20582900.4074
 94  4  6  3 26 30.0000000  0  8G16G24G12G17G 6G 3G20G 5
    -38534.48744    -30026.07944  21315178.9084   21315178.4634
 -12217750.90944  -9520310.51044  22136294.8024   22136294.7144
     35520.815 4     27678.833 4  24164583.393    24164581.547
  -4925212.42044  -3837821.95244  24087153.3104   24087154.1274
  -8289674.10844  -6459479.77744  23793234.1454   23793234.0154
  -6314400.575 4  -4920307.038 4  23987207.128    23987205.867
 -20121298.06144 -15678927.77744  20551438.8084   20551438.6874
 -23462928.99944 -18282790.82844  20591940.6524   20591939.6874
 94  4  6  3 27  0.0000000  0  8G16G24G12G17G 6G 3G20G 5
    -76551.30244    -59649.54044  21307944.5064   21307944.2694
 -12144418.75944  -9463168.55544  22150249.5904   22150249.4354
    143305.447 4    111666.852 4  24185094.171    24185092.322
  -5017411.55344  -3909665.35644  24069607.9964   24069611.5944
  -8366726.31944  -6519520.42244  23778571.7464   23778570.9244
  -6377106.852 4  -4969169.018 4  23975274.537    23975273.121
 -20147313.18344 -15699199.28944  20546488.2784   20546488.2134
 -23414915.90044 -18245378.02244  20601077.2584   20601076.2094
 94  4  6  3 27 30.0000000  0  8G16G24G12G17G 6G 3G20G 5
   -114041.15144    -88862.37444  21300810.4224   21300810.2934
 -12070901.14244  -9405882.07644  22164239.4964   22164239.6684
    251125.247 4    195682.279 4  24205611.624    24205609.807
  -5109438.39744  -3981374.50244  24052095.7134   24052097.5504
  -8443794.90344  -6579573.82844  23763905.8904   23763905.4294
  -6439762.644 4  -5017991.654 4  23963351.719    23963350.089
 -20172762.48844 -15719029.90344  20541645.4834   20541645.3434
 -23366391.84144 -18207567.06544  20610310.9474   20610310.2204
 94  4  6  3 28  0.0000000  0  8G16G24G12G17G 6G 3G20G 5
   -151000.69944   -117661.98844  21293777.1144   21293777.1054
 -11997209.73744  -9348460.19044  22178262.4234   22178262.5214
    358980.698 4    279725.486 4  24226135.962    24226133.943
  -5201280.96844  -4052940.07544  24034618.9824   24034621.6184
  -8520873.29744  -6639634.88244  23749238.3154   23749237.5844
  -6502365.145 4  -5066772.764 4  23951438.870    23951437.237
 -20197640.86344 -15738415.63744  20536911.1984   20536911.1234
 -23317342.55344 -18169346.84144  20619644.6914   20619644.1754
 94  4  6  3 28 30.0000000  0  8G16G24G12G17G 6G 3G20G 5
   -187449.62144   -146063.71444  21286841.0074   21286841.0364
 -11923382.11744  -9290932.15844  22192311.3634   22192311.6424
    466853.036 4    363781.852 4  24246663.269    24246661.428
  -5292942.59244  -4124364.67644  24017176.7784   24017176.5474
  -8597984.19744  -6699721.26144  23734564.5814   23734564.3464
  -6564930.375 4  -5115524.833 4  23939532.991    23939531.282
 -20221962.94044 -15757367.89444  20532282.9044   20532282.6744
 -23267786.27744 -18130731.56144  20629074.9804   20629074.3924
 94  4  6  3 29  0.0000000  0  8G16G24G12G17G 6G 3G20G 5
   -223386.67444   -174066.57944  21280002.4734   21280002.2854
 -11849434.49244  -9233310.61744  22206382.8744   22206383.2664
    574720.946 4    447834.766 4  24267189.883    24267187.849
  -5384452.07144  -4195670.66344  23999763.1054   23999763.6424
  -8675132.09944  -6759836.47144  23719884.0894   23719883.0354
  -6627476.929 4  -5164262.354 4  23927630.644    23927629.125
 -20245745.53444 -15775899.77444  20527757.3204   20527756.9374
 -23217732.13044 -18091728.32644  20638600.0834   20638599.5494
 94  4  6  3 29 30.0000000  0  8G16G24G12G17G 6G 3G20G 5
   -258773.97344   -201641.06944  21273268.5344   21273268.2944
 -11775368.49444  -9175596.84944  22220477.1774   22220477.4324
    682602.610 4    531898.394 4  24287719.009    24287717.051
  -5475786.43444  -4266840.22844  23982382.5984   23982384.5564
  -8752299.12444  -6819966.58844  23705199.8714   23705198.9804
  -6689984.259 4  -5212969.308 4  23915735.803    23915734.359
 -20268966.23944 -15793993.82044  20523338.4194   20523338.2664
 -23167160.40344 -18052321.78444  20648223.4814   20648222.7674
 94  4  6  3 30  0.0000000  0  8G16G24G17G12G 6G 3G20G 5
   -293602.28844   -228779.98644  21266640.8244   21266640.4754
 -11701191.67444  -9117796.72144  22234592.4624   22234592.8464
  -5566929.70444  -4337860.90444  23965037.8624   23965037.3384
    790497.330 4    615972.188 4  24308250.640    24308248.700
  -8829475.33644  -6880103.86244  23690513.5684   23690512.7454
  -6752450.669 4  -5261644.378 4  23903848.889    23903847.511
 -20291621.18944 -15811647.01644  20519027.3624   20519027.1374
 -23116064.76344 -18012506.99644  20657946.6774   20657945.8784
 94  4  6  3 30 30.0000000  0  8G16G24G17G12G 6G 3G20G 5
   -327863.49344   -255476.99644  21260120.9784   21260120.9124
 -11626897.74944  -9059905.34044  22248730.2544   22248730.3714
  -5657893.53244  -4408741.72244  23947728.1204   23947729.1544
    898399.961 4    700052.149 4  24328783.855    24328781.856
  -8906663.54544  -6940250.49244  23675824.9964   23675825.8184
  -6814878.344 4  -5310289.256 4  23891969.192    23891967.786
 -20313711.25144 -15828860.04044  20514823.8694   20514823.6234
 -23064456.37244 -17972292.66644  20667767.3994   20667766.4744
 94  4  6  3 31  0.0000000  0  8G16G24G17G12G 6G 3G20G 5
   -361556.90944   -281731.57144  21253709.4284   21253709.0464
 -11552483.48544  -9001920.19244  22262890.8474   22262891.1654
  -5748681.26644  -4479485.34744  23930452.0714   23930453.8164
   1006307.801 4    784136.171 4  24349318.162    24349316.066
  -8983864.59244  -7000407.11144  23661133.9514   23661134.9914
  -6877267.628 4  -5358904.216 4  23880096.681    23880095.434
 -20335234.86144 -15845631.67444  20510727.9414   20510727.7374
 -23012343.58944 -17931685.30344  20677684.1954   20677683.5694
 94  4  6  3 31 30.0000000  0  8G16G24G17G12G 6G 3G20G 5
   -394685.09444   -307545.71544  21247405.2464   21247405.0904
 -11477944.89644  -8943838.16344  22277075.0714   22277075.2284
  -5839272.89444  -4550076.13744  23913213.2494   23913213.7064
   1114226.649 4    868228.778 4  24369854.688    24369852.244
  -9061063.56744  -7060562.13844  23646443.0154   23646442.7634
  -6939610.296 4  -5407482.861 4  23868233.233    23868231.800
 -20356182.17144 -15861954.24044  20506741.7564   20506741.6084
 -22959723.10344 -17890682.33244  20687697.5634   20687696.8594
 94  4  6  3 32  0.0000000  0  8G16G24G17G12G 6G 3G20G 5
   -427253.85044   -332923.93244  21241207.6084   21241207.8824
 -11403263.18844  -8885644.60644  22291286.5004   22291286.6544
  -5929655.47544  -4620504.02544  23896013.9024   23896015.6824
   1222157.173 4    952330.479 4  24390393.322    24390390.637
  -9138243.19344  -7120702.08144  23631756.0554   23631755.3144
  -7001902.968 4  -5456022.553 4  23856379.318    23856377.970
 -20376548.05944 -15877823.75044  20502866.3024   20502866.2274
 -22906599.13844 -17849287.04344  20697806.7214   20697806.0674
 94  4  6  3 32 30.0000000  0  8G16G24G17G 6G12G 3G20G 5
   -459277.92444   -357877.72144  21235113.6254   21235113.5844
 -11328443.90144  -8827343.84644  22305524.1914   22305523.9064
  -6019835.47444  -4690774.07744  23878853.0664   23878856.7424
  -9215415.79744  -7180836.53344  23617070.5964   23617071.1914
   1330086.349 4   1036431.138 4  24410931.661    24410928.766
  -7064155.835 4  -5504531.233 4  23844532.993    23844531.654
 -20396341.19644 -15893246.96244  20499099.6054   20499099.4234
 -22852988.78844 -17807512.74944  20708008.4894   20708007.6524
 94  4  6  3 33  0.0000000  0  8G16G24G 6G17G12G 3G20G 5
   -490773.54044   -382419.73244  21229120.0584   21229120.0454
 -11253516.10644  -8768958.53444  22319782.4124   22319782.0654
  -9292587.32844  -7240970.16544  23602385.4864   23602384.1464
  -6109806.40944  -4760881.23244  23861731.3424   23861730.6834
   1437998.954 4   1120518.881 4  24431466.744    24431463.665
  -7126381.825 4  -5553018.972 4  23832691.769    23832690.356
 -20415572.84644 -15908232.64944  20495439.8964   20495439.8424
 -22798900.57144 -17765366.08544  20718301.0794   20718300.5134
 94  4  6  3 33 30.0000000  0  8G16G24G17G 6G12G 3G20G 5
   -521736.34644   -406546.55744  21223227.9354   21223228.0374
 -11178482.97944  -8710491.13544  22334060.7854   22334060.8734
  -6199569.93944  -4830826.75744  23844649.4274   23844651.1944
  -9369758.75844  -7301103.71544  23587700.3554   23587700.4984
   1545888.128 4   1204588.363 4  24451997.257    24451994.273
  -7188585.358 4  -5601489.216 4  23820854.752    23820853.442
 -20434245.43944 -15922782.70844  20491886.7024   20491886.5954
 -22744340.50944 -17722851.75244  20728683.4174   20728682.5694
 94  4  6  3 34  0.0000000  0  8G16G24G17G 6G12G 3G20G 5
   -552156.67744   -430250.67844  21217439.1574   21217439.0494
 -11103351.84744  -8651947.38244  22348357.7194   22348357.4354
  -6289127.49244  -4900611.80244  23827607.4114   23827609.0854
  -9446939.23944  -7361244.32544  23573013.1744   23573014.3424
   1653758.000 4   1288642.800 4  24472524.066    24472521.310
  -7250759.738 4  -5649936.739 4  23809023.245    23809022.023
 -20452351.07644 -15936890.97944  20488441.4434   20488441.3634
 -22689299.89444 -17679962.96144  20739157.3314   20739156.7314
 94  4  6  3 34 30.0000000  0  8G16G24G17G 6G 3G12G20G 5
   -582032.62244   -453530.60344  21211754.1124   21211753.8754
 -11028138.65944  -8593339.68344  22362670.2764   22362669.9274
  -6378484.83244  -4970240.82644  23810604.0664   23810604.9414
  -9524133.31344  -7421395.51844  23558323.6524   23558323.0904
  -7312900.349 4  -5698357.950 4  23797198.260    23797197.031
   1761610.565 4   1372683.741 4  24493047.573    24493045.162
 -20469883.54544 -15950552.63044  20485105.0514   20485104.9064
 -22633757.38144 -17636683.07344  20749726.6694   20749726.0444
 94  4  6  3 35  0.0000000  0  8G16G24G 6G17G 3G12G20G 5
   -611365.23544   -476387.14844  21206172.4084   21206172.0284
 -10952868.04644  -8534687.24344  22376993.6794   22376993.9944
  -9601357.23344  -7481569.97444  23543628.7414   23543628.4784
  -6467670.75644  -5039736.27544  23793633.0954   23793632.3734
  -7375018.775 4  -5746761.871 4  23785377.590    23785376.154
   1869431.478 4   1456700.025 4  24513565.204    24513562.985
 -20486853.27944 -15963775.78744  20481875.9344   20481875.5394
 -22577719.34044 -17593017.06244  20760390.2994   20760389.8544
 94  4  6  3 35 30.0000000  0  8G16G24G 6G17G 3G12G20G 5
   -640140.39444   -498809.31844  21200696.7054   21200696.1914
 -10877519.47644  -8475974.06244  22391332.0824   22391331.8484
  -9678607.46344  -7541764.91844  23528928.5344   23528927.7814
  -6556695.24544  -5109105.91144  23776692.0284   23776691.8644
  -7437107.638 4  -5795142.759 4  23773562.394    23773560.743
   1977226.024 4   1540695.762 4  24534077.840    24534075.627
 -20503250.71844 -15976553.00044  20478755.5124   20478755.2784
 -22521173.98844 -17548955.75544  20771150.6284   20771150.1284
 94  4  6  3 36  0.0000000  0  8G16G24G 6G17G 3G12G20G 5
   -668330.70944   -520775.76944  21195332.1664   21195331.9714
 -10802063.40544  -8417177.11444  22405690.8654   22405690.9154
  -9755859.90644  -7601961.58344  23514228.0074   23514227.6334
  -6645529.51744  -5178327.35344  23759787.1124   23759789.7694
  -7499136.272 4  -5843476.713 4  23761758.828    23761757.076
   2085021.995 4   1624692.620 4  24554590.804    24554588.492
 -20519044.15644 -15988859.56444  20475749.9754   20475749.8604
 -22464084.88044 -17504470.73844  20782014.3344   20782013.7194
 94  4  6  3 36 30.0000000  0  8G16G24G17G 6G 3G12G20G 5
   -695937.67844   -542287.66344  21190078.6634   21190078.6234
 -10726502.74944  -8358298.67044  22420069.5814   22420069.7504
  -6734173.69544  -5247400.65844  23742918.3434   23742919.1924
  -9833130.69544  -7662172.54744  23499524.0344   23499522.6684
  -7561120.757 4  -5891776.266 4  23749963.514    23749961.747
   2192800.930 4   1708676.213 4  24575100.566    24575097.945
 -20534247.97544 -16000706.68744  20472856.8294   20472856.4674
 -22406474.89544 -17459579.84644  20792977.2764   20792976.2064
 94  4  6  3 37  0.0000000  0  8G16G24G17G 6G 3G12G20G 5
   -722909.59344   -563304.71244  21184946.0444   21184945.9364
 -10650782.15844  -8299295.60344  22434478.5964   22434478.7444
  -6822580.77244  -5316289.22044  23726094.8034   23726098.2164
  -9910382.65644  -7722368.84344  23484823.4644   23484823.2784
  -7623021.318 4  -5940010.426 4  23738184.143    23738182.490
   2300600.059 4   1792675.542 4  24595614.113    24595611.405
 -20548821.19044 -16012062.42944  20470083.7114   20470083.3484
 -22348325.07844 -17414268.30544  20804042.8164   20804041.8384
 94  4  6  3 37 30.0000000  0  8G16G24G17G 6G 3G12G20G 5
   -749305.92844   -583873.25844  21179922.8844   21179922.5104
 -10574937.54544  -8240195.89144  22448911.3224   22448911.6644
  -6910778.06244  -5385014.33244  23709311.5754   23709313.0264
  -9987660.82444  -7782585.56244  23470117.8364   23470117.1254
  -7684884.771 4  -5988215.663 4  23726411.756    23726410.271
   2408369.884 4   1876652.047 4  24616122.097    24616119.404
 -20562809.21544 -16022962.17844  20467421.8844   20467421.6464
 -22289684.37244 -17368574.25844  20815201.6984   20815201.0404
 94  4  6  3 38  0.0000000  0  8G16G24G 6G17G 3G12G20G 5
   -775129.82944   -603995.75444  21175008.7964   21175008.5124
 -10498970.72744  -8181000.95844  22463367.2814   22463367.8114
 -10064950.39644  -7842811.17244  23455410.3864   23455409.8884
  -6998738.92844  -5453555.18144  23692572.8344   23692574.3724
  -7746706.086 4  -6036388.063 4  23714647.494    23714645.982
   2516113.041 4   1960607.755 4  24636624.730    24636622.390
 -20576205.62744 -16033400.93044  20464872.5394   20464872.4574
 -22230556.22444 -17322500.38244  20826453.3984   20826452.6294
 94  4  6  3 38 30.0000000  0  8G16G24G 6G17G 3G12G20G 5
   -800376.52044   -623668.47544  21170204.3784   21170204.3234
 -10422882.69544  -8121711.56444  22477846.6404   22477846.7874
 -10142230.31644  -7903029.24344  23440704.4774   23440703.3754
  -7086452.78844  -5521903.56444  23675881.3114   23675883.1464
  -7808482.369 4  -6084525.371 4  23702891.884    23702890.222
   2623829.865 4   2044542.953 4  24657122.293    24657120.426
 -20589006.14744 -16043375.34844  20462436.5864   20462436.5034
 -22170939.90744 -17276046.11144  20837798.0084   20837797.4674
 94  4  6  3 39  0.0000000  0  8G16G24G 6G17G 3G12G20G 5
   -825071.96544   -642911.65244  21165505.1044   21165504.7034
 -10346681.05744  -8062333.64944  22492347.3614   22492347.0194
 -10219482.67444  -7963225.83244  23426003.8894   23426004.2484
  -7173943.07944  -5590077.75944  23659232.0724   23659235.1504
  -7870222.190 4  -6132634.278 4  23691143.215    23691141.666
   2731509.223 4   2128448.943 4  24677612.963    24677611.101
 -20601218.03244 -16052891.09244  20460112.7874   20460112.6054
 -22110836.69944 -17229212.44044  20849235.3654   20849234.6434
 94  4  6  3 39 30.0000000  0  8G16G24G17G 6G 3G12G20G 5
   -849232.18444   -661737.77444  21160907.7024   21160907.0984
 -10270379.90644  -8002878.18744  22506867.0454   22506866.6714
  -7261219.52144  -5658085.30544  23642624.1664   23642626.2534
 -10296704.34344  -8023398.51644  23411309.0814   23411308.7494
  -7931938.628 4  -6180724.962 4  23679398.913    23679397.539
   2839135.582 4   2212313.636 4  24698093.436    24698091.664
 -20612853.17344 -16061957.42344  20457898.7254   20457898.4454
 -22050251.80744 -17182003.43444  20860764.0694   20860763.2974
 94  4  6  3 40  0.0000000  0  8G16G24G17G 6G 3G12G20G 5
   -872856.45144   -680146.26844  21156411.9854   21156411.5784
 -10193997.84344  -7943359.67944  22521402.0824   22521401.0344
  -7348293.37644  -5725935.00044  23626054.7864   23626058.3464
 -10373903.60644  -8083553.75544  23396618.4654   23396617.1204
  -7993638.863 4  -6228803.016 4  23667657.720    23667656.422
   2946698.979 4   2296129.268 4  24718561.930    24718560.121
 -20623917.50544 -16070578.96844  20455793.2724   20455793.1384
 -21989203.58444 -17134433.38744  20872381.2034   20872380.4604
 94  4  6  3 40 30.0000000  0  8G16G24G17G 6G 3G12G20G 5
   -895927.10444   -698123.37944  21152021.6834   21152021.0764
 -10117527.72344  -7883772.55444  22535954.0124   22535953.2144
  -7435175.48144  -5793635.29144  23609521.7504   23609523.8434
 -10451081.06344  -8143691.99044  23381931.9304   23381931.1054
  -8055314.115 4  -6276861.602 4  23655921.181    23655919.868
   3054206.025 4   2379900.992 4  24739020.013    24739017.985
 -20634400.76944 -16078747.73444  20453798.2944   20453797.9414
 -21927689.94144 -17086500.67544  20884086.9564   20884086.1604
 94  4  6  3 41  0.0000000  0  8G16G24G17G 6G 3G12G20G 5
   -918448.44444   -715672.44944  21147735.9714   21147735.4444
 -10040971.07844  -7824118.01044  22550522.3454   22550522.1394
  -7521878.66344  -5861196.14344  23593022.2914   23593021.5264
 -10528255.41744  -8203827.80044  23367246.0124   23367245.7234
  -8116967.287 4  -6324902.983 4  23644188.911    23644187.612
   3161651.410 4   2463624.671 4  24759466.366    24759464.142
 -20644304.71344 -16086465.08244  20451913.7104   20451913.3534
 -21865713.16944 -17038207.08344  20895880.6364   20895879.7814
 94  4  6  3 41 30.0000000  0  8G16G24G17G 6G 3G12G20G 5
   -940410.10544   -732785.40244  21143556.9244   21143556.4154
  -9964341.98844  -7764407.01644  22565104.2734   22565103.8624
  -7608396.21244  -5928612.33244  23576558.3074   23576558.2654
 -10605453.03444  -8263981.75644  23352555.4584   23352554.8534
  -8178602.847 4  -6372930.641 4  23632459.984    23632458.636
   3269027.720 4   2547294.527 4  24779899.537    24779897.491
 -20653632.93744 -16093733.81844  20450138.5584   20450138.3764
 -21803280.27444 -16989558.07044  20907761.3104   20907760.5674
 94  4  6  3 42  0.0000000  0  8G16G24G17G 6G 3G12G20G 5
   -961797.63544   -749450.98144  21139487.1034   21139486.5364
  -9887636.43244  -7704636.43644  22579700.8554   22579700.7644
  -7694711.57144  -5995870.98344  23560133.1084   23560134.4024
 -10682680.47944  -8324158.94344  23337859.1694   23337858.7144
  -8240210.991 4  -6420936.937 4  23620736.273    23620734.975
   3376342.354 4   2630916.320 4  24800320.998    24800318.865
 -20662374.45144 -16100545.37744  20448475.0234   20448474.9484
 -21740377.26344 -16940542.73544  20919731.2874   20919730.3044
 94  4  6  3 42 30.0000000  0  8G16G24G17G 6G 3G12G20G 5
   -982596.18944   -765657.62044  21135529.1644   21135528.6264
  -9810830.34444  -7644787.52844  22594316.3414   22594315.9674
  -7780810.94844  -6062961.33944  23543749.4004   23543751.3304
 -10759919.74644  -8384345.34144  23323160.7304   23323160.9724
  -8301777.556 4  -6468910.835 4  23609020.494    23609019.365
   3483607.079 4   2714499.226 4  24820732.591    24820730.662
 -20670513.72444 -16106887.65744  20446926.0854   20446925.8674
 -21676971.41844 -16891135.58444  20931796.8684   20931796.2554
 94  4  6  3 43  0.0000000  0  8G16G24G17G 6G 3G12G20G 5
  -1002807.58044   -781406.73144  21131682.9034   21131682.3314
  -9733931.81044  -7584866.57944  22608949.6074   22608949.1114
  -7866691.08544  -6129880.87744  23527407.3114   23527408.4024
 -10837172.40944  -8444542.18644  23308459.6934   23308460.3204
  -8363309.813 4  -6516858.000 4  23597311.226    23597310.221
   3590812.194 4   2798035.681 4  24841132.907    24841131.195
 -20678057.20044 -16112765.68644  20445490.7004   20445490.4074
 -21613062.55144 -16841336.47244  20943958.4044   20943957.7344
 94  4  6  3 43 30.0000000  0  8G16G24G17G 6G 3G12G20G 5
  -1022423.20544   -796691.60944  21127950.3284   21127949.8414
  -9656955.57544  -7524885.07744  22623597.5084   22623597.2754
  -7952349.10444  -6196627.33144  23511107.2584   23511106.4014
 -10914440.30444  -8504750.90744  23293756.1204   23293757.0604
  -8424815.557 4  -6564784.509 4  23585607.082    23585606.082
   3697947.264 4   2881517.552 4  24861519.673    24861518.262
 -20685011.58344 -16118184.67544  20444167.2784   20444166.9554
 -21548667.69144 -16791158.66944  20956212.5534   20956211.6584
 94  4  6  3 44  0.0000000  0  8G16G24G17G 6G 3G12G20G 5
  -1041449.40044   -811517.18944  21124329.6184   21124329.1564
  -9579910.06144  -7464849.59444  22638258.6034   22638258.3064
  -8037793.97844  -6263207.69544  23494847.5964   23494848.4394
 -10991724.46744  -8564972.30444  23279049.3834   23279050.0694
  -8486296.906 4  -6612692.008 4  23573907.606    23573906.438
   3805007.781 4   2964941.332 4  24881892.626    24881891.048
 -20691377.69144 -16123145.26844  20442955.7004   20442955.5674
 -21483806.17444 -16740617.22844  20968555.4444   20968554.4554
 94  4  6  3 44 30.0000000  0  8G16G 5G24G17G 6G 3G12G20
  -1059871.19644   -825871.80644  21120823.9714   21120823.5484
 -21418485.71344 -16689718.16544  20980985.2834   20980984.1834
  -9502778.69244  -7404747.21244  22652936.1414   22652935.1624
  -8123031.34744  -6329626.36244  23478627.1034   23478628.7924
 -11068998.71744  -8625185.95944  23264345.0144   23264345.2164
  -8547741.065 4  -6660570.530 4  23562215.134    23562214.090
   3912003.934 4   3048314.957 4  24902253.129    24902251.635
 -20697141.98444 -16127636.91644  20441858.8794   20441858.7884
 94  4  6  3 45  0.0000000  0  8G16G 5G24G17G 6G 3G12G20
  -1077687.03344   -839754.25044  21117433.7524   21117433.2554
 -21352722.67444 -16638474.24244  20993499.4844   20993498.8364
  -9425564.58844  -7344580.36344  22667629.4634   22667628.8704
  -8208054.23944  -6395877.89944  23462447.8754   23462449.7064
 -11146259.81744  -8685389.38844  23249642.5784   23249642.9294
  -8609145.894 4  -6708418.413 4  23550530.131    23550529.208
   4018935.495 4   3131638.250 4  24922601.540    24922599.977
 -20702301.12944 -16131657.01744  20440877.2164   20440876.8744
 94  4  6  3 45 30.0000000  0  8G16G 5G24G17G 6G 3G12G20
  -1094912.95544   -853177.01944  21114155.8234   21114155.4774
 -21286529.91744 -16586895.47344  21006095.3114   21006094.8494
  -9348271.60744  -7284352.06244  22682337.9464   22682337.8434
  -8292867.50544  -6461966.09144  23446308.6554   23446308.8484
 -11223517.02944  -8745589.77344  23234941.0284   23234941.7304
  -8670518.164 4  -6756240.922 4  23538851.382    23538850.419
   4125793.014 4   3214903.842 4  24942936.115    24942934.342
 -20706861.27744 -16135210.36844  20440009.4284   20440009.1644
 94  4  6  3 46  0.0000000  0  8G16G 5G24G17G 6G 3G12G20
  -1111563.40444   -866151.36944  21110987.4214   21110986.7614
 -21219886.85444 -16534965.80644  21018776.9864   21018776.3934
  -9270882.57544  -7224048.90344  22697064.8194   22697064.1164
  -8377469.24644  -6527889.47844  23430209.4384   23430209.5444
 -11300754.01344  -8805774.40944  23220243.0294   23220243.3814
  -8731850.093 4  -6804031.995 4  23527180.281    23527179.239
   4232581.701 4   3298115.802 4  24963257.697    24963255.563
 -20710813.71644 -16138290.17844  20439257.2764   20439257.0234
 94  4  6  3 46 30.0000000  0  8G16G 5G24G17G 6G 3G12G20
  -1127637.91544   -878676.93944  21107928.5964   21107927.8224
 -21152773.82344 -16482669.93444  21031548.2734   21031547.5744
  -9193394.98844  -7163668.95544  22711810.2844   22711809.3744
  -8461856.14444  -6593645.44044  23414151.1104   23414151.3364
 -11377955.65444  -8865931.49844  23205552.1944   23205551.1934
  -8793146.754 4  -6851795.589 4  23515515.935    23515514.794
   4339294.383 4   3381268.541 4  24983564.657    24983562.059
 -20714162.35644 -16140899.49644  20438619.9534   20438619.7574
 94  4  6  3 47  0.0000000  0  8G16G 5G24G17G 6G 3G12G20
  -1143151.11244   -890765.12044  21104976.4504   21104976.1474
 -21085189.93844 -16430007.16344  21044409.2094   21044408.1644
  -9115834.37044  -7103232.10044  22726569.5684   22726568.7934
  -8546035.39744  -6659239.62744  23398132.1254   23398132.8034
 -11455144.81044  -8926078.86144  23190863.7494   23190864.3584
  -8854427.625 4  -6899546.878 4  23503854.504    23503853.324
   4445908.840 4   3464344.749 4  25003852.825    25003849.996
 -20716926.22644 -16143053.15244  20438094.0814   20438093.9994
 94  4  6  3 47 30.0000000  0  8G16G 5G24G 6G17G 3G12G20
  -1158083.25044   -902400.52844  21102134.7114   21102134.3334
 -21017117.79044 -16376963.93344  21057363.0604   21057362.2724
  -9038198.70744  -7042736.75944  22741343.1074   22741342.6174
 -11532314.56544  -8986211.10344  23176178.9084   23176177.7964
  -8630005.99344  -6724671.21244  23382152.7924   23382153.5474
  -8915687.249 4  -6947281.610 4  23492197.097    23492196.162
   4552427.989 4   3547346.689 4  25024122.668    25024119.715
 -20719098.89444 -16144746.12844  20437680.6874   20437680.6004
 94  4  6  3 48  0.0000000  0  8G16G 5G24G17G 6G 3G12G20
  -1172430.73444   -913580.35544  21099404.4444   21099403.9824
 -20948564.14144 -16323545.50944  21070408.4344   21070407.6234
  -8960499.11144  -6982191.60744  22756128.7104   22756128.5624
  -8713774.32344  -6789945.18144  23366212.3354   23366213.6504
 -11609465.53144  -9046328.70044  23161497.4954   23161497.5924
  -8976930.906 4  -6995003.900 4  23480542.662    23480541.786
   4658844.109 4   3630268.351 4  25044372.915    25044369.988
 -20720684.59544 -16145981.72744  20437378.9304   20437378.6474
 94  4  6  3 48 30.0000000  0  8G16G 5G24G17G 6G 3G12G20
  -1186175.06244   -924290.19844  21096789.0744   21096788.3814
 -20879541.14844 -16269761.35144  21083543.0454   21083542.2204
  -8882737.34644  -6921598.00644  22770926.1604   22770926.2264
  -8797324.86844  -6855049.44144  23350313.1464   23350312.8674
 -11686604.35944  -9106436.84844  23146818.4554   23146819.2284
  -9038152.970 4  -7042709.359 4  23468892.294    23468891.561
   4765160.506 4   3713112.312 4  25064603.748    25064601.297
 -20721677.15344 -16146755.13744  20437190.1004   20437189.6994
 94  4  6  3 49  0.0000000  0  8G16G 5G24G17G 6G 3G12G20
  -1199321.20044   -934533.91944  21094287.4594   21094286.9264
 -20810063.48344 -16215622.90744  21096764.2014   21096763.3434
  -8804915.88144  -6860957.89944  22785735.1184   22785734.6104
  -8880655.25944  -6919982.14744  23334455.7024   23334456.4834
 -11763739.48444  -9166542.11044  23132140.3234   23132139.5204
  -9099349.655 4  -7090395.048 4  23457246.884    23457246.005
   4871378.188 4   3795879.343 4  25084816.207    25084814.009
 -20722072.34944 -16147063.07144  20437114.7394   20437114.4934
 94  4  6  3 49 30.0000000  0  8G16G 5G24G17G 6G 3G12G20
  -1211899.24244   -944334.96344  21091893.9194   21091893.6694
 -20740151.33044 -16161145.89744  21110068.1124   21110067.0684
  -8727046.16044  -6800280.17644  22800553.1994   22800552.9834
  -8963763.35444  -6984741.64044  23318640.3804   23318641.7554
 -11840866.50844  -9226641.06644  23117463.7244   23117463.0964
  -9160527.202 4  -7138065.823 4  23445605.185    23445604.311
   4977488.601 4   3878562.786 4  25105008.186    25105006.545
 -20721875.39444 -16146909.59344  20437152.2154   20437152.1164
 94  4  6  3 50  0.0000000  0  8G16G 5G24G17G 6G 3G12G20
  -1223909.42144   -953693.52344  21089608.3614   21089607.7094
 -20669808.90144 -16106333.61244  21123453.7184   21123452.8514
  -8649117.18144  -6739556.28644  22815382.6474   22815382.0044
  -9046629.33744  -7049312.48944  23302871.6404   23302872.2144
 -11917970.36244  -9286721.97144  23102791.5474   23102791.2614
  -9221678.182 4  -7185715.891 4  23433968.696    23433967.793
   5083496.873 4   3961166.629 4  25125181.037    25125179.292
 -20721078.10344 -16146288.31944  20437304.0344   20437303.7754
 94  4  6  3 50 30.0000000  0  8G16G 5G 6G17G 3G24G12G20
  -1235345.39044   -962604.64844  21087431.9374   21087431.6124
 -20599032.77344 -16051183.38144  21136921.8734   21136920.8114
 -11995058.37344  -9346790.50544  23088122.1484   23088121.2844
  -9129249.57244  -7113691.83944  23287149.7634   23287151.0064
  -9282803.371 4  -7233345.862 4  23422336.883    23422336.106
  -8571129.06144  -6678786.31044  22830223.2494   22830222.7404
   5189399.451 4   4043688.122 4  25145333.825    25145331.870
 -20719680.60644 -16145199.35544  20437570.0114   20437569.6554
 94  4  6  3 51  0.0000000  0  8G16G 5G17G 6G 3G24G12G20
  -1246191.00644   -971055.75444  21085368.0324   21085367.8154
 -20527798.76344 -15995676.36244  21150477.2654   21150476.1704
  -9211615.26244  -7177872.83344  23271476.1284   23271477.4974
 -12072110.82244  -9406831.35044  23073459.2414   23073459.0764
  -9343888.393 4  -7280944.537 4  23410712.715    23410712.012
  -8493069.35644  -6617960.54344  22845077.6384   22845077.2294
   5295208.284 4   4126136.568 4  25165468.917    25165466.535
 -20717668.19144 -16143631.23344  20437952.9844   20437952.5594
 94  4  6  3 51 30.0000000  0  8G16G 5G17G 6G 3G24G12G20
  -1256453.24044   -979052.27944  21083415.3004   21083415.0864
 -20456116.33844 -15939819.92644  21164117.9674   21164117.0134
  -9293737.91444  -7241864.47044  23255848.9544   23255849.8214
 -12149148.65744  -9466860.80244  23058799.3594   23058799.1724
  -9404944.645 4  -7328520.794 4  23399093.895    23399093.318
  -8414945.60144  -6557084.87644  22859944.1774   22859943.0934
   5400909.670 4   4208501.301 4  25185583.239    25185580.905
 -20715051.61544 -16141592.34044  20438450.8114   20438450.2824
 94  4  6  3 52  0.0000000  0  8G16G 5G17G 6G 3G24G12G20
  -1266139.79344   -986600.22144  21081572.0454   21081571.6874
 -20383997.32544 -15883623.29244  21177841.6724   21177840.5064
  -9375653.74044  -7305694.91744  23240260.7104   23240261.3354
 -12226211.40044  -9526909.66244  23044134.4864   23044133.7844
  -9465993.985 4  -7376091.668 4  23387476.608    23387475.950
  -8336778.80744  -6496175.67344  22874818.7744   22874818.6104
   5506479.157 4   4290763.264 4  25205672.538    25205669.811
 -20711852.01944 -16139099.14644  20439059.7014   20439059.3114
 94  4  6  3 52 30.0000000  0  8G16G 5G17G 6G 3G24G12G20
  -1275238.71344   -993690.26544  21079840.6754   21079840.1094
 -20311420.12644 -15827069.63044  21191652.6794   21191651.7464
  -9457351.85344  -7369355.72844  23224714.0064   23224714.1004
 -12303288.40644  -9586969.63844  23029467.1614   23029467.3364
  -9527016.691 4  -7423641.785 4  23375864.368    23375863.659
  -8258557.48344  -6435223.98144  22889703.5884   22889703.1854
   5611934.095 4   4372935.961 4  25225739.845    25225737.297
 -20708049.15344 -16136135.86744  20439783.3524   20439783.0294
 94  4  6  3 53  0.0000000  0  8G16G 5G17G 6G 3G24G12G20
  -1283757.54544  -1000328.29544  21078219.5974   21078219.2074
 -20238385.82344 -15770159.78544  21205550.8174   21205550.0424
  -9538831.30244  -7432846.16944  23209208.6184   23209208.5294
 -12380355.89844  -9647022.20944  23014801.6644   23014801.5824
  -9588006.773 4  -7471166.481 4  23364258.442    23364257.622
  -8180274.07544  -6374223.91544  22904600.5004   22904600.2424
   5717277.914 4   4455022.081 4  25245786.032    25245783.609
 -20703636.73844 -16132697.61444  20440622.9744   20440622.8194
 94  4  6  3 53 30.0000000  0  8G16G 5G17G 6G 3G24G12G20
  -1291673.82044  -1006496.80044  21076713.1944   21076712.6694
 -20164884.80944 -15712886.26544  21219537.7124   21219536.8314
  -9620079.12444  -7496156.12844  23193747.4064   23193746.9844
 -12457385.82844  -9707045.49444  23000143.2304   23000142.8054
  -9648949.612 4  -7518654.364 4  23352661.353    23352660.562
  -8101914.77744  -6313164.71444  22919511.7844   22919511.6214
   5822522.867 4   4537031.155 4  25265813.476    25265811.050
 -20698599.75544 -16128772.68744  20441581.3924   20441581.2254
 94  4  6  3 54  0.0000000  0  8G16G 5G17G 6G 3G24G12G20
  -1298997.86544  -1012203.82744  21075319.3124   21075318.7314
 -20090945.12544 -15655270.92544  21233607.8174   21233606.8494
  -9701113.73944  -7559299.92744  23178326.8084   23178328.1044
 -12534386.98644  -9767046.35844  22985490.6624   22985491.0504
  -9709865.800 4  -7566121.484 4  23341069.442    23341068.554
  -8023500.57944  -6252062.73544  22934433.5154   22934432.3924
   5927645.861 4   4618945.183 4  25285817.535    25285815.465
 -20692958.20544 -16124376.66244  20442654.9044   20442654.9844
 94  4  6  3 54 30.0000000  0  8G16G 5G17G 6G 3G24G12G20
  -1305707.02544  -1017431.72044  21074042.5894   21074042.1174
 -20016574.25744 -15597319.59944  21247760.1494   21247759.3784
  -9781906.09844  -7622254.95644  23162952.2534   23162953.4664
 -12611333.83244  -9827004.91244  22970848.1624   22970847.4964
  -9770743.675 4  -7613558.752 4  23329484.771    23329483.710
  -7945024.71844  -6190912.71144  22949366.9244   22949366.9874
   6032656.234 4   4700771.456 4  25305799.983    25305797.939
 -20686700.16944 -16119500.26144  20443845.6504   20443845.6874
 94  4  6  3 55  0.0000000  0  8G16G 5G17G 6G 3G24G12G20
  -1311816.43344  -1022192.27644  21072880.3044   21072879.5704
 -19941793.18744 -15539048.63744  21261990.5924   21261989.7744
  -9862475.38144  -7685036.17444  23147620.2964   23147621.8624
 -12688236.15944  -9886928.77644  22956214.1304   22956213.0624
  -9831603.054 4  -7660981.607 4  23317903.549    23317902.545
  -7866509.22944  -6129731.80944  22964307.9304   22964308.2294
   6137531.376 4   4782492.344 4  25325757.013    25325754.940
 -20679845.28444 -16114158.78244  20445150.1484   20445150.1164
 94  4  6  3 55 30.0000000  0  7G16G 5G17G 6G 3G24G20
  -1317314.54544  -1026476.49644  21071833.9444   21071833.4124
 -19866606.19944 -15480461.36944  21276298.2464   21276297.3414
  -9942804.79644  -7747630.47444  23132334.2324   23132335.8054
 -12765110.49044  -9946830.82044  22941585.1804   22941585.2004
  -9892437.362 4  -7708384.929 4  23306327.074    23306326.244
  -7787950.77144  -6068517.41444  22979256.8444   22979256.7404
 -20672386.45444 -16108346.69544  20446569.5854   20446569.3134
 94  4  6  3 56  0.0000000  0  7G16G 5G17G 6G 3G24G20
  -1322229.35244  -1030306.19344  21070898.5484   21070897.7924
 -19791033.17144 -15421573.29444  21290679.1404   21290678.3624
 -10022895.09144  -7810038.44544  23117093.7374   23117094.6574
 -12841991.60744 -10006738.16144  22926955.0514   22926954.7714
  -9953263.399 4  -7755781.798 4  23294752.199    23294751.413
  -7709364.35244  -6007281.22244  22994211.2674   22994210.7484
 -20664340.15544 -16102076.84644  20448100.7864   20448100.5504
 94  4  6  3 56 30.0000000  0  8G16G 5G17G 6G 3G24G25G20
  -1326543.51044  -1033667.85844  21070077.6374   21070076.9254
 -19715044.08444 -15362361.02044  21305139.2864   21305138.7124
 -10102719.29144  -7872239.07944  23101903.9104   23101904.6834
 -12918840.75544 -10066620.57344  22912331.0544   22912330.8684
 -10014051.665 4  -7803149.240 4  23283184.441    23283183.848
  -7630723.72944  -5946002.82044  23009176.2454   23009177.2644
        -0.42254        -0.13154  24799522.6344   24799524.1984
 -20655676.74444 -16095326.12844  20449749.3374   20449749.0524
 94  4  6  3 57  0.0000000  0  8G16G 5G17G 6G 3G24G25G20
  -1330256.41744  -1036561.01344  21069370.9514   21069370.4514
 -19638631.58244 -15302818.81244  21319679.9674   21319679.0564
 -10182285.64244  -7934238.78244  23086762.6374   23086763.3214
 -12995657.25944 -10126477.55944  22897713.2664   22897713.4014
 -10074801.088 4  -7850486.412 4  23271624.215    23271623.590
  -7552011.51244  -5884668.61044  23024154.6574   23024154.3884
      5879.90144      4581.95444  24800640.7674   24800640.4814
 -20646394.78244 -16088093.42444  20451515.7154   20451515.3354
 94  4  6  3 57 30.0000000  0  8G16G 5G17G 6G 3G24G25G20
  -1333350.80244  -1038972.19944  21068782.1514   21068781.8504
 -19561785.86344 -15242939.02144  21334303.2904   21334302.2084
 -10261584.68144  -7996030.19744  23071672.3254   23071673.5824
 -13072440.15244 -10186308.35744  22883102.0434   22883102.7704
 -10135505.756 4  -7897788.711 4  23260072.514    23260071.824
  -7473206.28244  -5823261.93144  23039150.6974   23039150.6224
     12265.48044      9557.75644  24801855.0964   24801855.3144
 -20636488.25444 -16080374.04544  20453400.7314   20453400.3804
 94  4  6  3 58  0.0000000  0  8G16G 5G17G 6G 3G24G25G20
  -1335855.98344  -1040924.27044  21068305.4854   21068304.7174
 -19484515.25144 -15182728.15544  21349007.5564   21349006.6684
 -10340658.63544  -8057646.20944  23056625.1774   23056626.1134
 -13149196.06844 -10246118.11944  22868495.8264   22868495.5524
 -10196191.756 4  -7945076.464 4  23248524.404    23248523.647
  -7394342.69444  -5761809.78544  23054158.0364   23054157.7704
     19139.32944     14913.95644  24803163.3174   24803161.4304
 -20625982.96044 -16072188.09544  20455399.7934   20455399.6054
 94  4  6  3 58 30.0000000  0  8G16G 5G17G 6G 3G24G25G20
  -1337790.61044  -1042431.75544  21067937.3114   21067936.5274
 -19406849.17644 -15122209.13944  21363786.9234   21363785.8574
 -10419557.79744  -8119126.02344  23041611.2294   23041611.6314
 -13225934.99744 -10305914.65944  22853893.0754   22853892.9784
 -10256887.953 4  -7992372.166 4  23236974.284    23236973.519
  -7315453.16144  -5700337.41344  23069170.2274   23069170.3804
     26472.15344     20627.84744  24804559.6154   24804558.2344
 -20614908.12144 -16063558.34244  20457507.3084   20457507.0894
 94  4  6  3 59  0.0000000  0  8G16G 5G17G 6G 3G24G25G20
  -1339134.64744  -1043479.03944  21067681.4774   21067680.9754
 -19328764.68944 -15061364.09044  21378645.9474   21378645.1384
 -10498271.84444  -8180461.57344  23026632.5564   23026632.8124
 -13302657.85744 -10365698.66844  22839293.5074   22839292.7624
 -10317580.184 4  -8039664.775 4  23225424.836    23225424.193
  -7236517.60444  -5638829.19244  23084191.3184   23084190.3464
     34283.90444     26714.87444  24806046.0974   24806044.4774
 -20603249.13444 -16054473.40844  20459725.9384   20459725.8744
 94  4  6  3 59 30.0000000  0  8G16G 5G17G 6G 3G24G25G20
  -1339880.51944  -1044060.21744  21067539.4104   21067538.9384
 -19250237.90744 -15000174.39544  21393589.1824   21393588.6644
 -10576781.14044  -8241637.59244  23011692.5234   23011693.3444
 -13379352.22244 -10425460.46744  22824699.0444   22824699.1074
 -10378250.767 4  -8086940.519 4  23213879.575    23213878.897
  -7157536.70444  -5577285.62244  23099220.7204   23099221.5764
     42587.96144     33185.58944  24807626.2774   24807622.6164
 -20590988.14144 -16044919.37844  20462059.0984   20462058.9524
 94  4  6  4  0  0.0000000  0  8G16G 5G17G 6G 3G24G25G20
  -1340062.09644  -1044201.68844  21067504.6754   21067504.4284
 -19171295.01144 -14938660.45744  21408611.5024   21408610.7974
 -10655096.62544  -8302662.59944  22996789.3414   22996790.3474
 -13456025.74544 -10485206.05144  22810108.2824   22810108.0174
 -10438918.499 4  -8134214.029 4  23202334.816    23202334.186
  -7078542.34244  -5515731.51244  23114252.5554   23114252.1334
     51355.29544     40017.20544  24809294.4694   24809292.9394
 -20578144.14644 -16034911.06444  20464503.2284   20464503.0874
 94  4  6  4  0 30.0000000  0  8G16G 5G17G 6G 3G24G25G20
  -1339672.40944  -1043898.01644  21067579.0114   21067578.5624
 -19091954.17644 -14876836.42244  21423709.3694   21423708.8104
 -10733199.50244  -8363521.93244  22981926.8324   22981928.0384
 -13532680.04344 -10544936.63944  22795521.2274   22795521.5044
 -10499583.592 4  -8181485.478 4  23190790.540    23190790.037
  -6999524.34944  -5454159.08944  23129289.3054   23129288.9304
     60568.11744     47196.02544  24811047.2894   24811046.1374
 -20564717.14444 -16024448.46044  20467058.2414   20467058.0674
 94  4  6  4  1  0.0000000  0  8G16G 5G17G 6G 3G24G25G20
  -1338692.78444  -1043134.65244  21067765.3164   21067764.8354
 -19012200.91344 -14814691.01944  21438885.6954   21438885.1284
 -10811052.71744  -8424186.73244  22967112.0974   22967113.4614
 -13609316.39644 -10604653.24644  22780937.8354   22780938.0844
 -10560231.332 4  -8228743.410 4  23179249.565    23179249.181
  -6920466.20444  -5392555.32844  23144333.6734   23144333.3124
     70231.36444     54725.83444  24812886.4774   24812889.0144
 -20550692.60044 -16013520.24044  20469726.9824   20469726.8834
 94  4  6  4  1 30.0000000  0  8G16G 5G17G 6G 3G24G25G20
  -1337130.96844  -1041917.63544  21068062.5194   21068061.9944
 -18932047.38544 -14752233.71744  21454138.4054   21454138.1454
 -10888645.78644  -8484648.81744  22952346.8124   22952347.2194
 -13685922.85044 -10664346.56044  22766360.2904   22766360.0484
 -10620863.745 4  -8275989.400 4  23167711.588    23167711.228
  -6841374.29644  -5330925.26344  23159384.5514   23159383.9124
     80330.62244     62595.37144  24814809.0534   24814809.3834
 -20536072.77244 -16002128.16644  20472509.1704   20472508.8924
 94  4  6  4  2  0.0000000  0  8G16G 5G17G 6G 3G24G25G20
  -1334968.93744  -1040232.91644  21068474.1074   21068473.4764
 -18851501.67944 -14689470.82244  21469465.7864   21469465.1244
 -10965978.70944  -8544908.19344  22937630.8744   22937631.6284
 -13762495.80744 -10724013.77844  22751788.9894   22751788.0984
 -10681474.314 4  -8323218.372 4  23156177.843    23156177.250
  -6762242.61744  -5269264.19044  23174442.9484   23174442.7664
     90870.19544     70807.97244  24816814.7574   24816812.5524
 -20520851.34944 -15990267.31544  20475405.8494   20475405.4294
 94  4  6  4  2 30.0000000  0  8G16G 5G17G 6G 3G24G25G20
  -1332207.62944  -1038081.22944  21068999.5874   21068999.0584
 -18770589.63544 -14626422.47744  21484862.9514   21484862.3644
 -11043078.38044  -8604985.79744  22922959.1804   22922959.6234
 -13839067.02444 -10783679.63544  22737218.2194   22737217.9624
 -10742079.211 4  -8370442.925 4  23144645.141    23144644.460
  -6683089.86144  -5207586.70744  23189505.1124   23189505.3404
    101835.73444     79352.54644  24818901.2044   24818893.2954
 -20505044.18044 -15977950.04044  20478413.7814   20478413.3634
 94  4  6  4  3  0.0000000  0  8G16G 5G17G 6G 3G24G25G20
  -1328853.07344  -1035467.27244  21069637.8434   21069637.1904
 -18689296.52344 -14563077.19744  21500332.5334   21500331.8874
 -11119938.73844  -8664876.92844  22908332.9384   22908333.4834
 -13915630.12144 -10843339.16644  22722648.7164   22722648.2464
 -10802670.853 4  -8417657.149 4  23133114.853    23133114.222
  -6603921.04644  -5145896.71344  23204570.6434   23204570.6284
    113245.11744     88242.99444  24821071.7784   24821068.0144
 -20488644.41844 -15965171.00044  20481534.4464   20481534.1054
 94  4  6  4  3 30.0000000  0  8G16G 5G17G 6G 3G24G25G20
  -1324901.74744  -1032388.30144  21070389.6754   21070389.1004
 -18607606.66144 -14499422.75644  21515877.6334   21515876.5114
 -11196540.38244  -8724566.44744  22893755.8124   22893757.3464
 -13992152.56544 -10902967.02544  22708086.8554   22708086.9204
 -10863228.792 4  -8464845.118 4  23121590.932    23121590.443
  -6524722.90244  -5084183.86644  23219641.5224   23219640.9194
    125128.61344     97502.85444  24823332.7514   24823334.6564
 -20471631.33344 -15951914.04944  20484771.8544   20484771.4604
 94  4  6  4  4  0.0000000  0  8G16G 5G17G 6G 3G24G25G20
  -1320342.58444  -1028835.69244  21071257.3974   21071256.8834
 -18525527.00544 -14435464.58144  21531496.9194   21531496.2034
 -11272881.89344  -8784053.31444  22879228.4414   22879229.6414
 -14068636.06544 -10962564.50844  22693532.3994   22693531.7284
 -10923755.840 4  -8512009.018 4  23110072.900    23110072.480
  -6445507.92744  -5022457.90944  23234715.6834   23234715.7154
    137489.30844    107134.54044  24825684.5644   24825681.3104
 -20454008.08944 -15938181.64744  20488125.5284   20488125.2004
 94  4  6  4  4 30.0000000  0  8G16G 5G17G 6G 3G24G25G20
  -1315194.93544  -1024824.52044  21072236.9214   21072236.2664
 -18443063.62744 -14371207.41244  21547189.1624   21547187.8814
 -11348954.16444  -8843330.37144  22864752.5594   22864753.3474
 -14145062.96844 -11022117.91644  22678988.5094   22678988.0864
 -10984257.070 4  -8559152.796 4  23098559.836    23098559.410
  -6366280.29244  -4960722.08144  23249792.1274   23249790.7684
    150327.78644    117138.58244  24828127.9274   24828124.7354
 -20435780.21644 -15923978.10644  20491594.2704   20491593.8774
 94  4  6  4  5  0.0000000  0  8G16G 5G17G 6G 3G24G25G20
  -1309480.36144  -1020371.58744  21073324.4374   21073323.6254
 -18360217.51444 -14306652.00944  21562954.2744   21562953.5874
 -11424769.66044  -8902407.34244  22850325.3264   22850325.9344
 -14221437.54844 -11081630.55044  22664454.6694   22664454.2094
 -11044744.288 4  -8606285.657 4  23087049.538    23087049.020
  -6287046.32544  -4898981.31444  23264870.0294   23264869.0474
    163627.60444    127501.93444  24830658.9494   24830658.3404
 -20416959.80444 -15909312.84744  20495175.6244   20495175.5104
 94  4  6  4  5 30.0000000  0  8G16G 5G17G 6G 3G24G25G20
  -1303186.03044  -1015466.89944  21074522.0984   21074521.3694
 -18276986.06544 -14241796.34044  21578792.5764   21578791.5194
 -11500340.91244  -8961293.98944  22835944.5574   22835945.2424
 -14297748.75644 -11141093.80944  22649933.0884   22649932.2394
 -11105212.630 4  -8653403.820 4  23075542.683    23075542.212
  -6207793.55344  -4837225.90844  23279951.1304   23279951.0314
    177384.98044    138222.03444  24833277.1534   24833278.1254
 -20397542.34744 -15894182.35844  20498870.6034   20498870.3864
 94  4  6  4  6  0.0000000  0  8G16G 5G17G 6G 3G24G25G20
  -1296282.74744  -1010087.70744  21075835.6834   21075834.9774
 -18193352.03844 -14176626.96744  21594707.5164   21594706.7914
 -11575676.89444  -9019997.30644  22821608.5934   22821608.9064
 -14373977.52744 -11200492.83044  22635427.4394   22635426.8974
 -11165642.455 4  -8700491.967 4  23064043.363    23064042.706
  -6128501.23844  -4775439.69944  23295039.9554   23295037.9174
    191606.76444    149303.98444  24835984.3704   24835980.3214
 -20377508.56944 -15878571.61744  20502683.0144   20502682.6544
 94  4  6  4  6 30.0000000  0  8G16G 5G17G 6G 3G24G25G20
  -1288803.49444  -1004259.69944  21077258.8304   21077258.5604
 -18109330.02644 -14111155.28144  21610696.4284   21610695.7874
 -11650809.71744  -9078542.31544  22807311.2434   22807311.9854
 -14450155.67144 -11259852.39444  22620931.3574   22620931.2144
 -11226052.275 4  -8747564.532 4  23052547.752    23052547.064
  -6049180.44944  -4713631.28044  23310134.2014   23310133.0354
    206274.03044    160733.05344  24838775.0544   24838780.5624
 -20356877.09844 -15862495.14444  20506609.0104   20506608.4804
 94  4  6  4  7  0.0000000  0  8G16G 5G17G 6G 3G24G25G20
  -1280731.30644   -997969.66844  21078794.7514   21078794.1744
 -18024910.00544 -14045373.44244  21626761.1114   21626760.5394
 -11725740.31244  -9136929.74044  22793052.5254   22793052.6674
 -14526290.21344 -11319177.98944  22606443.6964   22606443.3034
 -11286434.048 4  -8794615.239 4  23041057.377    23041056.821
  -5969812.25144  -4651785.92244  23325237.3844   23325237.0464
    221385.42444    172508.13844  24841650.1504   24841651.0534
 -20335640.56744 -15845947.19744  20510650.1554   20510649.6894
 94  4  6  4  7 30.0000000  0  8G16G 5G17G 6G 3G24G25G20
  -1272032.32944   -991191.23644  21080450.1574   21080449.2974
 -17940078.49044 -13979270.96244  21642904.1364   21642903.9264
 -11800438.16744  -9195135.82744  22778838.0434   22778838.6484
 -14602345.07844 -11378441.50044  22591970.9774   22591970.1034
 -11346762.949 4  -8841624.744 4  23029577.176    23029576.665
  -5890375.70544  -4589887.30044  23340353.5774   23340352.2204
    236977.86344    184658.05544  24844617.4684   24844618.8434
 -20313774.77644 -15828908.91344  20514811.1054   20514810.5054
 94  4  6  4  8  0.0000000  0  8G16G 5G17G 6G 3G24G25G20
  -1262733.86044   -983945.66544  21082219.3994   21082219.1244
 -17854879.33344 -13912882.00844  21659116.9974   21659116.4684
 -11874908.69944  -9253164.76744  22764666.9174   22764666.5574
 -14678355.35244 -11437670.25844  22577506.7004   22577505.9604
 -11407069.518 4  -8888616.848 4  23018101.121    23018100.667
  -5810900.23644  -4527958.35444  23355477.2414   23355477.6354
    253028.61444    197165.14944  24847672.1394   24847672.1984
 -20291310.41344 -15811404.21244  20519085.9504   20519085.5474
 94  4  6  4  8 30.0000000  0  8G16G 5G17G 6G 3G24G25G20
  -1252840.53044   -976236.56444  21084101.9844   21084101.7044
 -17769324.34744 -13846215.78344  21675397.6024   21675396.6074
 -11949119.40344  -9310991.24844  22750544.7174   22750545.1224
 -14754334.50744 -11496874.77244  22563048.4094   22563047.6474
 -11467362.465 4  -8935598.343 4  23006627.749    23006627.190
  -5731383.72444  -4465997.41744  23370608.6484   23370608.6744
    269539.40044    210030.66444  24850814.4494   24850811.6284
 -20268257.05844 -15793440.55844  20523472.8254   20523472.5664
 94  4  6  4  9  0.0000000  0  8G16G 5G17G 6G 3G24G25G20
  -1242340.01044   -968054.33144  21086100.3074   21086099.4554
 -17683421.24844 -13779278.30644  21691744.4714   21691743.4944
 -12023063.80744  -9368610.20944  22736473.3714   22736473.3714
 -14830264.52144 -11556040.99344  22548599.1784   22548598.5954
 -11527643.742 4  -8982570.744 4  22995156.689    22995156.090
  -5651834.62444  -4404011.09544  23385746.2474   23385747.1724
    286507.68344    223252.66144  24854043.1894   24854042.3464
 -20244617.35444 -15775020.01044  20527971.2794   20527971.0964
 94  4  6  4  9 30.0000000  0  8G16G 5G17G 6G 3G24G25G20
  -1231251.43944   -959413.87644  21088210.4924   21088209.7184
 -17597194.09644 -13712088.31544  21708152.9034   21708151.2714
 -12096753.12344  -9426030.41344  22722450.8804   22722451.7304
 -14906156.58044 -11615177.64744  22534157.2974   22534157.2354
 -11587928.725 4  -9029546.039 4  22983684.883    22983684.300
  -5572283.34444  -4342023.07144  23400884.3634   23400885.0534
    303919.19344    236819.99444  24857356.7704   24857354.5084
 -20220407.07344 -15756154.85744  20532578.3454   20532578.0804
 94  4  6  4 10  0.0000000  0  8G16G 5G17G 6G 3G24G25G20
  -1219574.86744   -950315.23944  21090432.4634   21090431.8044
 -17510647.02044 -13644649.04844  21724622.2974   21724620.8884
 -12170179.62244  -9483245.81044  22708478.3364   22708478.4474
 -14982028.43044 -11674298.55144  22519719.1604   22519718.7054
 -11648213.167 4  -9076520.904 4  22972213.076    22972212.406
  -5492723.90444  -4280028.69544  23416024.0604   23416023.9104
    321765.22744    250725.99544  24860752.9814   24860749.9804
 -20195622.70144 -15736842.36044  20537294.7664   20537294.4334
 94  4  6  4 10 30.0000000  0  8G16G 5G17G 6G 3G24G25G20
  -1207312.59644   -940760.20944  21092765.7354   21092765.2804
 -17423765.75844 -13576949.36744  21741155.0224   21741153.9924
 -12243352.99544  -9540263.97444  22694553.7204   22694553.8404
 -15057871.39144 -11733396.94244  22505286.6074   22505286.1684
 -11708490.288 4  -9123490.066 4  22960742.669    22960742.045
  -5413157.64744  -4218029.00744  23431165.0254   23431164.7024
    340042.12044    264967.68944  24864230.5084   24864230.2504
 -20170258.12844 -15717077.75644  20542121.4294   20542121.1704
 94  4  6  4 11  0.0000000  0  8G16G 5G17G 6G 3G24G25G20
  -1194475.33244   -930757.13444  21095208.7794   21095208.1484
 -17336557.92744 -13508995.22344  21757749.8944   21757749.6004
 -12316296.05244  -9597102.66744  22680673.0654   22680673.3844
 -15133663.09644 -11792455.40344  22490863.6564   22490863.4014
 -11768752.225 4  -9170447.403 4  22949275.076    22949274.472
  -5333586.19344  -4156025.26544  23446306.9114   23446306.8324
    358748.78144    279544.30044  24867790.6484   24867791.0874
 -20144305.97644 -15696855.29544  20547059.8014   20547059.6704
 94  4  6  4 11 30.0000000  0  8G16G 5G17G 6G 3G24G25G20
  -1181057.60844   -920301.75044  21097762.0384   21097761.5494
 -17249013.72744 -13440778.97544  21774409.1924   21774408.8974
 -12389000.63044  -9653755.54344  22666837.9314   22666837.6984
 -15209407.21444 -11851476.77544  22476450.2754   22476449.6794
 -11828985.065 4  -9217382.062 4  22937813.099    22937812.473
  -5253985.87244  -4093999.04044  23461454.4744   23461454.1144
    377892.57644    294461.50944  24871433.0874   24871435.7934
 -20117753.61344 -15676165.13744  20552112.5574   20552112.4464
 94  4  6  4 12  0.0000000  0  8G16G 5G17G 6G 3G24G25G20
  -1167046.70844   -909384.15244  21100428.2484   21100427.5904
 -17161108.76644 -13372281.61144  21791137.1474   21791136.0284
 -12461457.69644  -9710215.53344  22653049.9344   22653050.1264
 -15285093.87444 -11910453.37544  22462047.8804   22462047.0404
 -11889181.837 4  -9264288.617 4  22926357.948    22926357.360
  -5174342.30244  -4031939.09744  23476610.1924   23476609.2974
    397481.62844    309725.68744  24875160.3204   24875161.2774
 -20090594.36344 -15655002.08544  20557280.7454   20557280.4624
 94  4  6  4 12 30.0000000  0  8G16G 5G17G 6G 3G24G25G20
  -1152453.00444   -898012.42344  21103205.3024   21103204.8044
 -17072826.56444 -13303490.28744  21807936.8994   21807936.0574
 -12533675.78844  -9766489.31144  22639307.2764   22639307.0774
 -15360697.93644 -11969365.60444  22447661.2174   22447660.5134
 -11949344.686 4  -9311168.745 4  22914909.369    22914908.748
  -5094665.35844  -3969853.17244  23491772.1294   23491770.4384
    417518.67044    325338.97944  24878972.9674   24878973.9214
 -20062831.28544 -15633368.51644  20562563.8354   20562563.5464
 94  4  6  4 13  0.0000000  0  8G16G 5G17G 6G 3G24G25G20
  -1137279.02044   -886188.52944  21106092.8954   21106092.3604
 -16984188.59344 -13234421.73744  21824804.2524   21824803.0454
 -12605669.70744  -9822588.40644  22625607.0514   22625606.3034
 -15436239.77044 -12028229.35444  22433285.9614   22433285.5304
 -12009495.276 4  -9358039.317 4  22903463.095    22903462.553
  -5014980.41044  -3907760.97444  23506935.6254   23506934.7544
    437976.86844    341280.38044  24882866.2944   24882869.7104
 -20034486.93844 -15611282.01244  20567957.7064   20567957.3654
 94  4  6  4 13 30.0000000  0  8G16G 5G17G 6G 3G24G25G20
  -1121507.17444   -873898.76844  21109094.1234   21109093.3784
 -16895160.80344 -13165049.43944  21841745.6904   21841745.0014
 -12677413.58144  -9878492.67644  22611954.1344   22611953.7654
 -15511721.15244 -12087046.00644  22418922.1804   22418921.5054
 -12069627.346 4  -9404895.461 4  22892020.347    22892019.908
  -4935294.05244  -3845667.71644  23522099.1724   23522099.9854
    458855.17944    357549.19444  24886839.3134   24886838.4374
 -20005555.76444 -15588738.24644  20573463.2374   20573462.8224
 94  4  6  4 14  0.0000000  0  8G16G 5G17G 6G 3G24G25G20
  -1105165.09644   -861164.66944  21112203.8844   21112203.1994
 -16805762.34944 -13095388.31144  21858757.5244   21858756.6584
 -12748921.23044  -9934212.85944  22598346.3544   22598347.5414
 -15587142.60144 -12145815.94344  22404569.8534   22404568.9784
 -12129757.335 4  -9451749.978 4  22880577.967    22880577.548
  -4855643.63244  -3783602.45244  23537256.0184   23537256.2464
    480135.10144    374130.92944  24890889.0464   24890889.8714
 -19976055.21744 -15565750.81044  20579077.0624   20579076.2804
 94  4  6  4 14 30.0000000  0  8G16G 5G17G 6G 3G24G25G20
  -1088256.02944   -847988.76144  21115421.5714   21115420.9704
 -16716007.12344 -13025449.18744  21875837.0074   21875836.6014
 -12820189.69244  -9989746.67244  22584784.1394   22584784.9424
 -15662494.28344 -12204531.51344  22390230.7924   22390230.2884
 -12189874.231 4  -9498594.294 4  22869138.094    22869137.622
  -4776028.48544  -3721564.65744  23552406.2954   23552405.8604
    501821.27944    391029.23944  24895015.8694   24895016.4384
 -19945975.52844 -15542312.09644  20584801.0204   20584800.6694
 94  4  6  4 15  0.0000000  0  8G16G 5G17G 6G 3G24G25G20
  -1070763.54044   -834358.23844  21118750.0834   21118749.6984
 -16625898.34944 -12955234.55744  21892983.9354   21892983.7624
 -12891206.44344 -10045084.35544  22571270.1284   22571270.6014
 -15737776.88444 -12263193.25744  22375904.8404   22375904.6834
 -12249962.109 4  -9545415.996 4  22857703.714    22857703.210
  -4696422.20944  -3659533.78944  23567555.1204   23567555.1614
    523916.90744    408246.54644  24899219.8024   24899216.3884
 -19915301.78444 -15518410.48144  20590637.9724   20590637.6634
 94  4  6  4 15 30.0000000  0  8G16G 5G17G 6G 3G24G25G20
  -1052692.34844   -820276.77744  21122188.9944   21122188.5924
 -16535436.66744 -12884744.94344  21910198.1854   21910197.5624
 -12961972.78644 -10100226.91044  22557803.9294   22557804.2034
 -15812989.06144 -12321800.12344  22361592.3934   22361592.0144
 -12310018.386 4  -9592213.071 4  22846275.333    22846274.834
  -4616807.34744  -3597496.23244  23582705.2374   23582704.4014
    546433.14344    425791.59844  24903504.6674   24903507.2224
 -19884032.37644 -15494044.70744  20596588.4224   20596587.9584
 94  4  6  4 16  0.0000000  0  8G16G 5G 6G17G 3G24G25G20
  -1034047.87044   -805748.59944  21125736.9824   21125736.6574
 -16444651.34944 -12814003.13344  21927474.1684   21927473.6874
 -15888140.33844 -12380359.55144  22347291.8524   22347290.8874
 -13032501.40844 -10155184.22644  22544382.8634   22544384.2114
 -12370052.051 4  -9638992.520 4  22834851.285    22834850.708
  -4537180.35844  -3535449.21844  23597858.0814   23597857.3124
    569373.14144    443666.88744  24907870.6954   24907871.0764
 -19852177.16644 -15469222.46644  20602650.1984   20602649.7934
 94  4  6  4 16 30.0000000  0  8G16G 5G17G 6G 3G24G25G20
  -1014796.41644   -790747.45544  21129400.4314   21129400.0454
 -16353518.31044 -12742990.38544  21944816.4304   21944815.6254
 -13102763.20844 -10209933.63844  22531012.7234   22531013.2764
 -15963222.21944 -12438864.89844  22333003.9924   22333003.2554
 -12430045.939 4  -9685740.972 4  22823434.765    22823434.237
  -4457506.31044  -3473365.55744  23613019.8364   23613018.6974
    592753.91744    461885.65144  24912320.2964   24912320.5864
 -19819719.86244 -15443931.06244  20608826.5524   20608826.2854
 94  4  6  4 17  0.0000000  0  8G16G 5G17G 6G 3G24G25G20
   -994944.43544   -775278.36744  21133178.0044   21133177.7484
 -16262060.31344 -12671724.42644  21962220.4194   21962219.6614
 -13172772.98244 -10264486.67144  22517690.3624   22517690.9244
 -16038263.91744 -12497338.92944  22318724.0054   22318723.4084
 -12490028.334 4  -9732480.474 4  22812020.531    22812019.941
  -4377805.48244  -3411260.99644  23628186.3724   23628186.1434
    616544.84044    480424.08444  24916847.7574   24916847.5914
 -19786690.00944 -15418193.51544  20615111.9454   20615111.5584
 94  4  6  4 17 30.0000000  0  8G16G 5G17G 6G 3G24G25G20
   -974480.01244   -759332.05344  21137072.2494   21137071.9994
 -16170276.72444 -12600204.74944  21979686.3144   21979685.7144
 -13242512.76344 -10318829.31144  22504419.3794   22504419.9104
 -16113254.70544 -12555773.29844  22304453.7134   22304453.4814
 -12549999.012 4  -9779210.844 4  22800608.489    22800607.982
  -4298096.16544  -3349149.84644  23643354.4974   23643353.8934
    640763.66744    499295.80544  24921455.8404   24921457.9444
 -19753088.56444 -15392010.57544  20621506.1224   20621505.8734
 94  4  6  4 18  0.0000000  0  8G16G 5G17G 6G 3G24G25G20
   -953420.84444   -742922.30144  21141079.7054   21141079.0674
 -16078186.94344 -12528446.48444  21997210.1984   21997209.7124
 -13311992.62944 -10372969.42944  22491197.8914   22491197.4544
 -16188201.21744 -12614173.15744  22290191.8344   22290190.7614
 -12609966.399 4  -9825938.659 4  22789197.059    22789196.560
  -4218396.72344  -3287046.37444  23658520.5654   23658520.1774
    665397.64444    518491.10344  24926143.2694   24926146.9204
 -19718925.17344 -15365389.75444  20628007.2824   20628006.8494
 94  4  6  4 18 30.0000000  0  8G16G 6G17G 3G 5G24G25G20
   -931772.96544   -726053.81444  21145199.1654   21145198.5384
 -16263099.67044 -12672535.56844  22275939.2804   22275937.9114
 -13381221.44344 -10426913.91244  22478023.8994   22478023.4994
 -12669930.708 4  -9872664.072 4  22777786.202    22777785.746
 -15985800.13244 -12456456.74744  22014790.6514   22014790.4474
  -4138708.14844  -3224951.37344  23673684.5424   23673684.9164
    690433.10344    537999.27644  24930907.3044   24930909.9444
 -19684201.11844 -15338332.05244  20634615.1484   20634614.6724
 94  4  6  4 19  0.0000000  0  8G16G17G 6G 3G 5G24G25G20
   -909549.85744   -708737.09844  21149428.0734   21149427.5824
 -13450216.03444 -10480675.89844  22464894.5654   22464894.0214
 -16337936.14744 -12730849.69344  22261698.3354   22261697.3224
 -12729892.187 4  -9919387.281 4  22766375.930    22766375.524
 -15893124.61144 -12384242.05544  22032426.2994   22032426.0994
  -4059045.82044  -3162876.81244  23688843.5034   23688843.2054
    715878.24244    557826.66544  24935748.2824   24935743.6124
 -19648918.15844 -15310838.84044  20641329.0644   20641328.6064
 94  4  6  4 19 30.0000000  0  7G16G17G 6G 3G 5G24G20
   -886759.54144   -690978.39744  21153764.8544   21153764.3254
 -13518962.73144 -10534244.69944  22451812.3864   22451812.5004
 -16412681.04844 -12789092.45544  22247474.9644   22247474.1574
 -12789830.364 4  -9966092.338 4  22754970.031    22754969.610
 -15800141.60344 -12311787.75344  22050120.3654   22050119.3884
  -3979389.04444  -3100806.60744  23704001.5964   23704003.3354
 -19613057.08244 -15282895.14444  20648153.1704   20648152.7254
 94  4  6  4 20  0.0000000  0  7G16G17G 6G 3G 5G24G20
   -863436.96944   -672804.95844  21158203.0784   21158202.4104
 -13587477.97944 -10587633.17044  22438774.1024   22438774.8454
 -16487347.13444 -12847273.81144  22233266.6004   22233265.6764
 -12849753.527 4 -10012785.690 4  22743566.954    22743566.564
 -15706857.84544 -12239099.11644  22067871.8974   22067871.2084
  -3899730.57244  -3038735.06544  23719159.8314   23719158.3394
 -19576627.59744 -15254508.53544  20655085.6164   20655085.0034
 94  4  6  4 20 30.0000000  0  7G16G17G 6G 3G 5G24G20
   -839551.74944   -654193.08944  21162748.2804   21162747.8554
 -13655720.27844 -10640808.95544  22425788.0204   22425788.6834
 -16561884.75844 -12905355.06344  22219082.4634   22219081.7544
 -12909627.672 4 -10059440.838 4  22732173.223    22732172.862
 -15613237.43644 -12166148.16144  22085687.6744   22085686.2324
  -3820034.46844  -2976634.19344  23734325.6604   23734324.4694
 -19539596.56344 -15225653.18844  20662132.4444   20662132.0874
 94  4  6  4 21  0.0000000  0  7G16G17G 6G 3G 5G24G20
   -815115.48144   -635151.83144  21167398.4004   21167398.0494
 -13723682.05244 -10693766.14244  22412855.5744   22412855.5524
 -16636292.00844 -12963334.72144  22204922.9494   22204922.2344
 -12969458.194 4 -10106062.006 4  22720787.754    22720787.395
 -15519282.49544 -12092936.53444  22103566.7244   22103566.3444
  -3740299.57144  -2914503.08444  23749499.0484   23749497.2054
 -19501971.23144 -15196334.75344  20669292.2074   20669291.8514
 94  4  6  4 21 30.0000000  0  7G16G17G 6G 3G 5G24G20
   -790162.13544   -615707.65844  21172146.8324   21172146.2014
 -13791402.57844 -10746535.36044  22399968.8744   22399968.4334
 -16710623.49044 -13021255.33844  22190777.8844   22190777.4134
 -13029288.014 4 -10152682.632 4  22709402.577    22709402.164
 -15425042.44244 -12019502.73344  22121499.9324   22121499.1924
  -3660558.77344  -2852367.41144  23764673.2234   23764675.6764
 -19463795.78344 -15166587.66144  20676556.8554   20676556.5394
 94  4  6  4 22  0.0000000  0  7G16G17G 6G 3G 5G24G20
   -764673.66344   -595846.50244  21176997.1474   21176996.2964
 -13858890.84044 -10799123.58244  22387126.3164   22387126.4694
 -16784880.88944 -13079118.23644  22176647.2904   22176646.9564
 -13089118.947 4 -10199304.114 4  22698017.197    22698016.679
 -15330527.87744 -11945855.02544  22139485.3254   22139484.3894
  -3580824.65844  -2790236.96044  23779846.4094   23779845.6524
 -19425073.48544 -15136414.44544  20683925.4484   20683924.9074
 94  4  6  4 22 30.0000000  0  7G16G17G 6G 3G 5G24G20
   -738616.10744   -575541.90844  21181955.5274   21181954.9264
 -13926147.92244 -10851531.66544  22374327.5394   22374327.3364
 -16859053.47044 -13136915.03444  22162532.8474   22162532.2304
 -13148948.448 4 -10245924.488 4  22686631.954    22686631.516
 -15235743.33744 -11871996.94444  22157522.1554   22157521.5414
  -3501101.72144  -2728115.19744  23795017.3404   23795015.4394
 -19385803.20744 -15105814.23644  20691398.1934   20691398.0374
 94  4  6  4 23  0.0000000  0  7G16G17G 6G 3G 5G24G20
   -711985.75944   -554790.98444  21187023.0664   21187022.6794
 -13993188.32044 -10903770.90144  22361570.0874   22361569.7954
 -16933180.53044 -13194676.36544  22148426.9404   22148426.4054
 -13208787.458 4 -10292552.277 4  22675245.122    22675244.499
 -15140700.89244 -11797937.89344  22175608.0434   22175607.7684
  -3421413.65144  -2666020.62944  23810181.5314   23810181.3384
 -19345997.50844 -15074796.81644  20698972.7914   20698972.8734
 94  4  6  4 23 30.0000000  0  7G16G17G 6G 3G 5G24G20
   -684776.98144   -533589.33544  21192200.8334   21192200.3934
 -14060021.46044 -10955848.64244  22348852.1254   22348851.6204
 -17007267.74444 -13252406.64844  22134328.5194   22134327.8414
 -13268631.617 4 -10339184.074 4  22663857.104    22663856.609
 -15045399.34644 -11723676.94144  22193743.3924   22193742.7274
  -3341771.45144  -2603961.77944  23825337.1204   23825334.5864
 -19305653.68244 -15043360.07444  20706649.9474   20706649.8594
 94  4  6  4 24  0.0000000  0  7G16G17G 6G 3G 5G24G20
   -656985.09344   -511933.31244  21197489.2924   21197488.9044
 -14126622.53544 -11007745.54744  22336178.4324   22336178.2924
 -17081297.06344 -13310091.82944  22120241.3064   22120240.2274
 -13328463.710 4 -10385806.463 4  22652471.351    22652470.968
 -14949816.48944 -11649196.79644  22211932.1624   22211931.2444
  -3262156.92644  -2541924.47944  23840487.2034   23840487.0544
 -19264755.94844 -15011491.70944  20714432.5384   20714432.2684
 94  4  6  4 24 30.0000000  0  7G16G17G 6G 3G 5G24G20
   -628605.73644   -489819.52044  21202889.7244   21202889.3344
 -14192971.62544 -11059446.11944  22323552.6174   22323552.8814
 -17155262.70544 -13367727.38044  22106166.1054   22106165.2914
 -13388267.138 4 -10432406.514 4  22641091.071    22641090.759
 -14853932.28544 -11574481.84544  22230178.3364   22230177.5174
  -3182553.85044  -2479896.10944  23855635.0164   23855633.9984
 -19223289.47344 -14979180.16944  20722323.3574   20722323.4874
 94  4  6  4 25  0.0000000  0  7G16G17G 6G 3G 5G24G20
   -599639.04544   -467248.06444  21208401.8384   21208401.4074
 -14259039.46044 -11110927.52244  22310980.2954   22310980.4374
 -17229142.45644 -13425296.00844  22092107.1234   22092106.2294
 -13448014.160 4 -10478962.611 4  22629721.515    22629721.235
 -14757718.72044 -11499510.24344  22248487.2024   22248486.5454
  -3102944.33144  -2417862.73244  23870784.2044   23870783.3524
 -19181228.22944 -14946405.17444  20730327.3674   20730327.3854
 94  4  6  4 25 30.0000000  0  7G16G17G 6G 3G 5G24G20
   -570109.46544   -444237.99444  21214021.1664   21214020.7694
 -14324826.08344 -11162189.79944  22298461.5804   22298461.4894
 -17302920.32944 -13482785.24544  22078067.7104   22078066.8474
 -13507713.228 4 -10525481.344 4  22618361.109    22618360.795
 -14661185.12644 -11424289.27344  22266857.0264   22266855.9634
  -3023331.23344  -2355826.54244  23885934.0264   23885933.6204
 -19138581.97344 -14913174.32744  20738442.7074   20738442.8034
 94  4  6  4 26  0.0000000  0  7G16G17G 6G 3G 5G24G20
   -540049.51844   -420814.65344  21219741.3554   21219740.9984
 -14390341.59744 -11213240.81944  22285994.2254   22285994.6734
 -17376610.27144 -13540205.96844  22064044.8204   22064044.2334
 -13567386.966 4 -10571980.343 4  22607005.586    22607005.193
 -14564359.08044 -11348840.41344  22285282.3344   22285281.4084
  -2943735.85144  -2293804.15044  23901080.1044   23901081.1914
 -19095375.32944 -14879506.81644  20746664.6044   20746664.6834
 94  4  6  4 26 30.0000000  0  7G16G17G 6G 3G 5G24G20
   -509449.68144   -396970.61544  21225564.3354   21225564.1484
 -14455581.39144 -11264077.00144  22273579.4614   22273579.6524
 -17450196.60344 -13597545.95944  22050041.5834   22050040.8844
 -13627027.529 4 -10618453.503 4  22595656.397    22595655.950
 -14467248.57244 -11273169.89244  22303761.6694   22303760.4464
  -2864158.26144  -2231795.64944  23916223.2594   23916223.0944
 -19051602.23644 -14845397.91644  20754994.3774   20754994.2274
 94  4  6  4 27  0.0000000  0  7G16G17G 6G 3G 5G24G20
   -478300.18444   -372698.27144  21231491.8584   21231491.3744
 -14520541.25944 -11314695.04944  22261217.7054   22261217.8194
 -17523662.56344 -13654792.14544  22036061.5514   22036061.3054
 -13686630.124 4 -10664897.075 4  22584314.378    22584313.953
 -14369853.26144 -11197277.45544  22322295.4514   22322295.1314
  -2784577.01444  -2169784.28244  23931367.1004   23931368.6864
 -19007259.75844 -14810845.33944  20763432.6514   20763432.1234
 94  4  6  4 27 30.0000000  0  7G16G17G 6G 3G 5G24G20
   -446595.40944   -347993.24844  21237525.2654   21237524.5764
 -14585236.00244 -11365106.51644  22248906.6654   22248907.3444
 -17597010.28844 -13711946.21144  22022104.2024   22022103.0434
 -13746201.556 4 -10711316.370 4  22572978.299    22572977.888
 -14272190.27544 -11121176.45144  22340879.8744   22340878.4354
  -2704984.43744  -2107764.06944  23946512.5454   23946515.4014
 -18962356.50544 -14775855.79744  20771977.5024   20771976.8984
 94  4  6  4 28  0.0000000  0  8G16G17G 6G 3G 5G24G23G20
   -414343.25144   -322861.69044  21243662.5864   21243662.1014
 -14649709.89644 -11415345.88144  22236637.7954   22236638.2364
 -17670271.15944 -13769032.59844  22008163.4024   22008162.4424
 -13805764.551 4 -10757729.082 4  22561643.812    22561643.447
 -14174285.50544 -11044887.02744  22359510.6534   22359510.1004
  -2625399.75344  -2045750.00044  23961657.3084   23961658.8174
        -0.40354         0.04254  25006832.2604   25006843.6014
 -18916916.85044 -14740448.28544  20780624.3084   20780623.9074
 94  4  6  4 28 30.0000000  0  7G16G17G 6G 3G 5G24G20
   -381531.87044   -297294.36944  21249906.4384   21249905.8164
 -14713988.93744 -11465433.42244  22224405.5664   22224406.4724
 -17743459.98144 -13826062.83944  21994236.0894   21994235.0014
 -13865328.852 4 -10804142.806 4  22550309.071    22550308.783
 -14076142.30344 -10968411.81944  22378186.8044   22378185.1724
  -2545835.58944  -1983751.96944  23976797.8564   23976797.6084
 -18870952.61144 -14704632.00744  20789371.0924   20789370.6674
 94  4  6  4 29  0.0000000  0  7G16G17G 6G 3G 5G24G20
   -348129.85944   -271266.82344  21256262.7884   21256261.7284
 -14778047.73944 -11515349.35844  22212215.6884   22212215.9214
 -17816549.85944 -13883015.97944  21980327.4054   21980326.3444
 -13924868.980 4 -10850537.698 4  22538978.977    22538978.667
 -13977739.69244 -10891734.46844  22396912.2134   22396911.3354
  -2466266.96944  -1921750.45544  23991939.3774   23991939.3674
 -18824440.01144 -14668388.43144  20798222.3424   20798221.6614
 94  4  6  4 29 30.0000000  0  7G16G17G 6G 3G 5G24G20
   -314173.08044   -244806.99144  21262724.4134   21262723.8044
 -14841907.46644 -11565110.17344  22200063.6494   22200064.1474
 -17889574.41544 -13939918.22244  21966431.1834   21966430.2414
 -13984416.217 4 -10896938.134 4  22527647.546    22527647.156
 -13879112.94044 -10814882.46444  22415680.3994   22415679.6734
  -2386750.05444  -1859789.22844  24007071.1054   24007070.2304
 -18777412.44844 -14631743.58444  20807171.2054   20807170.8004
 94  4  6  4 30  0.0000000  0  7G16G17G 6G 3G 5G24G20
   -279610.45044   -217875.06744  21269301.5134   21269300.5914
 -14905496.42944 -11614659.99744  22187963.0774   22187963.8214
 -17962486.18544 -13996732.58244  21952556.5644   21952555.4194
 -14043918.001 4 -10943303.154 4  22516324.638    22516324.283
 -13780207.86944 -10737813.57644  22434501.4714   22434500.4554
  -2307239.54444  -1797833.01144  24022201.5134   24022200.7354
 -18729819.12844 -14594657.88744  20816227.7824   20816227.4614
 94  4  6  4 30 30.0000000  0  8G16G17G 6G 3G 5G24G23G20
   -244455.01544   -190481.22244  21275991.3714   21275990.7654
 -14968780.69244 -11663972.38744  22175920.5614   22175921.0464
 -18035265.24544 -14053443.52844  21938707.1084   21938706.1794
 -14103368.526 4 -10989628.234 4  22505011.534    22505011.119
 -13681030.95944 -10660532.87644  22453374.1974   22453373.5594
  -2227736.74644  -1735882.77444  24037330.6434   24037329.4384
        -0.28954         0.11154  24904077.0664   24904075.7204
 -18681656.35044 -14557128.45144  20825392.8354   20825392.6344
 94  4  6  4 31  0.0000000  0  8G16G17G 6G 3G 5G24G23G20
   -208770.88144   -162675.40044  21282781.9414   21282781.1124
 -15031780.89744 -11713063.44444  22163932.2134   22163932.1434
 -18107943.95444 -14110076.28044  21924876.7034   21924876.4534
 -14162808.361 4 -11035944.979 4  22493700.446    22493700.048
 -13581623.96644 -10583072.89344  22472290.8384   22472289.9084
  -2148274.40844  -1673964.10344  24052451.8274   24052449.8454
   -107905.23144    -84081.53544  24883543.8494   24883545.0444
 -18632966.74244 -14519188.49744  20834658.3854   20834658.2354
 94  4  6  4 31 30.0000000  0  8G16G17G 6G 3G 5G24G23G20
   -172588.94844   -134481.68444  21289666.9044   21289666.2224
 -15094518.88544 -11761950.17644  22151993.5394   22151993.7424
 -18180543.31744 -14166647.19944  21911061.4184   21911060.8514
 -14222256.203 4 -11082267.964 4  22482387.840    22482387.508
 -13481988.46944 -10505434.84944  22491250.7174   22491249.3234
  -2068870.31644  -1612090.77444  24067561.9304   24067559.4524
   -215855.82744   -168198.86544  24863000.9734   24862999.6264
 -18583770.77044 -14480853.98244  20844020.1834   20844019.7214
 94  4  6  4 32  0.0000000  0  8G16G17G 6G 3G 5G24G23G20
   -135883.64144   -105880.14744  21296651.5434   21296650.9884
 -15156981.23544 -11810622.12444  22140107.3034   22140107.1664
 -18253027.19844 -14223128.13944  21897268.2274   21897267.4584
 -14281680.802 4 -11128572.837 4  22471079.697    22471079.473
 -13382096.47044 -10427596.94244  22510259.1754   22510258.7004
  -1989477.98544  -1550226.64844  24082669.7994   24082670.0764
   -323806.54644   -252316.26244  24842457.8594   24842459.0414
 -18534039.51444 -14442102.36444  20853483.9064   20853483.3024
 94  4  6  4 32 30.0000000  0  8G16G17G 6G 3G 5G24G23G20
    -98653.34244    -76869.52044  21303736.4854   21303735.8044
 -15219178.91444 -11859087.83144  22128271.6114   22128271.5444
 -18325380.95244 -14279507.67344  21883499.9624   21883499.5704
 -14341078.027 4 -11174856.379 4  22459776.836    22459776.639
 -13281941.23744 -10349553.91244  22529318.1874   22529315.8714
  -1910094.44144  -1488369.38944  24097775.3894   24097773.0334
   -431733.83544   -336415.38144  24821919.8824   24821921.9594
 -18483770.97744 -14402932.08244  20863049.6144   20863049.1274
 94  4  6  4 33  0.0000000  0  8G16G17G 6G 3G 5G24G23G20
    -60885.38544    -47439.94344  21310923.5464   21310922.8214
 -15281127.19244 -11907359.20644  22116483.4934   22116483.1594
 -18397604.94644 -14335786.10444  21869756.1844   21869755.0594
 -14400437.301 4 -11221110.357 4  22448481.148    22448480.917
 -13181508.83444 -10271294.91044  22548430.0864   22548428.6604
  -1830710.35144  -1426511.61244  24112881.4794   24112880.8104
   -539626.22344   -420487.37044  24801388.9494   24801387.7174
 -18432956.69644 -14363336.55144  20872719.0734   20872718.6444
